<?xml version="1.0" encoding="UTF-8" standalone="no" ?>
<gpx xmlns="http://www.topografix.com/GPX/1/1" xmlns:xsi="http://www.w3.org/2001/XMLSchema-instance" xsi:schemaLocation="http://www.topografix.com/GPX/1/1 http://www.topografix.com/GPX/1/1/gpx.xsd" version="1.1" creator="VisuGPX - https://www.visugpx.com">
  <metadata>
    <name>Gr20 étape 7</name>
    <desc><![CDATA[De Manganu à Onda]]></desc>
  </metadata>
  <trk>
    <name><![CDATA[2015-09-10 17:04:12]]></name>
    <trkseg>
      <trkpt lat="42.21925" lon="8.98123">
        <ele>1610.35</ele>
        <time>2015-09-10T04:31:19Z</time>
      </trkpt>
      <trkpt lat="42.21926" lon="8.98124">
        <ele>1610.35</ele>
        <time>2015-09-10T04:31:48Z</time>
      </trkpt>
      <trkpt lat="42.21928" lon="8.98129">
        <ele>1608.9</ele>
        <time>2015-09-10T04:32:10Z</time>
      </trkpt>
      <trkpt lat="42.21928" lon="8.98129">
        <ele>1608.9</ele>
        <time>2015-09-10T04:32:11Z</time>
      </trkpt>
      <trkpt lat="42.21927" lon="8.98126">
        <ele>1608.9</ele>
        <time>2015-09-10T04:32:39Z</time>
      </trkpt>
      <trkpt lat="42.21931" lon="8.98123">
        <ele>1608.9</ele>
        <time>2015-09-10T04:33:06Z</time>
      </trkpt>
      <trkpt lat="42.21938" lon="8.98115">
        <ele>1607.94</ele>
        <time>2015-09-10T04:33:15Z</time>
      </trkpt>
      <trkpt lat="42.21957" lon="8.98096">
        <ele>1605.06</ele>
        <time>2015-09-10T04:33:40Z</time>
      </trkpt>
      <trkpt lat="42.21978" lon="8.9808">
        <ele>1603.14</ele>
        <time>2015-09-10T04:34:06Z</time>
      </trkpt>
      <trkpt lat="42.21985" lon="8.9806">
        <ele>1602.66</ele>
        <time>2015-09-10T04:34:25Z</time>
      </trkpt>
      <trkpt lat="42.21988" lon="8.98042">
        <ele>1602.66</ele>
        <time>2015-09-10T04:34:45Z</time>
      </trkpt>
      <trkpt lat="42.21994" lon="8.98025">
        <ele>1600.73</ele>
        <time>2015-09-10T04:35:05Z</time>
      </trkpt>
      <trkpt lat="42.21995" lon="8.98022">
        <ele>1602.17</ele>
        <time>2015-09-10T04:35:11Z</time>
      </trkpt>
      <trkpt lat="42.21988" lon="8.9804">
        <ele>1602.17</ele>
        <time>2015-09-10T04:35:32Z</time>
      </trkpt>
      <trkpt lat="42.21987" lon="8.98044">
        <ele>1601.21</ele>
        <time>2015-09-10T04:36:00Z</time>
      </trkpt>
      <trkpt lat="42.21987" lon="8.98044">
        <ele>1602.66</ele>
        <time>2015-09-10T04:36:04Z</time>
      </trkpt>
      <trkpt lat="42.21993" lon="8.98039">
        <ele>1602.66</ele>
        <time>2015-09-10T04:36:29Z</time>
      </trkpt>
      <trkpt lat="42.21997" lon="8.98055">
        <ele>1600.25</ele>
        <time>2015-09-10T04:36:46Z</time>
      </trkpt>
      <trkpt lat="42.22007" lon="8.98067">
        <ele>1596.89</ele>
        <time>2015-09-10T04:37:09Z</time>
      </trkpt>
      <trkpt lat="42.22019" lon="8.98064">
        <ele>1594</ele>
        <time>2015-09-10T04:37:29Z</time>
      </trkpt>
      <trkpt lat="42.22034" lon="8.98086">
        <ele>1594.48</ele>
        <time>2015-09-10T04:37:55Z</time>
      </trkpt>
      <trkpt lat="42.22025" lon="8.98095">
        <ele>1597.37</ele>
        <time>2015-09-10T04:38:16Z</time>
      </trkpt>
      <trkpt lat="42.22022" lon="8.98115">
        <ele>1601.21</ele>
        <time>2015-09-10T04:38:37Z</time>
      </trkpt>
      <trkpt lat="42.22006" lon="8.98124">
        <ele>1603.14</ele>
        <time>2015-09-10T04:39:00Z</time>
      </trkpt>
      <trkpt lat="42.2199" lon="8.98136">
        <ele>1604.1</ele>
        <time>2015-09-10T04:39:24Z</time>
      </trkpt>
      <trkpt lat="42.2198" lon="8.98148">
        <ele>1606.02</ele>
        <time>2015-09-10T04:39:46Z</time>
      </trkpt>
      <trkpt lat="42.21966" lon="8.98163">
        <ele>1607.94</ele>
        <time>2015-09-10T04:40:09Z</time>
      </trkpt>
      <trkpt lat="42.21951" lon="8.98173">
        <ele>1606.5</ele>
        <time>2015-09-10T04:40:30Z</time>
      </trkpt>
      <trkpt lat="42.21938" lon="8.98178">
        <ele>1608.9</ele>
        <time>2015-09-10T04:40:53Z</time>
      </trkpt>
      <trkpt lat="42.21925" lon="8.98187">
        <ele>1609.86</ele>
        <time>2015-09-10T04:41:13Z</time>
      </trkpt>
      <trkpt lat="42.21913" lon="8.98192">
        <ele>1610.83</ele>
        <time>2015-09-10T04:41:33Z</time>
      </trkpt>
      <trkpt lat="42.21899" lon="8.98199">
        <ele>1613.23</ele>
        <time>2015-09-10T04:41:57Z</time>
      </trkpt>
      <trkpt lat="42.21893" lon="8.9821">
        <ele>1614.67</ele>
        <time>2015-09-10T04:42:13Z</time>
      </trkpt>
      <trkpt lat="42.21883" lon="8.98215">
        <ele>1616.11</ele>
        <time>2015-09-10T04:42:33Z</time>
      </trkpt>
      <trkpt lat="42.21868" lon="8.98212">
        <ele>1618.52</ele>
        <time>2015-09-10T04:42:55Z</time>
      </trkpt>
      <trkpt lat="42.21862" lon="8.98221">
        <ele>1620.92</ele>
        <time>2015-09-10T04:43:17Z</time>
      </trkpt>
      <trkpt lat="42.2185" lon="8.9823">
        <ele>1623.8</ele>
        <time>2015-09-10T04:43:39Z</time>
      </trkpt>
      <trkpt lat="42.21845" lon="8.98244">
        <ele>1626.21</ele>
        <time>2015-09-10T04:44:01Z</time>
      </trkpt>
      <trkpt lat="42.21834" lon="8.98255">
        <ele>1627.65</ele>
        <time>2015-09-10T04:44:20Z</time>
      </trkpt>
      <trkpt lat="42.21818" lon="8.98257">
        <ele>1629.57</ele>
        <time>2015-09-10T04:44:41Z</time>
      </trkpt>
      <trkpt lat="42.21799" lon="8.98258">
        <ele>1631.49</ele>
        <time>2015-09-10T04:45:03Z</time>
      </trkpt>
      <trkpt lat="42.21782" lon="8.9827">
        <ele>1632.46</ele>
        <time>2015-09-10T04:45:23Z</time>
      </trkpt>
      <trkpt lat="42.21772" lon="8.98277">
        <ele>1633.42</ele>
        <time>2015-09-10T04:45:42Z</time>
      </trkpt>
      <trkpt lat="42.21761" lon="8.98285">
        <ele>1634.86</ele>
        <time>2015-09-10T04:46:01Z</time>
      </trkpt>
      <trkpt lat="42.21752" lon="8.98295">
        <ele>1636.78</ele>
        <time>2015-09-10T04:46:20Z</time>
      </trkpt>
      <trkpt lat="42.2174" lon="8.983">
        <ele>1638.7</ele>
        <time>2015-09-10T04:46:40Z</time>
      </trkpt>
      <trkpt lat="42.21734" lon="8.98302">
        <ele>1637.26</ele>
        <time>2015-09-10T04:46:50Z</time>
      </trkpt>
      <trkpt lat="42.21726" lon="8.98308">
        <ele>1640.63</ele>
        <time>2015-09-10T04:47:06Z</time>
      </trkpt>
      <trkpt lat="42.21714" lon="8.98314">
        <ele>1641.11</ele>
        <time>2015-09-10T04:47:27Z</time>
      </trkpt>
      <trkpt lat="42.21704" lon="8.98322">
        <ele>1641.59</ele>
        <time>2015-09-10T04:47:45Z</time>
      </trkpt>
      <trkpt lat="42.21696" lon="8.98332">
        <ele>1642.55</ele>
        <time>2015-09-10T04:48:04Z</time>
      </trkpt>
      <trkpt lat="42.21693" lon="8.98334">
        <ele>1642.55</ele>
        <time>2015-09-10T04:48:24Z</time>
      </trkpt>
      <trkpt lat="42.21693" lon="8.98332">
        <ele>1642.55</ele>
        <time>2015-09-10T04:48:47Z</time>
      </trkpt>
      <trkpt lat="42.21688" lon="8.98327">
        <ele>1642.55</ele>
        <time>2015-09-10T04:49:15Z</time>
      </trkpt>
      <trkpt lat="42.21688" lon="8.98323">
        <ele>1642.55</ele>
        <time>2015-09-10T04:49:42Z</time>
      </trkpt>
      <trkpt lat="42.2169" lon="8.98326">
        <ele>1641.59</ele>
        <time>2015-09-10T04:50:09Z</time>
      </trkpt>
      <trkpt lat="42.21688" lon="8.98328">
        <ele>1641.59</ele>
        <time>2015-09-10T04:50:32Z</time>
      </trkpt>
      <trkpt lat="42.21685" lon="8.98326">
        <ele>1642.55</ele>
        <time>2015-09-10T04:50:42Z</time>
      </trkpt>
      <trkpt lat="42.21677" lon="8.98328">
        <ele>1643.51</ele>
        <time>2015-09-10T04:50:57Z</time>
      </trkpt>
      <trkpt lat="42.21666" lon="8.98342">
        <ele>1643.51</ele>
        <time>2015-09-10T04:51:17Z</time>
      </trkpt>
      <trkpt lat="42.21657" lon="8.9835">
        <ele>1644.47</ele>
        <time>2015-09-10T04:51:34Z</time>
      </trkpt>
      <trkpt lat="42.21645" lon="8.98349">
        <ele>1645.91</ele>
        <time>2015-09-10T04:51:53Z</time>
      </trkpt>
      <trkpt lat="42.21635" lon="8.98356">
        <ele>1646.4</ele>
        <time>2015-09-10T04:52:09Z</time>
      </trkpt>
      <trkpt lat="42.21624" lon="8.98359">
        <ele>1647.36</ele>
        <time>2015-09-10T04:52:26Z</time>
      </trkpt>
      <trkpt lat="42.21614" lon="8.9836">
        <ele>1648.8</ele>
        <time>2015-09-10T04:52:41Z</time>
      </trkpt>
      <trkpt lat="42.21602" lon="8.98366">
        <ele>1650.72</ele>
        <time>2015-09-10T04:52:59Z</time>
      </trkpt>
      <trkpt lat="42.21592" lon="8.98372">
        <ele>1652.64</ele>
        <time>2015-09-10T04:53:17Z</time>
      </trkpt>
      <trkpt lat="42.21583" lon="8.98376">
        <ele>1654.57</ele>
        <time>2015-09-10T04:53:36Z</time>
      </trkpt>
      <trkpt lat="42.2158" lon="8.98382">
        <ele>1656.97</ele>
        <time>2015-09-10T04:53:56Z</time>
      </trkpt>
      <trkpt lat="42.21578" lon="8.98389">
        <ele>1658.89</ele>
        <time>2015-09-10T04:54:17Z</time>
      </trkpt>
      <trkpt lat="42.21575" lon="8.98394">
        <ele>1661.3</ele>
        <time>2015-09-10T04:54:40Z</time>
      </trkpt>
      <trkpt lat="42.21566" lon="8.98397">
        <ele>1664.66</ele>
        <time>2015-09-10T04:55:01Z</time>
      </trkpt>
      <trkpt lat="42.21562" lon="8.98401">
        <ele>1668.02</ele>
        <time>2015-09-10T04:55:24Z</time>
      </trkpt>
      <trkpt lat="42.21557" lon="8.98402">
        <ele>1668.99</ele>
        <time>2015-09-10T04:55:40Z</time>
      </trkpt>
      <trkpt lat="42.21553" lon="8.98407">
        <ele>1671.39</ele>
        <time>2015-09-10T04:56:01Z</time>
      </trkpt>
      <trkpt lat="42.21546" lon="8.9841">
        <ele>1673.31</ele>
        <time>2015-09-10T04:56:21Z</time>
      </trkpt>
      <trkpt lat="42.21537" lon="8.98403">
        <ele>1674.27</ele>
        <time>2015-09-10T04:56:41Z</time>
      </trkpt>
      <trkpt lat="42.21528" lon="8.98405">
        <ele>1677.16</ele>
        <time>2015-09-10T04:57:03Z</time>
      </trkpt>
      <trkpt lat="42.21524" lon="8.98407">
        <ele>1680.04</ele>
        <time>2015-09-10T04:57:25Z</time>
      </trkpt>
      <trkpt lat="42.21522" lon="8.98408">
        <ele>1683.41</ele>
        <time>2015-09-10T04:57:49Z</time>
      </trkpt>
      <trkpt lat="42.21518" lon="8.98412">
        <ele>1685.33</ele>
        <time>2015-09-10T04:58:10Z</time>
      </trkpt>
      <trkpt lat="42.21515" lon="8.98411">
        <ele>1688.21</ele>
        <time>2015-09-10T04:58:33Z</time>
      </trkpt>
      <trkpt lat="42.21509" lon="8.98406">
        <ele>1689.65</ele>
        <time>2015-09-10T04:58:51Z</time>
      </trkpt>
      <trkpt lat="42.21503" lon="8.98398">
        <ele>1692.54</ele>
        <time>2015-09-10T04:59:11Z</time>
      </trkpt>
      <trkpt lat="42.21496" lon="8.98404">
        <ele>1695.42</ele>
        <time>2015-09-10T04:59:30Z</time>
      </trkpt>
      <trkpt lat="42.21493" lon="8.98408">
        <ele>1698.31</ele>
        <time>2015-09-10T04:59:46Z</time>
      </trkpt>
      <trkpt lat="42.21489" lon="8.98415">
        <ele>1700.71</ele>
        <time>2015-09-10T05:00:05Z</time>
      </trkpt>
      <trkpt lat="42.2148" lon="8.98419">
        <ele>1703.59</ele>
        <time>2015-09-10T05:00:25Z</time>
      </trkpt>
      <trkpt lat="42.21469" lon="8.98421">
        <ele>1705.52</ele>
        <time>2015-09-10T05:00:46Z</time>
      </trkpt>
      <trkpt lat="42.21466" lon="8.98419">
        <ele>1705.52</ele>
        <time>2015-09-10T05:01:02Z</time>
      </trkpt>
      <trkpt lat="42.21458" lon="8.98416">
        <ele>1707.92</ele>
        <time>2015-09-10T05:01:25Z</time>
      </trkpt>
      <trkpt lat="42.21454" lon="8.98422">
        <ele>1710.32</ele>
        <time>2015-09-10T05:01:47Z</time>
      </trkpt>
      <trkpt lat="42.21447" lon="8.98425">
        <ele>1713.21</ele>
        <time>2015-09-10T05:02:11Z</time>
      </trkpt>
      <trkpt lat="42.21442" lon="8.98422">
        <ele>1715.13</ele>
        <time>2015-09-10T05:02:31Z</time>
      </trkpt>
      <trkpt lat="42.21435" lon="8.98429">
        <ele>1718.01</ele>
        <time>2015-09-10T05:02:55Z</time>
      </trkpt>
      <trkpt lat="42.21427" lon="8.98427">
        <ele>1721.38</ele>
        <time>2015-09-10T05:03:14Z</time>
      </trkpt>
      <trkpt lat="42.21422" lon="8.98429">
        <ele>1723.3</ele>
        <time>2015-09-10T05:03:35Z</time>
      </trkpt>
      <trkpt lat="42.21418" lon="8.98431">
        <ele>1724.74</ele>
        <time>2015-09-10T05:04:01Z</time>
      </trkpt>
      <trkpt lat="42.21416" lon="8.98433">
        <ele>1726.18</ele>
        <time>2015-09-10T05:04:26Z</time>
      </trkpt>
      <trkpt lat="42.21411" lon="8.98434">
        <ele>1727.63</ele>
        <time>2015-09-10T05:04:47Z</time>
      </trkpt>
      <trkpt lat="42.21406" lon="8.98438">
        <ele>1730.51</ele>
        <time>2015-09-10T05:05:08Z</time>
      </trkpt>
      <trkpt lat="42.21405" lon="8.9844">
        <ele>1732.91</ele>
        <time>2015-09-10T05:05:30Z</time>
      </trkpt>
      <trkpt lat="42.21402" lon="8.98443">
        <ele>1736.28</ele>
        <time>2015-09-10T05:05:51Z</time>
      </trkpt>
      <trkpt lat="42.21396" lon="8.9845">
        <ele>1738.68</ele>
        <time>2015-09-10T05:06:13Z</time>
      </trkpt>
      <trkpt lat="42.21389" lon="8.9845">
        <ele>1741.08</ele>
        <time>2015-09-10T05:06:35Z</time>
      </trkpt>
      <trkpt lat="42.21386" lon="8.98449">
        <ele>1743.01</ele>
        <time>2015-09-10T05:06:53Z</time>
      </trkpt>
      <trkpt lat="42.21385" lon="8.98453">
        <ele>1744.93</ele>
        <time>2015-09-10T05:07:12Z</time>
      </trkpt>
      <trkpt lat="42.21381" lon="8.98461">
        <ele>1746.85</ele>
        <time>2015-09-10T05:07:36Z</time>
      </trkpt>
      <trkpt lat="42.21369" lon="8.98473">
        <ele>1748.29</ele>
        <time>2015-09-10T05:07:52Z</time>
      </trkpt>
      <trkpt lat="42.21361" lon="8.98484">
        <ele>1750.22</ele>
        <time>2015-09-10T05:08:10Z</time>
      </trkpt>
      <trkpt lat="42.21351" lon="8.98486">
        <ele>1752.14</ele>
        <time>2015-09-10T05:08:32Z</time>
      </trkpt>
      <trkpt lat="42.21346" lon="8.9849">
        <ele>1754.54</ele>
        <time>2015-09-10T05:08:54Z</time>
      </trkpt>
      <trkpt lat="42.21334" lon="8.98494">
        <ele>1755.99</ele>
        <time>2015-09-10T05:09:11Z</time>
      </trkpt>
      <trkpt lat="42.21329" lon="8.985">
        <ele>1759.35</ele>
        <time>2015-09-10T05:09:26Z</time>
      </trkpt>
      <trkpt lat="42.21327" lon="8.98507">
        <ele>1762.23</ele>
        <time>2015-09-10T05:09:44Z</time>
      </trkpt>
      <trkpt lat="42.21324" lon="8.98518">
        <ele>1765.12</ele>
        <time>2015-09-10T05:10:06Z</time>
      </trkpt>
      <trkpt lat="42.21324" lon="8.9853">
        <ele>1768.48</ele>
        <time>2015-09-10T05:10:27Z</time>
      </trkpt>
      <trkpt lat="42.21328" lon="8.98541">
        <ele>1770.89</ele>
        <time>2015-09-10T05:10:49Z</time>
      </trkpt>
      <trkpt lat="42.21326" lon="8.98555">
        <ele>1774.25</ele>
        <time>2015-09-10T05:11:10Z</time>
      </trkpt>
      <trkpt lat="42.21317" lon="8.98564">
        <ele>1776.17</ele>
        <time>2015-09-10T05:11:31Z</time>
      </trkpt>
      <trkpt lat="42.21303" lon="8.98578">
        <ele>1777.13</ele>
        <time>2015-09-10T05:11:54Z</time>
      </trkpt>
      <trkpt lat="42.21302" lon="8.9858">
        <ele>1777.13</ele>
        <time>2015-09-10T05:11:56Z</time>
      </trkpt>
      <trkpt lat="42.21293" lon="8.986">
        <ele>1776.17</ele>
        <time>2015-09-10T05:12:14Z</time>
      </trkpt>
      <trkpt lat="42.21282" lon="8.98607">
        <ele>1776.17</ele>
        <time>2015-09-10T05:12:31Z</time>
      </trkpt>
      <trkpt lat="42.21267" lon="8.98631">
        <ele>1776.17</ele>
        <time>2015-09-10T05:12:52Z</time>
      </trkpt>
      <trkpt lat="42.21257" lon="8.98652">
        <ele>1776.65</ele>
        <time>2015-09-10T05:13:12Z</time>
      </trkpt>
      <trkpt lat="42.21247" lon="8.98666">
        <ele>1776.65</ele>
        <time>2015-09-10T05:13:29Z</time>
      </trkpt>
      <trkpt lat="42.21242" lon="8.98677">
        <ele>1776.65</ele>
        <time>2015-09-10T05:13:42Z</time>
      </trkpt>
      <trkpt lat="42.21244" lon="8.98703">
        <ele>1778.58</ele>
        <time>2015-09-10T05:14:03Z</time>
      </trkpt>
      <trkpt lat="42.21245" lon="8.98706">
        <ele>1778.58</ele>
        <time>2015-09-10T05:14:05Z</time>
      </trkpt>
      <trkpt lat="42.21234" lon="8.98743">
        <ele>1778.58</ele>
        <time>2015-09-10T05:14:23Z</time>
      </trkpt>
      <trkpt lat="42.21225" lon="8.98762">
        <ele>1779.54</ele>
        <time>2015-09-10T05:14:39Z</time>
      </trkpt>
      <trkpt lat="42.21211" lon="8.98774">
        <ele>1780.98</ele>
        <time>2015-09-10T05:14:58Z</time>
      </trkpt>
      <trkpt lat="42.21199" lon="8.98787">
        <ele>1780.98</ele>
        <time>2015-09-10T05:15:16Z</time>
      </trkpt>
      <trkpt lat="42.21187" lon="8.98798">
        <ele>1781.46</ele>
        <time>2015-09-10T05:15:36Z</time>
      </trkpt>
      <trkpt lat="42.21175" lon="8.98807">
        <ele>1781.94</ele>
        <time>2015-09-10T05:15:56Z</time>
      </trkpt>
      <trkpt lat="42.21158" lon="8.98817">
        <ele>1782.42</ele>
        <time>2015-09-10T05:16:19Z</time>
      </trkpt>
      <trkpt lat="42.21153" lon="8.98823">
        <ele>1783.38</ele>
        <time>2015-09-10T05:16:27Z</time>
      </trkpt>
      <trkpt lat="42.21139" lon="8.98834">
        <ele>1785.31</ele>
        <time>2015-09-10T05:16:47Z</time>
      </trkpt>
      <trkpt lat="42.21131" lon="8.98849">
        <ele>1787.23</ele>
        <time>2015-09-10T05:17:06Z</time>
      </trkpt>
      <trkpt lat="42.21126" lon="8.98863">
        <ele>1789.63</ele>
        <time>2015-09-10T05:17:29Z</time>
      </trkpt>
      <trkpt lat="42.21127" lon="8.98879">
        <ele>1792.52</ele>
        <time>2015-09-10T05:17:52Z</time>
      </trkpt>
      <trkpt lat="42.21123" lon="8.98884">
        <ele>1794.92</ele>
        <time>2015-09-10T05:18:11Z</time>
      </trkpt>
      <trkpt lat="42.21119" lon="8.98891">
        <ele>1797.32</ele>
        <time>2015-09-10T05:18:31Z</time>
      </trkpt>
      <trkpt lat="42.21109" lon="8.98899">
        <ele>1799.24</ele>
        <time>2015-09-10T05:18:52Z</time>
      </trkpt>
      <trkpt lat="42.21107" lon="8.98914">
        <ele>1801.65</ele>
        <time>2015-09-10T05:19:13Z</time>
      </trkpt>
      <trkpt lat="42.21096" lon="8.98925">
        <ele>1804.05</ele>
        <time>2015-09-10T05:19:34Z</time>
      </trkpt>
      <trkpt lat="42.21093" lon="8.98932">
        <ele>1806.94</ele>
        <time>2015-09-10T05:19:53Z</time>
      </trkpt>
      <trkpt lat="42.21093" lon="8.98943">
        <ele>1809.82</ele>
        <time>2015-09-10T05:20:16Z</time>
      </trkpt>
      <trkpt lat="42.21097" lon="8.98946">
        <ele>1812.22</ele>
        <time>2015-09-10T05:20:41Z</time>
      </trkpt>
      <trkpt lat="42.21107" lon="8.98945">
        <ele>1814.15</ele>
        <time>2015-09-10T05:20:58Z</time>
      </trkpt>
      <trkpt lat="42.21104" lon="8.98949">
        <ele>1816.55</ele>
        <time>2015-09-10T05:21:18Z</time>
      </trkpt>
      <trkpt lat="42.21102" lon="8.98956">
        <ele>1819.43</ele>
        <time>2015-09-10T05:21:42Z</time>
      </trkpt>
      <trkpt lat="42.21105" lon="8.98962">
        <ele>1821.84</ele>
        <time>2015-09-10T05:22:05Z</time>
      </trkpt>
      <trkpt lat="42.21104" lon="8.98967">
        <ele>1824.72</ele>
        <time>2015-09-10T05:22:26Z</time>
      </trkpt>
      <trkpt lat="42.21103" lon="8.98972">
        <ele>1827.12</ele>
        <time>2015-09-10T05:22:46Z</time>
      </trkpt>
      <trkpt lat="42.21106" lon="8.98977">
        <ele>1829.05</ele>
        <time>2015-09-10T05:23:02Z</time>
      </trkpt>
      <trkpt lat="42.21111" lon="8.98981">
        <ele>1830.97</ele>
        <time>2015-09-10T05:23:22Z</time>
      </trkpt>
      <trkpt lat="42.21113" lon="8.98986">
        <ele>1833.85</ele>
        <time>2015-09-10T05:23:40Z</time>
      </trkpt>
      <trkpt lat="42.21113" lon="8.98989">
        <ele>1834.81</ele>
        <time>2015-09-10T05:24:03Z</time>
      </trkpt>
      <trkpt lat="42.2112" lon="8.98993">
        <ele>1836.74</ele>
        <time>2015-09-10T05:24:28Z</time>
      </trkpt>
      <trkpt lat="42.21125" lon="8.99">
        <ele>1839.62</ele>
        <time>2015-09-10T05:24:49Z</time>
      </trkpt>
      <trkpt lat="42.21122" lon="8.99011">
        <ele>1842.02</ele>
        <time>2015-09-10T05:25:09Z</time>
      </trkpt>
      <trkpt lat="42.21113" lon="8.99014">
        <ele>1844.91</ele>
        <time>2015-09-10T05:25:28Z</time>
      </trkpt>
      <trkpt lat="42.21112" lon="8.99017">
        <ele>1848.27</ele>
        <time>2015-09-10T05:25:48Z</time>
      </trkpt>
      <trkpt lat="42.21112" lon="8.99016">
        <ele>1848.27</ele>
        <time>2015-09-10T05:25:49Z</time>
      </trkpt>
      <trkpt lat="42.21116" lon="8.99024">
        <ele>1850.68</ele>
        <time>2015-09-10T05:26:13Z</time>
      </trkpt>
      <trkpt lat="42.21114" lon="8.99034">
        <ele>1852.12</ele>
        <time>2015-09-10T05:26:31Z</time>
      </trkpt>
      <trkpt lat="42.21113" lon="8.99036">
        <ele>1855</ele>
        <time>2015-09-10T05:26:49Z</time>
      </trkpt>
      <trkpt lat="42.21118" lon="8.99037">
        <ele>1856.92</ele>
        <time>2015-09-10T05:27:11Z</time>
      </trkpt>
      <trkpt lat="42.21117" lon="8.99043">
        <ele>1859.81</ele>
        <time>2015-09-10T05:27:30Z</time>
      </trkpt>
      <trkpt lat="42.21114" lon="8.99045">
        <ele>1858.37</ele>
        <time>2015-09-10T05:27:36Z</time>
      </trkpt>
      <trkpt lat="42.21114" lon="8.99046">
        <ele>1859.81</ele>
        <time>2015-09-10T05:27:39Z</time>
      </trkpt>
      <trkpt lat="42.21111" lon="8.99057">
        <ele>1862.21</ele>
        <time>2015-09-10T05:27:59Z</time>
      </trkpt>
      <trkpt lat="42.21103" lon="8.9907">
        <ele>1860.77</ele>
        <time>2015-09-10T05:28:17Z</time>
      </trkpt>
      <trkpt lat="42.21094" lon="8.99081">
        <ele>1859.81</ele>
        <time>2015-09-10T05:28:36Z</time>
      </trkpt>
      <trkpt lat="42.21092" lon="8.99093">
        <ele>1862.69</ele>
        <time>2015-09-10T05:28:55Z</time>
      </trkpt>
      <trkpt lat="42.21091" lon="8.99102">
        <ele>1864.13</ele>
        <time>2015-09-10T05:29:13Z</time>
      </trkpt>
      <trkpt lat="42.21088" lon="8.99109">
        <ele>1865.58</ele>
        <time>2015-09-10T05:29:27Z</time>
      </trkpt>
      <trkpt lat="42.21083" lon="8.99121">
        <ele>1867.02</ele>
        <time>2015-09-10T05:29:48Z</time>
      </trkpt>
      <trkpt lat="42.21081" lon="8.99134">
        <ele>1868.46</ele>
        <time>2015-09-10T05:30:06Z</time>
      </trkpt>
      <trkpt lat="42.21073" lon="8.99149">
        <ele>1869.9</ele>
        <time>2015-09-10T05:30:25Z</time>
      </trkpt>
      <trkpt lat="42.21067" lon="8.99163">
        <ele>1871.34</ele>
        <time>2015-09-10T05:30:46Z</time>
      </trkpt>
      <trkpt lat="42.21074" lon="8.99178">
        <ele>1872.79</ele>
        <time>2015-09-10T05:31:04Z</time>
      </trkpt>
      <trkpt lat="42.21075" lon="8.99186">
        <ele>1875.67</ele>
        <time>2015-09-10T05:31:26Z</time>
      </trkpt>
      <trkpt lat="42.21076" lon="8.99201">
        <ele>1877.59</ele>
        <time>2015-09-10T05:31:48Z</time>
      </trkpt>
      <trkpt lat="42.21077" lon="8.99214">
        <ele>1880</ele>
        <time>2015-09-10T05:32:10Z</time>
      </trkpt>
      <trkpt lat="42.21076" lon="8.99224">
        <ele>1882.88</ele>
        <time>2015-09-10T05:32:30Z</time>
      </trkpt>
      <trkpt lat="42.21081" lon="8.99234">
        <ele>1885.28</ele>
        <time>2015-09-10T05:32:53Z</time>
      </trkpt>
      <trkpt lat="42.2108" lon="8.99247">
        <ele>1886.72</ele>
        <time>2015-09-10T05:33:10Z</time>
      </trkpt>
      <trkpt lat="42.21075" lon="8.99263">
        <ele>1890.57</ele>
        <time>2015-09-10T05:33:33Z</time>
      </trkpt>
      <trkpt lat="42.21076" lon="8.99269">
        <ele>1891.53</ele>
        <time>2015-09-10T05:33:53Z</time>
      </trkpt>
      <trkpt lat="42.21079" lon="8.99271">
        <ele>1890.57</ele>
        <time>2015-09-10T05:33:58Z</time>
      </trkpt>
      <trkpt lat="42.21082" lon="8.99275">
        <ele>1891.53</ele>
        <time>2015-09-10T05:34:05Z</time>
      </trkpt>
      <trkpt lat="42.21081" lon="8.99279">
        <ele>1894.9</ele>
        <time>2015-09-10T05:34:11Z</time>
      </trkpt>
      <trkpt lat="42.21082" lon="8.99278">
        <ele>1893.45</ele>
        <time>2015-09-10T05:34:12Z</time>
      </trkpt>
      <trkpt lat="42.21087" lon="8.99284">
        <ele>1892.01</ele>
        <time>2015-09-10T05:34:27Z</time>
      </trkpt>
      <trkpt lat="42.21086" lon="8.99287">
        <ele>1893.93</ele>
        <time>2015-09-10T05:34:31Z</time>
      </trkpt>
      <trkpt lat="42.21089" lon="8.99294">
        <ele>1895.86</ele>
        <time>2015-09-10T05:34:49Z</time>
      </trkpt>
      <trkpt lat="42.2109" lon="8.99304">
        <ele>1897.78</ele>
        <time>2015-09-10T05:35:10Z</time>
      </trkpt>
      <trkpt lat="42.21091" lon="8.99325">
        <ele>1899.7</ele>
        <time>2015-09-10T05:35:32Z</time>
      </trkpt>
      <trkpt lat="42.21086" lon="8.99339">
        <ele>1900.18</ele>
        <time>2015-09-10T05:35:51Z</time>
      </trkpt>
      <trkpt lat="42.21086" lon="8.99341">
        <ele>1902.59</ele>
        <time>2015-09-10T05:35:54Z</time>
      </trkpt>
      <trkpt lat="42.21092" lon="8.99341">
        <ele>1904.99</ele>
        <time>2015-09-10T05:36:15Z</time>
      </trkpt>
      <trkpt lat="42.21102" lon="8.99342">
        <ele>1907.87</ele>
        <time>2015-09-10T05:36:33Z</time>
      </trkpt>
      <trkpt lat="42.21102" lon="8.99347">
        <ele>1910.28</ele>
        <time>2015-09-10T05:36:54Z</time>
      </trkpt>
      <trkpt lat="42.21102" lon="8.99353">
        <ele>1912.2</ele>
        <time>2015-09-10T05:37:17Z</time>
      </trkpt>
      <trkpt lat="42.21109" lon="8.9936">
        <ele>1914.12</ele>
        <time>2015-09-10T05:37:37Z</time>
      </trkpt>
      <trkpt lat="42.2111" lon="8.9937">
        <ele>1916.04</ele>
        <time>2015-09-10T05:37:57Z</time>
      </trkpt>
      <trkpt lat="42.21113" lon="8.99378">
        <ele>1917.97</ele>
        <time>2015-09-10T05:38:14Z</time>
      </trkpt>
      <trkpt lat="42.21113" lon="8.99387">
        <ele>1919.89</ele>
        <time>2015-09-10T05:38:32Z</time>
      </trkpt>
      <trkpt lat="42.21111" lon="8.99396">
        <ele>1919.89</ele>
        <time>2015-09-10T05:38:47Z</time>
      </trkpt>
      <trkpt lat="42.21119" lon="8.99403">
        <ele>1922.77</ele>
        <time>2015-09-10T05:39:06Z</time>
      </trkpt>
      <trkpt lat="42.21116" lon="8.99408">
        <ele>1924.7</ele>
        <time>2015-09-10T05:39:25Z</time>
      </trkpt>
      <trkpt lat="42.2112" lon="8.99414">
        <ele>1926.14</ele>
        <time>2015-09-10T05:39:46Z</time>
      </trkpt>
      <trkpt lat="42.21119" lon="8.99425">
        <ele>1928.54</ele>
        <time>2015-09-10T05:40:06Z</time>
      </trkpt>
      <trkpt lat="42.21117" lon="8.99435">
        <ele>1930.95</ele>
        <time>2015-09-10T05:40:18Z</time>
      </trkpt>
      <trkpt lat="42.21116" lon="8.99439">
        <ele>1929.02</ele>
        <time>2015-09-10T05:40:21Z</time>
      </trkpt>
      <trkpt lat="42.21119" lon="8.99453">
        <ele>1930.46</ele>
        <time>2015-09-10T05:40:39Z</time>
      </trkpt>
      <trkpt lat="42.21125" lon="8.99457">
        <ele>1932.87</ele>
        <time>2015-09-10T05:40:57Z</time>
      </trkpt>
      <trkpt lat="42.21134" lon="8.99463">
        <ele>1936.23</ele>
        <time>2015-09-10T05:41:19Z</time>
      </trkpt>
      <trkpt lat="42.21136" lon="8.99467">
        <ele>1935.75</ele>
        <time>2015-09-10T05:41:30Z</time>
      </trkpt>
      <trkpt lat="42.21137" lon="8.99469">
        <ele>1937.19</ele>
        <time>2015-09-10T05:41:37Z</time>
      </trkpt>
      <trkpt lat="42.21138" lon="8.99472">
        <ele>1938.16</ele>
        <time>2015-09-10T05:41:42Z</time>
      </trkpt>
      <trkpt lat="42.21136" lon="8.99485">
        <ele>1939.6</ele>
        <time>2015-09-10T05:42:03Z</time>
      </trkpt>
      <trkpt lat="42.21137" lon="8.9949">
        <ele>1940.56</ele>
        <time>2015-09-10T05:42:10Z</time>
      </trkpt>
      <trkpt lat="42.21141" lon="8.99494">
        <ele>1943.44</ele>
        <time>2015-09-10T05:42:28Z</time>
      </trkpt>
      <trkpt lat="42.21142" lon="8.99508">
        <ele>1944.4</ele>
        <time>2015-09-10T05:42:46Z</time>
      </trkpt>
      <trkpt lat="42.21141" lon="8.99526">
        <ele>1945.85</ele>
        <time>2015-09-10T05:43:04Z</time>
      </trkpt>
      <trkpt lat="42.21147" lon="8.99535">
        <ele>1947.77</ele>
        <time>2015-09-10T05:43:25Z</time>
      </trkpt>
      <trkpt lat="42.21153" lon="8.99547">
        <ele>1949.21</ele>
        <time>2015-09-10T05:43:45Z</time>
      </trkpt>
      <trkpt lat="42.21156" lon="8.99556">
        <ele>1951.61</ele>
        <time>2015-09-10T05:44:02Z</time>
      </trkpt>
      <trkpt lat="42.21156" lon="8.99568">
        <ele>1953.54</ele>
        <time>2015-09-10T05:44:19Z</time>
      </trkpt>
      <trkpt lat="42.21158" lon="8.99569">
        <ele>1951.61</ele>
        <time>2015-09-10T05:44:21Z</time>
      </trkpt>
      <trkpt lat="42.21161" lon="8.99585">
        <ele>1951.13</ele>
        <time>2015-09-10T05:44:36Z</time>
      </trkpt>
      <trkpt lat="42.21162" lon="8.99597">
        <ele>1951.13</ele>
        <time>2015-09-10T05:44:52Z</time>
      </trkpt>
      <trkpt lat="42.21169" lon="8.99609">
        <ele>1951.13</ele>
        <time>2015-09-10T05:45:11Z</time>
      </trkpt>
      <trkpt lat="42.2117" lon="8.9961">
        <ele>1952.57</ele>
        <time>2015-09-10T05:45:13Z</time>
      </trkpt>
      <trkpt lat="42.21172" lon="8.9962">
        <ele>1952.57</ele>
        <time>2015-09-10T05:45:31Z</time>
      </trkpt>
      <trkpt lat="42.21171" lon="8.99623">
        <ele>1951.61</ele>
        <time>2015-09-10T05:45:37Z</time>
      </trkpt>
      <trkpt lat="42.21172" lon="8.99639">
        <ele>1949.69</ele>
        <time>2015-09-10T05:45:54Z</time>
      </trkpt>
      <trkpt lat="42.21171" lon="8.9965">
        <ele>1950.65</ele>
        <time>2015-09-10T05:46:12Z</time>
      </trkpt>
      <trkpt lat="42.21167" lon="8.99656">
        <ele>1947.77</ele>
        <time>2015-09-10T05:46:28Z</time>
      </trkpt>
      <trkpt lat="42.21164" lon="8.99665">
        <ele>1944.4</ele>
        <time>2015-09-10T05:46:43Z</time>
      </trkpt>
      <trkpt lat="42.21159" lon="8.99679">
        <ele>1944.4</ele>
        <time>2015-09-10T05:47:01Z</time>
      </trkpt>
      <trkpt lat="42.21154" lon="8.99694">
        <ele>1944.4</ele>
        <time>2015-09-10T05:47:16Z</time>
      </trkpt>
      <trkpt lat="42.21153" lon="8.99711">
        <ele>1944.88</ele>
        <time>2015-09-10T05:47:31Z</time>
      </trkpt>
      <trkpt lat="42.2115" lon="8.99726">
        <ele>1945.85</ele>
        <time>2015-09-10T05:47:41Z</time>
      </trkpt>
      <trkpt lat="42.2115" lon="8.99758">
        <ele>1946.33</ele>
        <time>2015-09-10T05:47:58Z</time>
      </trkpt>
      <trkpt lat="42.21143" lon="8.99778">
        <ele>1946.81</ele>
        <time>2015-09-10T05:48:12Z</time>
      </trkpt>
      <trkpt lat="42.21141" lon="8.99795">
        <ele>1947.29</ele>
        <time>2015-09-10T05:48:30Z</time>
      </trkpt>
      <trkpt lat="42.21148" lon="8.99806">
        <ele>1948.25</ele>
        <time>2015-09-10T05:48:47Z</time>
      </trkpt>
      <trkpt lat="42.21147" lon="8.9982">
        <ele>1949.21</ele>
        <time>2015-09-10T05:49:01Z</time>
      </trkpt>
      <trkpt lat="42.21152" lon="8.99836">
        <ele>1949.69</ele>
        <time>2015-09-10T05:49:16Z</time>
      </trkpt>
      <trkpt lat="42.21152" lon="8.99848">
        <ele>1953.06</ele>
        <time>2015-09-10T05:49:30Z</time>
      </trkpt>
      <trkpt lat="42.21152" lon="8.99863">
        <ele>1953.06</ele>
        <time>2015-09-10T05:49:48Z</time>
      </trkpt>
      <trkpt lat="42.21153" lon="8.99876">
        <ele>1954.02</ele>
        <time>2015-09-10T05:50:07Z</time>
      </trkpt>
      <trkpt lat="42.21159" lon="8.99881">
        <ele>1955.94</ele>
        <time>2015-09-10T05:50:21Z</time>
      </trkpt>
      <trkpt lat="42.21176" lon="8.99886">
        <ele>1955.94</ele>
        <time>2015-09-10T05:50:41Z</time>
      </trkpt>
      <trkpt lat="42.21179" lon="8.99883">
        <ele>1955.94</ele>
        <time>2015-09-10T05:51:00Z</time>
      </trkpt>
      <trkpt lat="42.21185" lon="8.99883">
        <ele>1955.94</ele>
        <time>2015-09-10T05:51:23Z</time>
      </trkpt>
      <trkpt lat="42.21186" lon="8.99887">
        <ele>1958.34</ele>
        <time>2015-09-10T05:51:42Z</time>
      </trkpt>
      <trkpt lat="42.21187" lon="8.99896">
        <ele>1960.27</ele>
        <time>2015-09-10T05:51:57Z</time>
      </trkpt>
      <trkpt lat="42.21186" lon="8.999">
        <ele>1962.19</ele>
        <time>2015-09-10T05:52:18Z</time>
      </trkpt>
      <trkpt lat="42.21187" lon="8.99901">
        <ele>1962.67</ele>
        <time>2015-09-10T05:52:39Z</time>
      </trkpt>
      <trkpt lat="42.21186" lon="8.99914">
        <ele>1964.59</ele>
        <time>2015-09-10T05:52:56Z</time>
      </trkpt>
      <trkpt lat="42.21193" lon="8.99913">
        <ele>1966.51</ele>
        <time>2015-09-10T05:53:17Z</time>
      </trkpt>
      <trkpt lat="42.21202" lon="8.99916">
        <ele>1969.4</ele>
        <time>2015-09-10T05:53:37Z</time>
      </trkpt>
      <trkpt lat="42.21202" lon="8.99921">
        <ele>1971.32</ele>
        <time>2015-09-10T05:53:57Z</time>
      </trkpt>
      <trkpt lat="42.21209" lon="8.99923">
        <ele>1973.24</ele>
        <time>2015-09-10T05:54:16Z</time>
      </trkpt>
      <trkpt lat="42.21207" lon="8.99926">
        <ele>1973.24</ele>
        <time>2015-09-10T05:54:44Z</time>
      </trkpt>
      <trkpt lat="42.21213" lon="8.99924">
        <ele>1976.61</ele>
        <time>2015-09-10T05:55:03Z</time>
      </trkpt>
      <trkpt lat="42.21213" lon="8.99937">
        <ele>1979.49</ele>
        <time>2015-09-10T05:55:24Z</time>
      </trkpt>
      <trkpt lat="42.21215" lon="8.99945">
        <ele>1981.41</ele>
        <time>2015-09-10T05:55:45Z</time>
      </trkpt>
      <trkpt lat="42.21219" lon="8.99948">
        <ele>1984.3</ele>
        <time>2015-09-10T05:56:03Z</time>
      </trkpt>
      <trkpt lat="42.2122" lon="8.99953">
        <ele>1986.7</ele>
        <time>2015-09-10T05:56:23Z</time>
      </trkpt>
      <trkpt lat="42.2122" lon="8.9996">
        <ele>1988.62</ele>
        <time>2015-09-10T05:56:44Z</time>
      </trkpt>
      <trkpt lat="42.21221" lon="8.99964">
        <ele>1990.55</ele>
        <time>2015-09-10T05:57:04Z</time>
      </trkpt>
      <trkpt lat="42.21224" lon="8.99971">
        <ele>1993.43</ele>
        <time>2015-09-10T05:57:24Z</time>
      </trkpt>
      <trkpt lat="42.21222" lon="8.99981">
        <ele>1994.39</ele>
        <time>2015-09-10T05:57:43Z</time>
      </trkpt>
      <trkpt lat="42.21223" lon="8.99989">
        <ele>1996.8</ele>
        <time>2015-09-10T05:58:04Z</time>
      </trkpt>
      <trkpt lat="42.21225" lon="8.99995">
        <ele>1999.2</ele>
        <time>2015-09-10T05:58:23Z</time>
      </trkpt>
      <trkpt lat="42.21228" lon="9">
        <ele>2002.08</ele>
        <time>2015-09-10T05:58:46Z</time>
      </trkpt>
      <trkpt lat="42.21235" lon="9.00002">
        <ele>2003.52</ele>
        <time>2015-09-10T05:59:11Z</time>
      </trkpt>
      <trkpt lat="42.2124" lon="9.00008">
        <ele>2005.93</ele>
        <time>2015-09-10T05:59:32Z</time>
      </trkpt>
      <trkpt lat="42.2124" lon="9.00019">
        <ele>2007.37</ele>
        <time>2015-09-10T05:59:51Z</time>
      </trkpt>
      <trkpt lat="42.21242" lon="9.0003">
        <ele>2009.77</ele>
        <time>2015-09-10T06:00:12Z</time>
      </trkpt>
      <trkpt lat="42.21244" lon="9.00037">
        <ele>2012.66</ele>
        <time>2015-09-10T06:00:33Z</time>
      </trkpt>
      <trkpt lat="42.21244" lon="9.00047">
        <ele>2015.54</ele>
        <time>2015-09-10T06:00:55Z</time>
      </trkpt>
      <trkpt lat="42.21246" lon="9.00052">
        <ele>2017.46</ele>
        <time>2015-09-10T06:01:14Z</time>
      </trkpt>
      <trkpt lat="42.21248" lon="9.00056">
        <ele>2019.87</ele>
        <time>2015-09-10T06:01:34Z</time>
      </trkpt>
      <trkpt lat="42.21248" lon="9.00061">
        <ele>2021.31</ele>
        <time>2015-09-10T06:01:50Z</time>
      </trkpt>
      <trkpt lat="42.21247" lon="9.00068">
        <ele>2024.19</ele>
        <time>2015-09-10T06:02:08Z</time>
      </trkpt>
      <trkpt lat="42.21245" lon="9.00082">
        <ele>2025.64</ele>
        <time>2015-09-10T06:02:29Z</time>
      </trkpt>
      <trkpt lat="42.21242" lon="9.00096">
        <ele>2026.12</ele>
        <time>2015-09-10T06:02:45Z</time>
      </trkpt>
      <trkpt lat="42.21241" lon="9.00109">
        <ele>2028.52</ele>
        <time>2015-09-10T06:03:06Z</time>
      </trkpt>
      <trkpt lat="42.21236" lon="9.00109">
        <ele>2030.92</ele>
        <time>2015-09-10T06:03:26Z</time>
      </trkpt>
      <trkpt lat="42.21236" lon="9.00123">
        <ele>2033.33</ele>
        <time>2015-09-10T06:03:44Z</time>
      </trkpt>
      <trkpt lat="42.21239" lon="9.00136">
        <ele>2036.69</ele>
        <time>2015-09-10T06:04:08Z</time>
      </trkpt>
      <trkpt lat="42.21238" lon="9.00144">
        <ele>2038.61</ele>
        <time>2015-09-10T06:04:27Z</time>
      </trkpt>
      <trkpt lat="42.21241" lon="9.00159">
        <ele>2041.5</ele>
        <time>2015-09-10T06:04:48Z</time>
      </trkpt>
      <trkpt lat="42.21241" lon="9.00167">
        <ele>2042.94</ele>
        <time>2015-09-10T06:05:06Z</time>
      </trkpt>
      <trkpt lat="42.21242" lon="9.00179">
        <ele>2044.86</ele>
        <time>2015-09-10T06:05:25Z</time>
      </trkpt>
      <trkpt lat="42.21242" lon="9.00188">
        <ele>2047.26</ele>
        <time>2015-09-10T06:05:44Z</time>
      </trkpt>
      <trkpt lat="42.21239" lon="9.00198">
        <ele>2048.23</ele>
        <time>2015-09-10T06:06:02Z</time>
      </trkpt>
      <trkpt lat="42.21234" lon="9.00208">
        <ele>2050.15</ele>
        <time>2015-09-10T06:06:19Z</time>
      </trkpt>
      <trkpt lat="42.21232" lon="9.00217">
        <ele>2052.55</ele>
        <time>2015-09-10T06:06:38Z</time>
      </trkpt>
      <trkpt lat="42.21231" lon="9.0022">
        <ele>2053.99</ele>
        <time>2015-09-10T06:06:43Z</time>
      </trkpt>
      <trkpt lat="42.21231" lon="9.00232">
        <ele>2054.47</ele>
        <time>2015-09-10T06:07:02Z</time>
      </trkpt>
      <trkpt lat="42.21231" lon="9.00243">
        <ele>2056.88</ele>
        <time>2015-09-10T06:07:21Z</time>
      </trkpt>
      <trkpt lat="42.21234" lon="9.00252">
        <ele>2059.28</ele>
        <time>2015-09-10T06:07:40Z</time>
      </trkpt>
      <trkpt lat="42.21234" lon="9.00259">
        <ele>2061.68</ele>
        <time>2015-09-10T06:07:59Z</time>
      </trkpt>
      <trkpt lat="42.21232" lon="9.00269">
        <ele>2064.09</ele>
        <time>2015-09-10T06:08:19Z</time>
      </trkpt>
      <trkpt lat="42.21229" lon="9.00273">
        <ele>2067.45</ele>
        <time>2015-09-10T06:08:39Z</time>
      </trkpt>
      <trkpt lat="42.21225" lon="9.00277">
        <ele>2066.97</ele>
        <time>2015-09-10T06:08:57Z</time>
      </trkpt>
      <trkpt lat="42.21225" lon="9.00278">
        <ele>2068.41</ele>
        <time>2015-09-10T06:08:59Z</time>
      </trkpt>
      <trkpt lat="42.21222" lon="9.00285">
        <ele>2070.34</ele>
        <time>2015-09-10T06:09:18Z</time>
      </trkpt>
      <trkpt lat="42.2122" lon="9.0029">
        <ele>2073.7</ele>
        <time>2015-09-10T06:09:32Z</time>
      </trkpt>
      <trkpt lat="42.21217" lon="9.00294">
        <ele>2075.62</ele>
        <time>2015-09-10T06:09:54Z</time>
      </trkpt>
      <trkpt lat="42.2121" lon="9.00299">
        <ele>2077.07</ele>
        <time>2015-09-10T06:10:09Z</time>
      </trkpt>
      <trkpt lat="42.21206" lon="9.00305">
        <ele>2080.43</ele>
        <time>2015-09-10T06:10:28Z</time>
      </trkpt>
      <trkpt lat="42.21203" lon="9.00311">
        <ele>2082.83</ele>
        <time>2015-09-10T06:10:47Z</time>
      </trkpt>
      <trkpt lat="42.21198" lon="9.00318">
        <ele>2085.72</ele>
        <time>2015-09-10T06:11:10Z</time>
      </trkpt>
      <trkpt lat="42.21195" lon="9.00324">
        <ele>2088.6</ele>
        <time>2015-09-10T06:11:28Z</time>
      </trkpt>
      <trkpt lat="42.21196" lon="9.00333">
        <ele>2090.52</ele>
        <time>2015-09-10T06:11:48Z</time>
      </trkpt>
      <trkpt lat="42.21198" lon="9.0034">
        <ele>2092.45</ele>
        <time>2015-09-10T06:12:07Z</time>
      </trkpt>
      <trkpt lat="42.21201" lon="9.00347">
        <ele>2094.85</ele>
        <time>2015-09-10T06:12:28Z</time>
      </trkpt>
      <trkpt lat="42.21201" lon="9.00353">
        <ele>2097.25</ele>
        <time>2015-09-10T06:12:44Z</time>
      </trkpt>
      <trkpt lat="42.21205" lon="9.00356">
        <ele>2098.7</ele>
        <time>2015-09-10T06:13:02Z</time>
      </trkpt>
      <trkpt lat="42.21204" lon="9.00364">
        <ele>2100.62</ele>
        <time>2015-09-10T06:13:19Z</time>
      </trkpt>
      <trkpt lat="42.21202" lon="9.0037">
        <ele>2103.5</ele>
        <time>2015-09-10T06:13:34Z</time>
      </trkpt>
      <trkpt lat="42.21205" lon="9.00375">
        <ele>2103.5</ele>
        <time>2015-09-10T06:13:51Z</time>
      </trkpt>
      <trkpt lat="42.21209" lon="9.00377">
        <ele>2106.39</ele>
        <time>2015-09-10T06:14:09Z</time>
      </trkpt>
      <trkpt lat="42.21211" lon="9.00381">
        <ele>2109.27</ele>
        <time>2015-09-10T06:14:26Z</time>
      </trkpt>
      <trkpt lat="42.21206" lon="9.00387">
        <ele>2111.19</ele>
        <time>2015-09-10T06:14:45Z</time>
      </trkpt>
      <trkpt lat="42.21205" lon="9.00392">
        <ele>2112.15</ele>
        <time>2015-09-10T06:15:06Z</time>
      </trkpt>
      <trkpt lat="42.21199" lon="9.00396">
        <ele>2114.56</ele>
        <time>2015-09-10T06:15:27Z</time>
      </trkpt>
      <trkpt lat="42.21195" lon="9.004">
        <ele>2117.44</ele>
        <time>2015-09-10T06:15:45Z</time>
      </trkpt>
      <trkpt lat="42.21199" lon="9.00404">
        <ele>2120.32</ele>
        <time>2015-09-10T06:15:58Z</time>
      </trkpt>
      <trkpt lat="42.21201" lon="9.00403">
        <ele>2121.77</ele>
        <time>2015-09-10T06:16:19Z</time>
      </trkpt>
      <trkpt lat="42.21204" lon="9.00409">
        <ele>2122.73</ele>
        <time>2015-09-10T06:16:39Z</time>
      </trkpt>
      <trkpt lat="42.21204" lon="9.00411">
        <ele>2125.13</ele>
        <time>2015-09-10T06:16:45Z</time>
      </trkpt>
      <trkpt lat="42.21204" lon="9.00412">
        <ele>2122.73</ele>
        <time>2015-09-10T06:16:46Z</time>
      </trkpt>
      <trkpt lat="42.21205" lon="9.00416">
        <ele>2126.09</ele>
        <time>2015-09-10T06:16:57Z</time>
      </trkpt>
      <trkpt lat="42.21206" lon="9.00419">
        <ele>2127.05</ele>
        <time>2015-09-10T06:17:06Z</time>
      </trkpt>
      <trkpt lat="42.21209" lon="9.00427">
        <ele>2128.02</ele>
        <time>2015-09-10T06:17:25Z</time>
      </trkpt>
      <trkpt lat="42.21212" lon="9.00429">
        <ele>2131.38</ele>
        <time>2015-09-10T06:17:39Z</time>
      </trkpt>
      <trkpt lat="42.21214" lon="9.00433">
        <ele>2134.74</ele>
        <time>2015-09-10T06:17:47Z</time>
      </trkpt>
      <trkpt lat="42.21214" lon="9.00433">
        <ele>2134.74</ele>
        <time>2015-09-10T06:17:48Z</time>
      </trkpt>
      <trkpt lat="42.21214" lon="9.00434">
        <ele>2136.19</ele>
        <time>2015-09-10T06:17:51Z</time>
      </trkpt>
      <trkpt lat="42.21214" lon="9.00435">
        <ele>2133.3</ele>
        <time>2015-09-10T06:17:52Z</time>
      </trkpt>
      <trkpt lat="42.21217" lon="9.00439">
        <ele>2134.26</ele>
        <time>2015-09-10T06:18:11Z</time>
      </trkpt>
      <trkpt lat="42.21226" lon="9.00441">
        <ele>2135.23</ele>
        <time>2015-09-10T06:18:31Z</time>
      </trkpt>
      <trkpt lat="42.21226" lon="9.00446">
        <ele>2136.19</ele>
        <time>2015-09-10T06:18:50Z</time>
      </trkpt>
      <trkpt lat="42.21225" lon="9.0045">
        <ele>2139.55</ele>
        <time>2015-09-10T06:19:00Z</time>
      </trkpt>
      <trkpt lat="42.21225" lon="9.00451">
        <ele>2140.99</ele>
        <time>2015-09-10T06:19:02Z</time>
      </trkpt>
      <trkpt lat="42.21224" lon="9.00452">
        <ele>2140.03</ele>
        <time>2015-09-10T06:19:05Z</time>
      </trkpt>
      <trkpt lat="42.21224" lon="9.00454">
        <ele>2140.51</ele>
        <time>2015-09-10T06:19:17Z</time>
      </trkpt>
      <trkpt lat="42.21221" lon="9.00455">
        <ele>2142.44</ele>
        <time>2015-09-10T06:19:38Z</time>
      </trkpt>
      <trkpt lat="42.21218" lon="9.00452">
        <ele>2140.51</ele>
        <time>2015-09-10T06:19:44Z</time>
      </trkpt>
      <trkpt lat="42.21215" lon="9.00452">
        <ele>2140.03</ele>
        <time>2015-09-10T06:20:18Z</time>
      </trkpt>
      <trkpt lat="42.21215" lon="9.0045">
        <ele>2141.47</ele>
        <time>2015-09-10T06:20:28Z</time>
      </trkpt>
      <trkpt lat="42.21211" lon="9.00443">
        <ele>2141.95</ele>
        <time>2015-09-10T06:21:01Z</time>
      </trkpt>
      <trkpt lat="42.21214" lon="9.00445">
        <ele>2140.51</ele>
        <time>2015-09-10T06:21:26Z</time>
      </trkpt>
      <trkpt lat="42.21213" lon="9.00446">
        <ele>2141.95</ele>
        <time>2015-09-10T06:21:43Z</time>
      </trkpt>
      <trkpt lat="42.21211" lon="9.00449">
        <ele>2141.95</ele>
        <time>2015-09-10T06:22:05Z</time>
      </trkpt>
      <trkpt lat="42.21212" lon="9.00452">
        <ele>2145.32</ele>
        <time>2015-09-10T06:22:17Z</time>
      </trkpt>
      <trkpt lat="42.21206" lon="9.00456">
        <ele>2148.68</ele>
        <time>2015-09-10T06:22:35Z</time>
      </trkpt>
      <trkpt lat="42.21213" lon="9.00466">
        <ele>2146.76</ele>
        <time>2015-09-10T06:23:06Z</time>
      </trkpt>
      <trkpt lat="42.21213" lon="9.00465">
        <ele>2148.2</ele>
        <time>2015-09-10T06:23:09Z</time>
      </trkpt>
      <trkpt lat="42.21205" lon="9.00462">
        <ele>2148.2</ele>
        <time>2015-09-10T06:23:25Z</time>
      </trkpt>
      <trkpt lat="42.21204" lon="9.00466">
        <ele>2150.61</ele>
        <time>2015-09-10T06:23:42Z</time>
      </trkpt>
      <trkpt lat="42.212" lon="9.00471">
        <ele>2152.53</ele>
        <time>2015-09-10T06:23:59Z</time>
      </trkpt>
      <trkpt lat="42.212" lon="9.0048">
        <ele>2154.93</ele>
        <time>2015-09-10T06:24:14Z</time>
      </trkpt>
      <trkpt lat="42.21198" lon="9.00487">
        <ele>2157.82</ele>
        <time>2015-09-10T06:24:32Z</time>
      </trkpt>
      <trkpt lat="42.21198" lon="9.00492">
        <ele>2158.3</ele>
        <time>2015-09-10T06:24:48Z</time>
      </trkpt>
      <trkpt lat="42.21191" lon="9.00499">
        <ele>2161.18</ele>
        <time>2015-09-10T06:25:09Z</time>
      </trkpt>
      <trkpt lat="42.21195" lon="9.00505">
        <ele>2164.06</ele>
        <time>2015-09-10T06:25:29Z</time>
      </trkpt>
      <trkpt lat="42.21196" lon="9.00515">
        <ele>2166.95</ele>
        <time>2015-09-10T06:25:49Z</time>
      </trkpt>
      <trkpt lat="42.21188" lon="9.00517">
        <ele>2168.39</ele>
        <time>2015-09-10T06:26:09Z</time>
      </trkpt>
      <trkpt lat="42.21189" lon="9.00521">
        <ele>2171.76</ele>
        <time>2015-09-10T06:26:22Z</time>
      </trkpt>
      <trkpt lat="42.21184" lon="9.00525">
        <ele>2173.2</ele>
        <time>2015-09-10T06:26:42Z</time>
      </trkpt>
      <trkpt lat="42.21178" lon="9.00533">
        <ele>2176.08</ele>
        <time>2015-09-10T06:27:06Z</time>
      </trkpt>
      <trkpt lat="42.21181" lon="9.00529">
        <ele>2178</ele>
        <time>2015-09-10T06:27:26Z</time>
      </trkpt>
      <trkpt lat="42.21179" lon="9.0053">
        <ele>2180.89</ele>
        <time>2015-09-10T06:27:29Z</time>
      </trkpt>
      <trkpt lat="42.21179" lon="9.00534">
        <ele>2182.33</ele>
        <time>2015-09-10T06:27:32Z</time>
      </trkpt>
      <trkpt lat="42.21173" lon="9.00534">
        <ele>2181.85</ele>
        <time>2015-09-10T06:27:48Z</time>
      </trkpt>
      <trkpt lat="42.21178" lon="9.00526">
        <ele>2182.81</ele>
        <time>2015-09-10T06:28:01Z</time>
      </trkpt>
      <trkpt lat="42.21183" lon="9.00531">
        <ele>2185.69</ele>
        <time>2015-09-10T06:28:18Z</time>
      </trkpt>
      <trkpt lat="42.21178" lon="9.00539">
        <ele>2189.06</ele>
        <time>2015-09-10T06:28:39Z</time>
      </trkpt>
      <trkpt lat="42.21176" lon="9.00553">
        <ele>2190.5</ele>
        <time>2015-09-10T06:29:03Z</time>
      </trkpt>
      <trkpt lat="42.21171" lon="9.00563">
        <ele>2193.39</ele>
        <time>2015-09-10T06:29:19Z</time>
      </trkpt>
      <trkpt lat="42.2117" lon="9.00572">
        <ele>2195.79</ele>
        <time>2015-09-10T06:29:39Z</time>
      </trkpt>
      <trkpt lat="42.21174" lon="9.00579">
        <ele>2196.75</ele>
        <time>2015-09-10T06:29:58Z</time>
      </trkpt>
      <trkpt lat="42.21171" lon="9.00585">
        <ele>2199.15</ele>
        <time>2015-09-10T06:30:22Z</time>
      </trkpt>
      <trkpt lat="42.21182" lon="9.00586">
        <ele>2201.08</ele>
        <time>2015-09-10T06:30:42Z</time>
      </trkpt>
      <trkpt lat="42.2118" lon="9.00593">
        <ele>2203.48</ele>
        <time>2015-09-10T06:31:05Z</time>
      </trkpt>
      <trkpt lat="42.21189" lon="9.00594">
        <ele>2206.84</ele>
        <time>2015-09-10T06:31:24Z</time>
      </trkpt>
      <trkpt lat="42.21186" lon="9.00589">
        <ele>2209.73</ele>
        <time>2015-09-10T06:31:37Z</time>
      </trkpt>
      <trkpt lat="42.21175" lon="9.00578">
        <ele>2213.09</ele>
        <time>2015-09-10T06:31:45Z</time>
      </trkpt>
      <trkpt lat="42.21172" lon="9.00571">
        <ele>2213.09</ele>
        <time>2015-09-10T06:31:51Z</time>
      </trkpt>
      <trkpt lat="42.2116" lon="9.00575">
        <ele>2209.73</ele>
        <time>2015-09-10T06:31:55Z</time>
      </trkpt>
      <trkpt lat="42.21161" lon="9.00578">
        <ele>2209.73</ele>
        <time>2015-09-10T06:31:56Z</time>
      </trkpt>
      <trkpt lat="42.21159" lon="9.00591">
        <ele>2211.65</ele>
        <time>2015-09-10T06:32:08Z</time>
      </trkpt>
      <trkpt lat="42.21157" lon="9.00591">
        <ele>2210.21</ele>
        <time>2015-09-10T06:32:14Z</time>
      </trkpt>
      <trkpt lat="42.21155" lon="9.00593">
        <ele>2209.73</ele>
        <time>2015-09-10T06:32:25Z</time>
      </trkpt>
      <trkpt lat="42.21157" lon="9.00596">
        <ele>2206.84</ele>
        <time>2015-09-10T06:32:51Z</time>
      </trkpt>
      <trkpt lat="42.2116" lon="9.00595">
        <ele>2208.29</ele>
        <time>2015-09-10T06:33:12Z</time>
      </trkpt>
      <trkpt lat="42.2116" lon="9.00596">
        <ele>2208.29</ele>
        <time>2015-09-10T06:33:13Z</time>
      </trkpt>
      <trkpt lat="42.21156" lon="9.00594">
        <ele>2207.32</ele>
        <time>2015-09-10T06:33:32Z</time>
      </trkpt>
      <trkpt lat="42.21156" lon="9.00595">
        <ele>2208.77</ele>
        <time>2015-09-10T06:33:40Z</time>
      </trkpt>
      <trkpt lat="42.21158" lon="9.00599">
        <ele>2208.29</ele>
        <time>2015-09-10T06:34:00Z</time>
      </trkpt>
      <trkpt lat="42.21158" lon="9.00599">
        <ele>2208.29</ele>
        <time>2015-09-10T06:34:01Z</time>
      </trkpt>
      <trkpt lat="42.21154" lon="9.00595">
        <ele>2208.29</ele>
        <time>2015-09-10T06:34:25Z</time>
      </trkpt>
      <trkpt lat="42.21154" lon="9.00601">
        <ele>2207.32</ele>
        <time>2015-09-10T06:34:52Z</time>
      </trkpt>
      <trkpt lat="42.2115" lon="9.00605">
        <ele>2203.96</ele>
        <time>2015-09-10T06:35:09Z</time>
      </trkpt>
      <trkpt lat="42.21145" lon="9.00611">
        <ele>2200.59</ele>
        <time>2015-09-10T06:35:26Z</time>
      </trkpt>
      <trkpt lat="42.21139" lon="9.00621">
        <ele>2198.67</ele>
        <time>2015-09-10T06:35:44Z</time>
      </trkpt>
      <trkpt lat="42.21133" lon="9.00632">
        <ele>2195.79</ele>
        <time>2015-09-10T06:36:01Z</time>
      </trkpt>
      <trkpt lat="42.21131" lon="9.00633">
        <ele>2197.23</ele>
        <time>2015-09-10T06:36:07Z</time>
      </trkpt>
      <trkpt lat="42.21125" lon="9.00635">
        <ele>2197.71</ele>
        <time>2015-09-10T06:36:21Z</time>
      </trkpt>
      <trkpt lat="42.21123" lon="9.00636">
        <ele>2196.75</ele>
        <time>2015-09-10T06:36:30Z</time>
      </trkpt>
      <trkpt lat="42.21116" lon="9.00644">
        <ele>2195.79</ele>
        <time>2015-09-10T06:36:46Z</time>
      </trkpt>
      <trkpt lat="42.21109" lon="9.0065">
        <ele>2195.79</ele>
        <time>2015-09-10T06:37:02Z</time>
      </trkpt>
      <trkpt lat="42.21104" lon="9.00651">
        <ele>2193.87</ele>
        <time>2015-09-10T06:37:21Z</time>
      </trkpt>
      <trkpt lat="42.21102" lon="9.00657">
        <ele>2192.42</ele>
        <time>2015-09-10T06:37:39Z</time>
      </trkpt>
      <trkpt lat="42.21096" lon="9.00661">
        <ele>2191.94</ele>
        <time>2015-09-10T06:37:52Z</time>
      </trkpt>
      <trkpt lat="42.21095" lon="9.00666">
        <ele>2190.5</ele>
        <time>2015-09-10T06:38:03Z</time>
      </trkpt>
      <trkpt lat="42.21093" lon="9.0067">
        <ele>2188.58</ele>
        <time>2015-09-10T06:38:17Z</time>
      </trkpt>
      <trkpt lat="42.21087" lon="9.00676">
        <ele>2187.14</ele>
        <time>2015-09-10T06:38:35Z</time>
      </trkpt>
      <trkpt lat="42.2108" lon="9.00679">
        <ele>2189.06</ele>
        <time>2015-09-10T06:38:53Z</time>
      </trkpt>
      <trkpt lat="42.21074" lon="9.00677">
        <ele>2187.62</ele>
        <time>2015-09-10T06:39:05Z</time>
      </trkpt>
      <trkpt lat="42.21066" lon="9.00685">
        <ele>2186.18</ele>
        <time>2015-09-10T06:39:21Z</time>
      </trkpt>
      <trkpt lat="42.21056" lon="9.00689">
        <ele>2186.18</ele>
        <time>2015-09-10T06:39:38Z</time>
      </trkpt>
      <trkpt lat="42.21046" lon="9.00688">
        <ele>2185.21</ele>
        <time>2015-09-10T06:39:55Z</time>
      </trkpt>
      <trkpt lat="42.21044" lon="9.00689">
        <ele>2185.21</ele>
        <time>2015-09-10T06:39:57Z</time>
      </trkpt>
      <trkpt lat="42.21038" lon="9.00694">
        <ele>2185.21</ele>
        <time>2015-09-10T06:40:12Z</time>
      </trkpt>
      <trkpt lat="42.21026" lon="9.00696">
        <ele>2184.73</ele>
        <time>2015-09-10T06:40:29Z</time>
      </trkpt>
      <trkpt lat="42.21015" lon="9.007">
        <ele>2183.29</ele>
        <time>2015-09-10T06:40:45Z</time>
      </trkpt>
      <trkpt lat="42.21009" lon="9.00703">
        <ele>2181.37</ele>
        <time>2015-09-10T06:40:58Z</time>
      </trkpt>
      <trkpt lat="42.21001" lon="9.00704">
        <ele>2180.89</ele>
        <time>2015-09-10T06:41:15Z</time>
      </trkpt>
      <trkpt lat="42.20999" lon="9.00705">
        <ele>2179.45</ele>
        <time>2015-09-10T06:41:26Z</time>
      </trkpt>
      <trkpt lat="42.20994" lon="9.00712">
        <ele>2177.04</ele>
        <time>2015-09-10T06:41:40Z</time>
      </trkpt>
      <trkpt lat="42.20984" lon="9.00717">
        <ele>2176.56</ele>
        <time>2015-09-10T06:41:55Z</time>
      </trkpt>
      <trkpt lat="42.20979" lon="9.00726">
        <ele>2175.6</ele>
        <time>2015-09-10T06:42:10Z</time>
      </trkpt>
      <trkpt lat="42.20979" lon="9.0073">
        <ele>2173.2</ele>
        <time>2015-09-10T06:42:14Z</time>
      </trkpt>
      <trkpt lat="42.20975" lon="9.00739">
        <ele>2171.27</ele>
        <time>2015-09-10T06:42:28Z</time>
      </trkpt>
      <trkpt lat="42.20971" lon="9.00747">
        <ele>2169.35</ele>
        <time>2015-09-10T06:42:47Z</time>
      </trkpt>
      <trkpt lat="42.20966" lon="9.00752">
        <ele>2166.47</ele>
        <time>2015-09-10T06:43:06Z</time>
      </trkpt>
      <trkpt lat="42.20956" lon="9.00752">
        <ele>2165.03</ele>
        <time>2015-09-10T06:43:24Z</time>
      </trkpt>
      <trkpt lat="42.20946" lon="9.00764">
        <ele>2165.03</ele>
        <time>2015-09-10T06:43:40Z</time>
      </trkpt>
      <trkpt lat="42.20944" lon="9.00769">
        <ele>2164.55</ele>
        <time>2015-09-10T06:43:47Z</time>
      </trkpt>
      <trkpt lat="42.20936" lon="9.00781">
        <ele>2165.03</ele>
        <time>2015-09-10T06:44:02Z</time>
      </trkpt>
      <trkpt lat="42.20931" lon="9.0079">
        <ele>2163.58</ele>
        <time>2015-09-10T06:44:19Z</time>
      </trkpt>
      <trkpt lat="42.20928" lon="9.00796">
        <ele>2161.66</ele>
        <time>2015-09-10T06:44:39Z</time>
      </trkpt>
      <trkpt lat="42.20926" lon="9.00798">
        <ele>2158.78</ele>
        <time>2015-09-10T06:44:55Z</time>
      </trkpt>
      <trkpt lat="42.20925" lon="9.00809">
        <ele>2156.37</ele>
        <time>2015-09-10T06:45:13Z</time>
      </trkpt>
      <trkpt lat="42.20925" lon="9.00825">
        <ele>2153.49</ele>
        <time>2015-09-10T06:45:31Z</time>
      </trkpt>
      <trkpt lat="42.20921" lon="9.00829">
        <ele>2152.05</ele>
        <time>2015-09-10T06:45:48Z</time>
      </trkpt>
      <trkpt lat="42.20918" lon="9.00839">
        <ele>2151.09</ele>
        <time>2015-09-10T06:46:03Z</time>
      </trkpt>
      <trkpt lat="42.20913" lon="9.00844">
        <ele>2149.65</ele>
        <time>2015-09-10T06:46:20Z</time>
      </trkpt>
      <trkpt lat="42.20908" lon="9.00849">
        <ele>2147.72</ele>
        <time>2015-09-10T06:46:34Z</time>
      </trkpt>
      <trkpt lat="42.20901" lon="9.0085">
        <ele>2145.8</ele>
        <time>2015-09-10T06:46:53Z</time>
      </trkpt>
      <trkpt lat="42.20901" lon="9.00858">
        <ele>2143.88</ele>
        <time>2015-09-10T06:47:12Z</time>
      </trkpt>
      <trkpt lat="42.20899" lon="9.00861">
        <ele>2142.92</ele>
        <time>2015-09-10T06:47:32Z</time>
      </trkpt>
      <trkpt lat="42.20901" lon="9.00858">
        <ele>2140.99</ele>
        <time>2015-09-10T06:47:57Z</time>
      </trkpt>
      <trkpt lat="42.20897" lon="9.00863">
        <ele>2140.03</ele>
        <time>2015-09-10T06:48:27Z</time>
      </trkpt>
      <trkpt lat="42.20897" lon="9.00866">
        <ele>2140.03</ele>
        <time>2015-09-10T06:48:44Z</time>
      </trkpt>
      <trkpt lat="42.20898" lon="9.00876">
        <ele>2137.15</ele>
        <time>2015-09-10T06:49:03Z</time>
      </trkpt>
      <trkpt lat="42.20896" lon="9.00878">
        <ele>2134.26</ele>
        <time>2015-09-10T06:49:21Z</time>
      </trkpt>
      <trkpt lat="42.20894" lon="9.00882">
        <ele>2131.86</ele>
        <time>2015-09-10T06:49:35Z</time>
      </trkpt>
      <trkpt lat="42.20889" lon="9.00886">
        <ele>2130.9</ele>
        <time>2015-09-10T06:49:50Z</time>
      </trkpt>
      <trkpt lat="42.20887" lon="9.00893">
        <ele>2130.42</ele>
        <time>2015-09-10T06:50:07Z</time>
      </trkpt>
      <trkpt lat="42.20884" lon="9.00895">
        <ele>2131.38</ele>
        <time>2015-09-10T06:50:14Z</time>
      </trkpt>
      <trkpt lat="42.20882" lon="9.00901">
        <ele>2130.42</ele>
        <time>2015-09-10T06:50:30Z</time>
      </trkpt>
      <trkpt lat="42.20881" lon="9.00902">
        <ele>2130.42</ele>
        <time>2015-09-10T06:50:31Z</time>
      </trkpt>
      <trkpt lat="42.2088" lon="9.00914">
        <ele>2129.46</ele>
        <time>2015-09-10T06:50:46Z</time>
      </trkpt>
      <trkpt lat="42.2088" lon="9.0092">
        <ele>2129.46</ele>
        <time>2015-09-10T06:50:53Z</time>
      </trkpt>
      <trkpt lat="42.20875" lon="9.00931">
        <ele>2130.42</ele>
        <time>2015-09-10T06:51:09Z</time>
      </trkpt>
      <trkpt lat="42.20873" lon="9.00939">
        <ele>2130.42</ele>
        <time>2015-09-10T06:51:21Z</time>
      </trkpt>
      <trkpt lat="42.20867" lon="9.00944">
        <ele>2127.53</ele>
        <time>2015-09-10T06:51:39Z</time>
      </trkpt>
      <trkpt lat="42.20864" lon="9.00952">
        <ele>2126.09</ele>
        <time>2015-09-10T06:51:54Z</time>
      </trkpt>
      <trkpt lat="42.20859" lon="9.00954">
        <ele>2123.69</ele>
        <time>2015-09-10T06:52:10Z</time>
      </trkpt>
      <trkpt lat="42.20857" lon="9.00957">
        <ele>2121.77</ele>
        <time>2015-09-10T06:52:29Z</time>
      </trkpt>
      <trkpt lat="42.20856" lon="9.00961">
        <ele>2119.36</ele>
        <time>2015-09-10T06:52:45Z</time>
      </trkpt>
      <trkpt lat="42.20855" lon="9.00968">
        <ele>2116</ele>
        <time>2015-09-10T06:52:58Z</time>
      </trkpt>
      <trkpt lat="42.20855" lon="9.00968">
        <ele>2116</ele>
        <time>2015-09-10T06:52:59Z</time>
      </trkpt>
      <trkpt lat="42.20856" lon="9.00969">
        <ele>2117.44</ele>
        <time>2015-09-10T06:53:03Z</time>
      </trkpt>
      <trkpt lat="42.20856" lon="9.0097">
        <ele>2115.52</ele>
        <time>2015-09-10T06:53:07Z</time>
      </trkpt>
      <trkpt lat="42.20855" lon="9.00976">
        <ele>2113.6</ele>
        <time>2015-09-10T06:53:19Z</time>
      </trkpt>
      <trkpt lat="42.20855" lon="9.00977">
        <ele>2112.15</ele>
        <time>2015-09-10T06:53:21Z</time>
      </trkpt>
      <trkpt lat="42.20858" lon="9.00979">
        <ele>2109.75</ele>
        <time>2015-09-10T06:53:28Z</time>
      </trkpt>
      <trkpt lat="42.20856" lon="9.00985">
        <ele>2109.27</ele>
        <time>2015-09-10T06:53:45Z</time>
      </trkpt>
      <trkpt lat="42.20854" lon="9.00988">
        <ele>2106.39</ele>
        <time>2015-09-10T06:53:54Z</time>
      </trkpt>
      <trkpt lat="42.20853" lon="9.0099">
        <ele>2105.91</ele>
        <time>2015-09-10T06:53:59Z</time>
      </trkpt>
      <trkpt lat="42.20854" lon="9.00991">
        <ele>2103.98</ele>
        <time>2015-09-10T06:54:03Z</time>
      </trkpt>
      <trkpt lat="42.20853" lon="9.01001">
        <ele>2101.58</ele>
        <time>2015-09-10T06:54:16Z</time>
      </trkpt>
      <trkpt lat="42.20853" lon="9.01001">
        <ele>2103.5</ele>
        <time>2015-09-10T06:54:18Z</time>
      </trkpt>
      <trkpt lat="42.20854" lon="9.01006">
        <ele>2100.62</ele>
        <time>2015-09-10T06:54:32Z</time>
      </trkpt>
      <trkpt lat="42.20854" lon="9.01007">
        <ele>2100.14</ele>
        <time>2015-09-10T06:54:34Z</time>
      </trkpt>
      <trkpt lat="42.20853" lon="9.01012">
        <ele>2098.21</ele>
        <time>2015-09-10T06:54:51Z</time>
      </trkpt>
      <trkpt lat="42.20851" lon="9.01019">
        <ele>2097.25</ele>
        <time>2015-09-10T06:55:07Z</time>
      </trkpt>
      <trkpt lat="42.20851" lon="9.01021">
        <ele>2098.7</ele>
        <time>2015-09-10T06:55:13Z</time>
      </trkpt>
      <trkpt lat="42.2085" lon="9.0103">
        <ele>2099.66</ele>
        <time>2015-09-10T06:55:25Z</time>
      </trkpt>
      <trkpt lat="42.2085" lon="9.0104">
        <ele>2098.7</ele>
        <time>2015-09-10T06:55:35Z</time>
      </trkpt>
      <trkpt lat="42.20849" lon="9.01057">
        <ele>2098.21</ele>
        <time>2015-09-10T06:55:50Z</time>
      </trkpt>
      <trkpt lat="42.20851" lon="9.01068">
        <ele>2097.73</ele>
        <time>2015-09-10T06:56:08Z</time>
      </trkpt>
      <trkpt lat="42.2085" lon="9.01072">
        <ele>2096.77</ele>
        <time>2015-09-10T06:56:36Z</time>
      </trkpt>
      <trkpt lat="42.20852" lon="9.01083">
        <ele>2097.73</ele>
        <time>2015-09-10T06:56:54Z</time>
      </trkpt>
      <trkpt lat="42.20852" lon="9.01084">
        <ele>2097.73</ele>
        <time>2015-09-10T06:56:55Z</time>
      </trkpt>
      <trkpt lat="42.20856" lon="9.01096">
        <ele>2096.77</ele>
        <time>2015-09-10T06:57:11Z</time>
      </trkpt>
      <trkpt lat="42.20856" lon="9.01097">
        <ele>2096.77</ele>
        <time>2015-09-10T06:57:12Z</time>
      </trkpt>
      <trkpt lat="42.20851" lon="9.01101">
        <ele>2095.81</ele>
        <time>2015-09-10T06:57:33Z</time>
      </trkpt>
      <trkpt lat="42.20849" lon="9.01105">
        <ele>2093.89</ele>
        <time>2015-09-10T06:57:54Z</time>
      </trkpt>
      <trkpt lat="42.2085" lon="9.01108">
        <ele>2092.45</ele>
        <time>2015-09-10T06:58:12Z</time>
      </trkpt>
      <trkpt lat="42.20849" lon="9.01113">
        <ele>2090.52</ele>
        <time>2015-09-10T06:58:45Z</time>
      </trkpt>
      <trkpt lat="42.20846" lon="9.01111">
        <ele>2090.04</ele>
        <time>2015-09-10T06:59:12Z</time>
      </trkpt>
      <trkpt lat="42.20846" lon="9.01117">
        <ele>2089.08</ele>
        <time>2015-09-10T06:59:40Z</time>
      </trkpt>
      <trkpt lat="42.20845" lon="9.01126">
        <ele>2085.72</ele>
        <time>2015-09-10T07:00:08Z</time>
      </trkpt>
      <trkpt lat="42.20843" lon="9.01133">
        <ele>2085.24</ele>
        <time>2015-09-10T07:00:31Z</time>
      </trkpt>
      <trkpt lat="42.20845" lon="9.01129">
        <ele>2082.35</ele>
        <time>2015-09-10T07:00:55Z</time>
      </trkpt>
      <trkpt lat="42.20844" lon="9.01128">
        <ele>2080.91</ele>
        <time>2015-09-10T07:01:11Z</time>
      </trkpt>
      <trkpt lat="42.20844" lon="9.01132">
        <ele>2078.99</ele>
        <time>2015-09-10T07:01:29Z</time>
      </trkpt>
      <trkpt lat="42.20842" lon="9.01136">
        <ele>2078.51</ele>
        <time>2015-09-10T07:01:47Z</time>
      </trkpt>
      <trkpt lat="42.20842" lon="9.01141">
        <ele>2077.55</ele>
        <time>2015-09-10T07:02:09Z</time>
      </trkpt>
      <trkpt lat="42.2084" lon="9.01141">
        <ele>2077.07</ele>
        <time>2015-09-10T07:02:27Z</time>
      </trkpt>
      <trkpt lat="42.20839" lon="9.01141">
        <ele>2078.03</ele>
        <time>2015-09-10T07:02:30Z</time>
      </trkpt>
      <trkpt lat="42.20834" lon="9.01142">
        <ele>2079.95</ele>
        <time>2015-09-10T07:02:44Z</time>
      </trkpt>
      <trkpt lat="42.20832" lon="9.01145">
        <ele>2082.35</ele>
        <time>2015-09-10T07:03:02Z</time>
      </trkpt>
      <trkpt lat="42.20832" lon="9.01149">
        <ele>2084.76</ele>
        <time>2015-09-10T07:03:22Z</time>
      </trkpt>
      <trkpt lat="42.2083" lon="9.01156">
        <ele>2087.64</ele>
        <time>2015-09-10T07:03:35Z</time>
      </trkpt>
      <trkpt lat="42.2083" lon="9.01157">
        <ele>2088.12</ele>
        <time>2015-09-10T07:03:36Z</time>
      </trkpt>
      <trkpt lat="42.2083" lon="9.01158">
        <ele>2089.08</ele>
        <time>2015-09-10T07:03:38Z</time>
      </trkpt>
      <trkpt lat="42.20827" lon="9.01162">
        <ele>2088.6</ele>
        <time>2015-09-10T07:03:48Z</time>
      </trkpt>
      <trkpt lat="42.20824" lon="9.0117">
        <ele>2089.08</ele>
        <time>2015-09-10T07:04:03Z</time>
      </trkpt>
      <trkpt lat="42.20824" lon="9.01178">
        <ele>2086.2</ele>
        <time>2015-09-10T07:04:18Z</time>
      </trkpt>
      <trkpt lat="42.20823" lon="9.01179">
        <ele>2087.16</ele>
        <time>2015-09-10T07:04:24Z</time>
      </trkpt>
      <trkpt lat="42.20823" lon="9.01179">
        <ele>2088.6</ele>
        <time>2015-09-10T07:04:39Z</time>
      </trkpt>
      <trkpt lat="42.20823" lon="9.01179">
        <ele>2086.2</ele>
        <time>2015-09-10T07:04:41Z</time>
      </trkpt>
      <trkpt lat="42.20824" lon="9.01186">
        <ele>2087.64</ele>
        <time>2015-09-10T07:04:57Z</time>
      </trkpt>
      <trkpt lat="42.20824" lon="9.01193">
        <ele>2088.12</ele>
        <time>2015-09-10T07:05:20Z</time>
      </trkpt>
      <trkpt lat="42.20822" lon="9.01195">
        <ele>2087.16</ele>
        <time>2015-09-10T07:05:37Z</time>
      </trkpt>
      <trkpt lat="42.2082" lon="9.012">
        <ele>2085.72</ele>
        <time>2015-09-10T07:05:57Z</time>
      </trkpt>
      <trkpt lat="42.2082" lon="9.01205">
        <ele>2083.31</ele>
        <time>2015-09-10T07:06:14Z</time>
      </trkpt>
      <trkpt lat="42.20818" lon="9.01213">
        <ele>2080.91</ele>
        <time>2015-09-10T07:06:30Z</time>
      </trkpt>
      <trkpt lat="42.20817" lon="9.01217">
        <ele>2078.51</ele>
        <time>2015-09-10T07:06:48Z</time>
      </trkpt>
      <trkpt lat="42.20817" lon="9.01228">
        <ele>2075.14</ele>
        <time>2015-09-10T07:07:07Z</time>
      </trkpt>
      <trkpt lat="42.20814" lon="9.01232">
        <ele>2072.26</ele>
        <time>2015-09-10T07:07:26Z</time>
      </trkpt>
      <trkpt lat="42.20812" lon="9.01238">
        <ele>2070.34</ele>
        <time>2015-09-10T07:07:45Z</time>
      </trkpt>
      <trkpt lat="42.2081" lon="9.01241">
        <ele>2068.89</ele>
        <time>2015-09-10T07:08:06Z</time>
      </trkpt>
      <trkpt lat="42.20808" lon="9.01243">
        <ele>2067.93</ele>
        <time>2015-09-10T07:08:31Z</time>
      </trkpt>
      <trkpt lat="42.20805" lon="9.01252">
        <ele>2066.01</ele>
        <time>2015-09-10T07:08:51Z</time>
      </trkpt>
      <trkpt lat="42.20808" lon="9.01257">
        <ele>2065.53</ele>
        <time>2015-09-10T07:09:10Z</time>
      </trkpt>
      <trkpt lat="42.20808" lon="9.01258">
        <ele>2066.97</ele>
        <time>2015-09-10T07:09:16Z</time>
      </trkpt>
      <trkpt lat="42.20812" lon="9.01262">
        <ele>2067.93</ele>
        <time>2015-09-10T07:09:35Z</time>
      </trkpt>
      <trkpt lat="42.20813" lon="9.01265">
        <ele>2069.86</ele>
        <time>2015-09-10T07:09:57Z</time>
      </trkpt>
      <trkpt lat="42.20815" lon="9.01268">
        <ele>2071.3</ele>
        <time>2015-09-10T07:10:15Z</time>
      </trkpt>
      <trkpt lat="42.20815" lon="9.0127">
        <ele>2072.74</ele>
        <time>2015-09-10T07:10:37Z</time>
      </trkpt>
      <trkpt lat="42.20818" lon="9.01273">
        <ele>2074.66</ele>
        <time>2015-09-10T07:11:02Z</time>
      </trkpt>
      <trkpt lat="42.20814" lon="9.01277">
        <ele>2075.62</ele>
        <time>2015-09-10T07:11:26Z</time>
      </trkpt>
      <trkpt lat="42.20815" lon="9.01283">
        <ele>2075.62</ele>
        <time>2015-09-10T07:11:45Z</time>
      </trkpt>
      <trkpt lat="42.20815" lon="9.01285">
        <ele>2076.1</ele>
        <time>2015-09-10T07:12:10Z</time>
      </trkpt>
      <trkpt lat="42.20815" lon="9.01295">
        <ele>2075.14</ele>
        <time>2015-09-10T07:12:33Z</time>
      </trkpt>
      <trkpt lat="42.20813" lon="9.01303">
        <ele>2072.74</ele>
        <time>2015-09-10T07:12:52Z</time>
      </trkpt>
      <trkpt lat="42.20809" lon="9.01308">
        <ele>2072.26</ele>
        <time>2015-09-10T07:13:09Z</time>
      </trkpt>
      <trkpt lat="42.20807" lon="9.01315">
        <ele>2072.26</ele>
        <time>2015-09-10T07:13:29Z</time>
      </trkpt>
      <trkpt lat="42.2081" lon="9.01322">
        <ele>2074.18</ele>
        <time>2015-09-10T07:13:50Z</time>
      </trkpt>
      <trkpt lat="42.20812" lon="9.01322">
        <ele>2076.59</ele>
        <time>2015-09-10T07:14:17Z</time>
      </trkpt>
      <trkpt lat="42.20809" lon="9.01325">
        <ele>2076.59</ele>
        <time>2015-09-10T07:14:43Z</time>
      </trkpt>
      <trkpt lat="42.2081" lon="9.0133">
        <ele>2076.59</ele>
        <time>2015-09-10T07:15:08Z</time>
      </trkpt>
      <trkpt lat="42.20811" lon="9.0133">
        <ele>2075.14</ele>
        <time>2015-09-10T07:15:16Z</time>
      </trkpt>
      <trkpt lat="42.20809" lon="9.01334">
        <ele>2073.7</ele>
        <time>2015-09-10T07:15:42Z</time>
      </trkpt>
      <trkpt lat="42.20807" lon="9.01336">
        <ele>2073.7</ele>
        <time>2015-09-10T07:16:01Z</time>
      </trkpt>
      <trkpt lat="42.20805" lon="9.01351">
        <ele>2074.18</ele>
        <time>2015-09-10T07:16:22Z</time>
      </trkpt>
      <trkpt lat="42.20802" lon="9.0136">
        <ele>2075.14</ele>
        <time>2015-09-10T07:16:36Z</time>
      </trkpt>
      <trkpt lat="42.20797" lon="9.01366">
        <ele>2073.7</ele>
        <time>2015-09-10T07:16:47Z</time>
      </trkpt>
      <trkpt lat="42.20789" lon="9.01376">
        <ele>2073.7</ele>
        <time>2015-09-10T07:17:03Z</time>
      </trkpt>
      <trkpt lat="42.20785" lon="9.01389">
        <ele>2075.62</ele>
        <time>2015-09-10T07:17:21Z</time>
      </trkpt>
      <trkpt lat="42.20782" lon="9.01401">
        <ele>2076.1</ele>
        <time>2015-09-10T07:17:40Z</time>
      </trkpt>
      <trkpt lat="42.20777" lon="9.01409">
        <ele>2077.07</ele>
        <time>2015-09-10T07:17:56Z</time>
      </trkpt>
      <trkpt lat="42.20772" lon="9.01415">
        <ele>2077.55</ele>
        <time>2015-09-10T07:18:14Z</time>
      </trkpt>
      <trkpt lat="42.20772" lon="9.01425">
        <ele>2077.55</ele>
        <time>2015-09-10T07:18:29Z</time>
      </trkpt>
      <trkpt lat="42.2077" lon="9.01426">
        <ele>2076.1</ele>
        <time>2015-09-10T07:18:32Z</time>
      </trkpt>
      <trkpt lat="42.20764" lon="9.01434">
        <ele>2075.62</ele>
        <time>2015-09-10T07:18:50Z</time>
      </trkpt>
      <trkpt lat="42.20757" lon="9.01443">
        <ele>2075.62</ele>
        <time>2015-09-10T07:19:07Z</time>
      </trkpt>
      <trkpt lat="42.20751" lon="9.01451">
        <ele>2075.14</ele>
        <time>2015-09-10T07:19:23Z</time>
      </trkpt>
      <trkpt lat="42.20749" lon="9.01457">
        <ele>2075.14</ele>
        <time>2015-09-10T07:19:31Z</time>
      </trkpt>
      <trkpt lat="42.20747" lon="9.01468">
        <ele>2075.14</ele>
        <time>2015-09-10T07:19:48Z</time>
      </trkpt>
      <trkpt lat="42.20747" lon="9.01472">
        <ele>2076.1</ele>
        <time>2015-09-10T07:19:54Z</time>
      </trkpt>
      <trkpt lat="42.20741" lon="9.01477">
        <ele>2076.59</ele>
        <time>2015-09-10T07:20:12Z</time>
      </trkpt>
      <trkpt lat="42.20735" lon="9.01481">
        <ele>2074.18</ele>
        <time>2015-09-10T07:20:29Z</time>
      </trkpt>
      <trkpt lat="42.20729" lon="9.01491">
        <ele>2071.3</ele>
        <time>2015-09-10T07:20:49Z</time>
      </trkpt>
      <trkpt lat="42.20722" lon="9.01506">
        <ele>2070.34</ele>
        <time>2015-09-10T07:21:06Z</time>
      </trkpt>
      <trkpt lat="42.20718" lon="9.01507">
        <ele>2067.93</ele>
        <time>2015-09-10T07:21:23Z</time>
      </trkpt>
      <trkpt lat="42.20711" lon="9.01517">
        <ele>2066.49</ele>
        <time>2015-09-10T07:21:40Z</time>
      </trkpt>
      <trkpt lat="42.20702" lon="9.01529">
        <ele>2066.01</ele>
        <time>2015-09-10T07:21:56Z</time>
      </trkpt>
      <trkpt lat="42.20694" lon="9.01537">
        <ele>2065.05</ele>
        <time>2015-09-10T07:22:14Z</time>
      </trkpt>
      <trkpt lat="42.20687" lon="9.01548">
        <ele>2064.09</ele>
        <time>2015-09-10T07:22:31Z</time>
      </trkpt>
      <trkpt lat="42.20681" lon="9.01552">
        <ele>2062.17</ele>
        <time>2015-09-10T07:22:49Z</time>
      </trkpt>
      <trkpt lat="42.2068" lon="9.01551">
        <ele>2061.68</ele>
        <time>2015-09-10T07:23:18Z</time>
      </trkpt>
      <trkpt lat="42.20682" lon="9.01551">
        <ele>2061.68</ele>
        <time>2015-09-10T07:23:41Z</time>
      </trkpt>
      <trkpt lat="42.20682" lon="9.01553">
        <ele>2062.17</ele>
        <time>2015-09-10T07:24:17Z</time>
      </trkpt>
      <trkpt lat="42.20678" lon="9.01561">
        <ele>2061.68</ele>
        <time>2015-09-10T07:24:32Z</time>
      </trkpt>
      <trkpt lat="42.20673" lon="9.01566">
        <ele>2058.8</ele>
        <time>2015-09-10T07:24:52Z</time>
      </trkpt>
      <trkpt lat="42.20674" lon="9.01567">
        <ele>2058.32</ele>
        <time>2015-09-10T07:25:22Z</time>
      </trkpt>
      <trkpt lat="42.20671" lon="9.01565">
        <ele>2058.32</ele>
        <time>2015-09-10T07:25:46Z</time>
      </trkpt>
      <trkpt lat="42.20671" lon="9.01568">
        <ele>2058.32</ele>
        <time>2015-09-10T07:26:12Z</time>
      </trkpt>
      <trkpt lat="42.20662" lon="9.01576">
        <ele>2055.44</ele>
        <time>2015-09-10T07:26:31Z</time>
      </trkpt>
      <trkpt lat="42.20656" lon="9.01583">
        <ele>2053.51</ele>
        <time>2015-09-10T07:26:47Z</time>
      </trkpt>
      <trkpt lat="42.20656" lon="9.01585">
        <ele>2052.55</ele>
        <time>2015-09-10T07:26:49Z</time>
      </trkpt>
      <trkpt lat="42.20653" lon="9.01588">
        <ele>2051.59</ele>
        <time>2015-09-10T07:26:56Z</time>
      </trkpt>
      <trkpt lat="42.20652" lon="9.01589">
        <ele>2050.15</ele>
        <time>2015-09-10T07:27:16Z</time>
      </trkpt>
      <trkpt lat="42.20646" lon="9.01587">
        <ele>2047.26</ele>
        <time>2015-09-10T07:27:34Z</time>
      </trkpt>
      <trkpt lat="42.20639" lon="9.01587">
        <ele>2044.86</ele>
        <time>2015-09-10T07:27:52Z</time>
      </trkpt>
      <trkpt lat="42.20631" lon="9.01593">
        <ele>2042.46</ele>
        <time>2015-09-10T07:28:11Z</time>
      </trkpt>
      <trkpt lat="42.20619" lon="9.01597">
        <ele>2040.05</ele>
        <time>2015-09-10T07:28:31Z</time>
      </trkpt>
      <trkpt lat="42.20613" lon="9.01603">
        <ele>2037.17</ele>
        <time>2015-09-10T07:28:47Z</time>
      </trkpt>
      <trkpt lat="42.20613" lon="9.01611">
        <ele>2035.25</ele>
        <time>2015-09-10T07:29:03Z</time>
      </trkpt>
      <trkpt lat="42.20613" lon="9.0162">
        <ele>2034.77</ele>
        <time>2015-09-10T07:29:25Z</time>
      </trkpt>
      <trkpt lat="42.20604" lon="9.01637">
        <ele>2033.33</ele>
        <time>2015-09-10T07:29:43Z</time>
      </trkpt>
      <trkpt lat="42.20598" lon="9.01647">
        <ele>2032.36</ele>
        <time>2015-09-10T07:30:00Z</time>
      </trkpt>
      <trkpt lat="42.20591" lon="9.01662">
        <ele>2030.92</ele>
        <time>2015-09-10T07:30:17Z</time>
      </trkpt>
      <trkpt lat="42.20581" lon="9.01669">
        <ele>2029.48</ele>
        <time>2015-09-10T07:30:35Z</time>
      </trkpt>
      <trkpt lat="42.20571" lon="9.01677">
        <ele>2029</ele>
        <time>2015-09-10T07:30:54Z</time>
      </trkpt>
      <trkpt lat="42.20567" lon="9.01687">
        <ele>2030.44</ele>
        <time>2015-09-10T07:31:12Z</time>
      </trkpt>
      <trkpt lat="42.20566" lon="9.01691">
        <ele>2030.92</ele>
        <time>2015-09-10T07:31:34Z</time>
      </trkpt>
      <trkpt lat="42.20562" lon="9.01695">
        <ele>2030.92</ele>
        <time>2015-09-10T07:31:59Z</time>
      </trkpt>
      <trkpt lat="42.20561" lon="9.01698">
        <ele>2029.96</ele>
        <time>2015-09-10T07:32:04Z</time>
      </trkpt>
      <trkpt lat="42.20553" lon="9.01716">
        <ele>2029.48</ele>
        <time>2015-09-10T07:32:22Z</time>
      </trkpt>
      <trkpt lat="42.20544" lon="9.01727">
        <ele>2030.92</ele>
        <time>2015-09-10T07:32:38Z</time>
      </trkpt>
      <trkpt lat="42.20538" lon="9.01739">
        <ele>2032.36</ele>
        <time>2015-09-10T07:32:55Z</time>
      </trkpt>
      <trkpt lat="42.20529" lon="9.01747">
        <ele>2032.36</ele>
        <time>2015-09-10T07:33:15Z</time>
      </trkpt>
      <trkpt lat="42.20528" lon="9.01748">
        <ele>2030.92</ele>
        <time>2015-09-10T07:33:20Z</time>
      </trkpt>
      <trkpt lat="42.20525" lon="9.01753">
        <ele>2031.88</ele>
        <time>2015-09-10T07:33:41Z</time>
      </trkpt>
      <trkpt lat="42.20521" lon="9.01757">
        <ele>2030.92</ele>
        <time>2015-09-10T07:33:48Z</time>
      </trkpt>
      <trkpt lat="42.20516" lon="9.01765">
        <ele>2030.92</ele>
        <time>2015-09-10T07:34:04Z</time>
      </trkpt>
      <trkpt lat="42.20512" lon="9.01774">
        <ele>2033.33</ele>
        <time>2015-09-10T07:34:23Z</time>
      </trkpt>
      <trkpt lat="42.20505" lon="9.01786">
        <ele>2033.81</ele>
        <time>2015-09-10T07:34:40Z</time>
      </trkpt>
      <trkpt lat="42.20501" lon="9.01789">
        <ele>2034.29</ele>
        <time>2015-09-10T07:34:47Z</time>
      </trkpt>
      <trkpt lat="42.20492" lon="9.01805">
        <ele>2035.25</ele>
        <time>2015-09-10T07:35:05Z</time>
      </trkpt>
      <trkpt lat="42.2049" lon="9.01818">
        <ele>2036.69</ele>
        <time>2015-09-10T07:35:21Z</time>
      </trkpt>
      <trkpt lat="42.20485" lon="9.01821">
        <ele>2037.65</ele>
        <time>2015-09-10T07:35:29Z</time>
      </trkpt>
      <trkpt lat="42.20479" lon="9.01835">
        <ele>2037.65</ele>
        <time>2015-09-10T07:35:45Z</time>
      </trkpt>
      <trkpt lat="42.2047" lon="9.01842">
        <ele>2036.69</ele>
        <time>2015-09-10T07:36:02Z</time>
      </trkpt>
      <trkpt lat="42.20463" lon="9.01858">
        <ele>2035.73</ele>
        <time>2015-09-10T07:36:19Z</time>
      </trkpt>
      <trkpt lat="42.2046" lon="9.0187">
        <ele>2035.73</ele>
        <time>2015-09-10T07:36:34Z</time>
      </trkpt>
      <trkpt lat="42.20456" lon="9.01888">
        <ele>2035.73</ele>
        <time>2015-09-10T07:36:51Z</time>
      </trkpt>
      <trkpt lat="42.2045" lon="9.01903">
        <ele>2036.21</ele>
        <time>2015-09-10T07:37:06Z</time>
      </trkpt>
      <trkpt lat="42.20447" lon="9.01924">
        <ele>2036.21</ele>
        <time>2015-09-10T07:37:23Z</time>
      </trkpt>
      <trkpt lat="42.20447" lon="9.01926">
        <ele>2036.21</ele>
        <time>2015-09-10T07:37:25Z</time>
      </trkpt>
      <trkpt lat="42.20445" lon="9.0193">
        <ele>2036.21</ele>
        <time>2015-09-10T07:37:28Z</time>
      </trkpt>
      <trkpt lat="42.20439" lon="9.01947">
        <ele>2034.29</ele>
        <time>2015-09-10T07:37:49Z</time>
      </trkpt>
      <trkpt lat="42.20431" lon="9.01964">
        <ele>2031.88</ele>
        <time>2015-09-10T07:38:10Z</time>
      </trkpt>
      <trkpt lat="42.20425" lon="9.01976">
        <ele>2029</ele>
        <time>2015-09-10T07:38:29Z</time>
      </trkpt>
      <trkpt lat="42.20424" lon="9.01989">
        <ele>2028.04</ele>
        <time>2015-09-10T07:38:45Z</time>
      </trkpt>
      <trkpt lat="42.20419" lon="9.02002">
        <ele>2027.56</ele>
        <time>2015-09-10T07:39:04Z</time>
      </trkpt>
      <trkpt lat="42.20418" lon="9.02007">
        <ele>2026.6</ele>
        <time>2015-09-10T07:39:19Z</time>
      </trkpt>
      <trkpt lat="42.20413" lon="9.02017">
        <ele>2024.67</ele>
        <time>2015-09-10T07:39:37Z</time>
      </trkpt>
      <trkpt lat="42.20407" lon="9.02028">
        <ele>2022.75</ele>
        <time>2015-09-10T07:39:56Z</time>
      </trkpt>
      <trkpt lat="42.20405" lon="9.0204">
        <ele>2022.27</ele>
        <time>2015-09-10T07:40:14Z</time>
      </trkpt>
      <trkpt lat="42.20401" lon="9.02051">
        <ele>2020.83</ele>
        <time>2015-09-10T07:40:32Z</time>
      </trkpt>
      <trkpt lat="42.204" lon="9.02059">
        <ele>2021.79</ele>
        <time>2015-09-10T07:40:49Z</time>
      </trkpt>
      <trkpt lat="42.20394" lon="9.02077">
        <ele>2021.79</ele>
        <time>2015-09-10T07:41:08Z</time>
      </trkpt>
      <trkpt lat="42.20391" lon="9.02091">
        <ele>2022.75</ele>
        <time>2015-09-10T07:41:27Z</time>
      </trkpt>
      <trkpt lat="42.20384" lon="9.02106">
        <ele>2023.71</ele>
        <time>2015-09-10T07:41:45Z</time>
      </trkpt>
      <trkpt lat="42.20387" lon="9.02112">
        <ele>2022.27</ele>
        <time>2015-09-10T07:41:57Z</time>
      </trkpt>
      <trkpt lat="42.20383" lon="9.02117">
        <ele>2021.31</ele>
        <time>2015-09-10T07:42:13Z</time>
      </trkpt>
      <trkpt lat="42.20378" lon="9.02119">
        <ele>2022.75</ele>
        <time>2015-09-10T07:42:27Z</time>
      </trkpt>
      <trkpt lat="42.20377" lon="9.0212">
        <ele>2022.75</ele>
        <time>2015-09-10T07:42:28Z</time>
      </trkpt>
      <trkpt lat="42.20375" lon="9.02125">
        <ele>2025.64</ele>
        <time>2015-09-10T07:42:50Z</time>
      </trkpt>
      <trkpt lat="42.20364" lon="9.02128">
        <ele>2024.19</ele>
        <time>2015-09-10T07:43:12Z</time>
      </trkpt>
      <trkpt lat="42.20362" lon="9.02135">
        <ele>2025.15</ele>
        <time>2015-09-10T07:43:35Z</time>
      </trkpt>
      <trkpt lat="42.2036" lon="9.02141">
        <ele>2027.08</ele>
        <time>2015-09-10T07:43:53Z</time>
      </trkpt>
      <trkpt lat="42.20357" lon="9.02148">
        <ele>2028.04</ele>
        <time>2015-09-10T07:44:12Z</time>
      </trkpt>
      <trkpt lat="42.20349" lon="9.02149">
        <ele>2027.08</ele>
        <time>2015-09-10T07:44:27Z</time>
      </trkpt>
      <trkpt lat="42.20345" lon="9.02157">
        <ele>2028.52</ele>
        <time>2015-09-10T07:44:39Z</time>
      </trkpt>
      <trkpt lat="42.20332" lon="9.02166">
        <ele>2029.48</ele>
        <time>2015-09-10T07:44:58Z</time>
      </trkpt>
      <trkpt lat="42.20319" lon="9.02172">
        <ele>2032.36</ele>
        <time>2015-09-10T07:45:22Z</time>
      </trkpt>
      <trkpt lat="42.20315" lon="9.02175">
        <ele>2034.29</ele>
        <time>2015-09-10T07:45:43Z</time>
      </trkpt>
      <trkpt lat="42.20309" lon="9.02176">
        <ele>2036.21</ele>
        <time>2015-09-10T07:46:02Z</time>
      </trkpt>
      <trkpt lat="42.20308" lon="9.0218">
        <ele>2038.13</ele>
        <time>2015-09-10T07:46:21Z</time>
      </trkpt>
      <trkpt lat="42.20302" lon="9.02182">
        <ele>2039.09</ele>
        <time>2015-09-10T07:46:40Z</time>
      </trkpt>
      <trkpt lat="42.20299" lon="9.02187">
        <ele>2040.05</ele>
        <time>2015-09-10T07:46:57Z</time>
      </trkpt>
      <trkpt lat="42.20302" lon="9.02195">
        <ele>2040.05</ele>
        <time>2015-09-10T07:47:22Z</time>
      </trkpt>
      <trkpt lat="42.20307" lon="9.02199">
        <ele>2041.02</ele>
        <time>2015-09-10T07:47:41Z</time>
      </trkpt>
      <trkpt lat="42.20307" lon="9.02197">
        <ele>2041.5</ele>
        <time>2015-09-10T07:48:02Z</time>
      </trkpt>
      <trkpt lat="42.20312" lon="9.02202">
        <ele>2041.98</ele>
        <time>2015-09-10T07:48:22Z</time>
      </trkpt>
      <trkpt lat="42.20315" lon="9.02209">
        <ele>2041.02</ele>
        <time>2015-09-10T07:48:39Z</time>
      </trkpt>
      <trkpt lat="42.20317" lon="9.02214">
        <ele>2040.54</ele>
        <time>2015-09-10T07:49:00Z</time>
      </trkpt>
      <trkpt lat="42.20315" lon="9.02216">
        <ele>2040.05</ele>
        <time>2015-09-10T07:49:22Z</time>
      </trkpt>
      <trkpt lat="42.20316" lon="9.02221">
        <ele>2037.65</ele>
        <time>2015-09-10T07:49:41Z</time>
      </trkpt>
      <trkpt lat="42.20319" lon="9.02229">
        <ele>2035.73</ele>
        <time>2015-09-10T07:49:58Z</time>
      </trkpt>
      <trkpt lat="42.20325" lon="9.02236">
        <ele>2033.81</ele>
        <time>2015-09-10T07:50:16Z</time>
      </trkpt>
      <trkpt lat="42.20331" lon="9.02246">
        <ele>2034.29</ele>
        <time>2015-09-10T07:50:33Z</time>
      </trkpt>
      <trkpt lat="42.20338" lon="9.02259">
        <ele>2032.84</ele>
        <time>2015-09-10T07:50:49Z</time>
      </trkpt>
      <trkpt lat="42.20346" lon="9.0227">
        <ele>2032.84</ele>
        <time>2015-09-10T07:51:05Z</time>
      </trkpt>
      <trkpt lat="42.20355" lon="9.02283">
        <ele>2035.73</ele>
        <time>2015-09-10T07:51:23Z</time>
      </trkpt>
      <trkpt lat="42.20356" lon="9.02298">
        <ele>2036.21</ele>
        <time>2015-09-10T07:51:40Z</time>
      </trkpt>
      <trkpt lat="42.2036" lon="9.02308">
        <ele>2036.69</ele>
        <time>2015-09-10T07:51:59Z</time>
      </trkpt>
      <trkpt lat="42.20362" lon="9.02315">
        <ele>2037.65</ele>
        <time>2015-09-10T07:52:17Z</time>
      </trkpt>
      <trkpt lat="42.20361" lon="9.02321">
        <ele>2040.05</ele>
        <time>2015-09-10T07:52:40Z</time>
      </trkpt>
      <trkpt lat="42.20359" lon="9.02327">
        <ele>2042.46</ele>
        <time>2015-09-10T07:52:58Z</time>
      </trkpt>
      <trkpt lat="42.2036" lon="9.0233">
        <ele>2042.94</ele>
        <time>2015-09-10T07:53:25Z</time>
      </trkpt>
      <trkpt lat="42.20358" lon="9.02331">
        <ele>2040.54</ele>
        <time>2015-09-10T07:53:40Z</time>
      </trkpt>
      <trkpt lat="42.20357" lon="9.02331">
        <ele>2042.94</ele>
        <time>2015-09-10T07:53:42Z</time>
      </trkpt>
      <trkpt lat="42.20357" lon="9.0233">
        <ele>2042.46</ele>
        <time>2015-09-10T07:54:11Z</time>
      </trkpt>
      <trkpt lat="42.20359" lon="9.0233">
        <ele>2043.9</ele>
        <time>2015-09-10T07:54:40Z</time>
      </trkpt>
      <trkpt lat="42.20358" lon="9.02329">
        <ele>2042.94</ele>
        <time>2015-09-10T07:55:05Z</time>
      </trkpt>
      <trkpt lat="42.20356" lon="9.02334">
        <ele>2042.94</ele>
        <time>2015-09-10T07:55:34Z</time>
      </trkpt>
      <trkpt lat="42.20357" lon="9.02333">
        <ele>2043.9</ele>
        <time>2015-09-10T07:55:36Z</time>
      </trkpt>
      <trkpt lat="42.20358" lon="9.02329">
        <ele>2044.38</ele>
        <time>2015-09-10T07:56:08Z</time>
      </trkpt>
      <trkpt lat="42.2036" lon="9.02328">
        <ele>2042.94</ele>
        <time>2015-09-10T07:56:33Z</time>
      </trkpt>
      <trkpt lat="42.20359" lon="9.02331">
        <ele>2043.42</ele>
        <time>2015-09-10T07:57:01Z</time>
      </trkpt>
      <trkpt lat="42.2036" lon="9.02334">
        <ele>2044.38</ele>
        <time>2015-09-10T07:57:07Z</time>
      </trkpt>
      <trkpt lat="42.20364" lon="9.02341">
        <ele>2046.78</ele>
        <time>2015-09-10T07:57:23Z</time>
      </trkpt>
      <trkpt lat="42.20363" lon="9.02351">
        <ele>2047.26</ele>
        <time>2015-09-10T07:57:37Z</time>
      </trkpt>
      <trkpt lat="42.20364" lon="9.02352">
        <ele>2046.3</ele>
        <time>2015-09-10T07:57:39Z</time>
      </trkpt>
      <trkpt lat="42.20369" lon="9.02353">
        <ele>2044.86</ele>
        <time>2015-09-10T07:57:56Z</time>
      </trkpt>
      <trkpt lat="42.20374" lon="9.02352">
        <ele>2043.9</ele>
        <time>2015-09-10T07:58:18Z</time>
      </trkpt>
      <trkpt lat="42.2038" lon="9.02355">
        <ele>2041.5</ele>
        <time>2015-09-10T07:58:39Z</time>
      </trkpt>
      <trkpt lat="42.2038" lon="9.0236">
        <ele>2040.05</ele>
        <time>2015-09-10T07:58:56Z</time>
      </trkpt>
      <trkpt lat="42.20379" lon="9.02362">
        <ele>2040.05</ele>
        <time>2015-09-10T07:59:16Z</time>
      </trkpt>
      <trkpt lat="42.20383" lon="9.02368">
        <ele>2039.57</ele>
        <time>2015-09-10T07:59:34Z</time>
      </trkpt>
      <trkpt lat="42.20384" lon="9.02366">
        <ele>2037.65</ele>
        <time>2015-09-10T07:59:53Z</time>
      </trkpt>
      <trkpt lat="42.20391" lon="9.02371">
        <ele>2037.65</ele>
        <time>2015-09-10T08:00:10Z</time>
      </trkpt>
      <trkpt lat="42.20396" lon="9.02372">
        <ele>2039.09</ele>
        <time>2015-09-10T08:00:18Z</time>
      </trkpt>
      <trkpt lat="42.20403" lon="9.02377">
        <ele>2041.5</ele>
        <time>2015-09-10T08:00:37Z</time>
      </trkpt>
      <trkpt lat="42.20412" lon="9.02385">
        <ele>2042.46</ele>
        <time>2015-09-10T08:00:57Z</time>
      </trkpt>
      <trkpt lat="42.20415" lon="9.02395">
        <ele>2044.86</ele>
        <time>2015-09-10T08:01:16Z</time>
      </trkpt>
      <trkpt lat="42.20421" lon="9.02403">
        <ele>2045.34</ele>
        <time>2015-09-10T08:01:34Z</time>
      </trkpt>
      <trkpt lat="42.20429" lon="9.02416">
        <ele>2044.38</ele>
        <time>2015-09-10T08:01:52Z</time>
      </trkpt>
      <trkpt lat="42.2043" lon="9.02417">
        <ele>2044.38</ele>
        <time>2015-09-10T08:01:54Z</time>
      </trkpt>
      <trkpt lat="42.20438" lon="9.02427">
        <ele>2045.82</ele>
        <time>2015-09-10T08:02:12Z</time>
      </trkpt>
      <trkpt lat="42.20444" lon="9.02435">
        <ele>2047.75</ele>
        <time>2015-09-10T08:02:30Z</time>
      </trkpt>
      <trkpt lat="42.20451" lon="9.02444">
        <ele>2049.19</ele>
        <time>2015-09-10T08:02:49Z</time>
      </trkpt>
      <trkpt lat="42.20456" lon="9.02457">
        <ele>2050.15</ele>
        <time>2015-09-10T08:03:08Z</time>
      </trkpt>
      <trkpt lat="42.20464" lon="9.02464">
        <ele>2050.63</ele>
        <time>2015-09-10T08:03:24Z</time>
      </trkpt>
      <trkpt lat="42.2047" lon="9.02468">
        <ele>2050.63</ele>
        <time>2015-09-10T08:03:41Z</time>
      </trkpt>
      <trkpt lat="42.20477" lon="9.02469">
        <ele>2050.63</ele>
        <time>2015-09-10T08:04:00Z</time>
      </trkpt>
      <trkpt lat="42.2048" lon="9.02472">
        <ele>2050.63</ele>
        <time>2015-09-10T08:04:24Z</time>
      </trkpt>
      <trkpt lat="42.20482" lon="9.02477">
        <ele>2049.19</ele>
        <time>2015-09-10T08:04:48Z</time>
      </trkpt>
      <trkpt lat="42.20489" lon="9.02481">
        <ele>2048.23</ele>
        <time>2015-09-10T08:04:59Z</time>
      </trkpt>
      <trkpt lat="42.205" lon="9.02489">
        <ele>2047.26</ele>
        <time>2015-09-10T08:05:16Z</time>
      </trkpt>
      <trkpt lat="42.20505" lon="9.02497">
        <ele>2047.26</ele>
        <time>2015-09-10T08:05:27Z</time>
      </trkpt>
      <trkpt lat="42.20515" lon="9.0251">
        <ele>2046.3</ele>
        <time>2015-09-10T08:05:46Z</time>
      </trkpt>
      <trkpt lat="42.20524" lon="9.02515">
        <ele>2043.42</ele>
        <time>2015-09-10T08:06:00Z</time>
      </trkpt>
      <trkpt lat="42.20533" lon="9.02523">
        <ele>2042.46</ele>
        <time>2015-09-10T08:06:20Z</time>
      </trkpt>
      <trkpt lat="42.2054" lon="9.0253">
        <ele>2043.42</ele>
        <time>2015-09-10T08:06:34Z</time>
      </trkpt>
      <trkpt lat="42.20551" lon="9.02537">
        <ele>2044.86</ele>
        <time>2015-09-10T08:06:54Z</time>
      </trkpt>
      <trkpt lat="42.2056" lon="9.02541">
        <ele>2045.34</ele>
        <time>2015-09-10T08:07:12Z</time>
      </trkpt>
      <trkpt lat="42.20567" lon="9.02546">
        <ele>2044.38</ele>
        <time>2015-09-10T08:07:26Z</time>
      </trkpt>
      <trkpt lat="42.20572" lon="9.02549">
        <ele>2045.34</ele>
        <time>2015-09-10T08:07:42Z</time>
      </trkpt>
      <trkpt lat="42.2058" lon="9.02558">
        <ele>2047.75</ele>
        <time>2015-09-10T08:08:05Z</time>
      </trkpt>
      <trkpt lat="42.20588" lon="9.02563">
        <ele>2048.23</ele>
        <time>2015-09-10T08:08:25Z</time>
      </trkpt>
      <trkpt lat="42.20598" lon="9.02562">
        <ele>2046.3</ele>
        <time>2015-09-10T08:08:44Z</time>
      </trkpt>
      <trkpt lat="42.20613" lon="9.02561">
        <ele>2045.34</ele>
        <time>2015-09-10T08:09:05Z</time>
      </trkpt>
      <trkpt lat="42.20622" lon="9.02562">
        <ele>2043.42</ele>
        <time>2015-09-10T08:09:24Z</time>
      </trkpt>
      <trkpt lat="42.20635" lon="9.02561">
        <ele>2044.86</ele>
        <time>2015-09-10T08:09:46Z</time>
      </trkpt>
      <trkpt lat="42.20642" lon="9.02565">
        <ele>2046.78</ele>
        <time>2015-09-10T08:10:02Z</time>
      </trkpt>
      <trkpt lat="42.2065" lon="9.02564">
        <ele>2045.82</ele>
        <time>2015-09-10T08:10:15Z</time>
      </trkpt>
      <trkpt lat="42.20656" lon="9.02567">
        <ele>2043.42</ele>
        <time>2015-09-10T08:10:32Z</time>
      </trkpt>
      <trkpt lat="42.20662" lon="9.02573">
        <ele>2041.5</ele>
        <time>2015-09-10T08:10:50Z</time>
      </trkpt>
      <trkpt lat="42.20669" lon="9.0258">
        <ele>2041.02</ele>
        <time>2015-09-10T08:11:07Z</time>
      </trkpt>
      <trkpt lat="42.20675" lon="9.02587">
        <ele>2040.54</ele>
        <time>2015-09-10T08:11:23Z</time>
      </trkpt>
      <trkpt lat="42.20682" lon="9.02595">
        <ele>2041.98</ele>
        <time>2015-09-10T08:11:41Z</time>
      </trkpt>
      <trkpt lat="42.20685" lon="9.02603">
        <ele>2042.46</ele>
        <time>2015-09-10T08:11:59Z</time>
      </trkpt>
      <trkpt lat="42.20687" lon="9.02612">
        <ele>2044.38</ele>
        <time>2015-09-10T08:12:17Z</time>
      </trkpt>
      <trkpt lat="42.20687" lon="9.0262">
        <ele>2044.38</ele>
        <time>2015-09-10T08:12:33Z</time>
      </trkpt>
      <trkpt lat="42.20686" lon="9.02626">
        <ele>2044.86</ele>
        <time>2015-09-10T08:12:54Z</time>
      </trkpt>
      <trkpt lat="42.20684" lon="9.02635">
        <ele>2046.3</ele>
        <time>2015-09-10T08:13:07Z</time>
      </trkpt>
      <trkpt lat="42.20687" lon="9.02641">
        <ele>2047.75</ele>
        <time>2015-09-10T08:13:26Z</time>
      </trkpt>
      <trkpt lat="42.20687" lon="9.02645">
        <ele>2049.67</ele>
        <time>2015-09-10T08:13:45Z</time>
      </trkpt>
      <trkpt lat="42.20693" lon="9.02653">
        <ele>2051.59</ele>
        <time>2015-09-10T08:14:04Z</time>
      </trkpt>
      <trkpt lat="42.20704" lon="9.02659">
        <ele>2050.63</ele>
        <time>2015-09-10T08:14:24Z</time>
      </trkpt>
      <trkpt lat="42.20707" lon="9.02663">
        <ele>2050.63</ele>
        <time>2015-09-10T08:14:48Z</time>
      </trkpt>
      <trkpt lat="42.20709" lon="9.02668">
        <ele>2053.51</ele>
        <time>2015-09-10T08:15:07Z</time>
      </trkpt>
      <trkpt lat="42.20711" lon="9.02672">
        <ele>2055.44</ele>
        <time>2015-09-10T08:15:24Z</time>
      </trkpt>
      <trkpt lat="42.20712" lon="9.02678">
        <ele>2057.36</ele>
        <time>2015-09-10T08:15:43Z</time>
      </trkpt>
      <trkpt lat="42.20717" lon="9.02687">
        <ele>2057.84</ele>
        <time>2015-09-10T08:16:02Z</time>
      </trkpt>
      <trkpt lat="42.2072" lon="9.02694">
        <ele>2058.8</ele>
        <time>2015-09-10T08:16:17Z</time>
      </trkpt>
      <trkpt lat="42.20725" lon="9.02704">
        <ele>2058.8</ele>
        <time>2015-09-10T08:16:35Z</time>
      </trkpt>
      <trkpt lat="42.20727" lon="9.02708">
        <ele>2057.36</ele>
        <time>2015-09-10T08:16:46Z</time>
      </trkpt>
      <trkpt lat="42.20731" lon="9.02722">
        <ele>2054.96</ele>
        <time>2015-09-10T08:17:07Z</time>
      </trkpt>
      <trkpt lat="42.20731" lon="9.0273">
        <ele>2053.99</ele>
        <time>2015-09-10T08:17:30Z</time>
      </trkpt>
      <trkpt lat="42.20728" lon="9.02734">
        <ele>2055.92</ele>
        <time>2015-09-10T08:17:47Z</time>
      </trkpt>
      <trkpt lat="42.20726" lon="9.02734">
        <ele>2057.84</ele>
        <time>2015-09-10T08:18:03Z</time>
      </trkpt>
      <trkpt lat="42.20745" lon="9.02747">
        <ele>2060.24</ele>
        <time>2015-09-10T08:18:21Z</time>
      </trkpt>
      <trkpt lat="42.20754" lon="9.02753">
        <ele>2060.72</ele>
        <time>2015-09-10T08:18:43Z</time>
      </trkpt>
      <trkpt lat="42.20761" lon="9.02759">
        <ele>2062.17</ele>
        <time>2015-09-10T08:19:02Z</time>
      </trkpt>
      <trkpt lat="42.20761" lon="9.02758">
        <ele>2060.72</ele>
        <time>2015-09-10T08:19:26Z</time>
      </trkpt>
      <trkpt lat="42.20766" lon="9.02771">
        <ele>2059.28</ele>
        <time>2015-09-10T08:19:44Z</time>
      </trkpt>
      <trkpt lat="42.20783" lon="9.02775">
        <ele>2057.36</ele>
        <time>2015-09-10T08:20:02Z</time>
      </trkpt>
      <trkpt lat="42.20784" lon="9.02768">
        <ele>2056.4</ele>
        <time>2015-09-10T08:20:18Z</time>
      </trkpt>
      <trkpt lat="42.20783" lon="9.02767">
        <ele>2055.44</ele>
        <time>2015-09-10T08:20:36Z</time>
      </trkpt>
      <trkpt lat="42.20786" lon="9.02771">
        <ele>2053.51</ele>
        <time>2015-09-10T08:20:56Z</time>
      </trkpt>
      <trkpt lat="42.20788" lon="9.02769">
        <ele>2053.03</ele>
        <time>2015-09-10T08:21:12Z</time>
      </trkpt>
      <trkpt lat="42.20794" lon="9.02771">
        <ele>2054.47</ele>
        <time>2015-09-10T08:21:28Z</time>
      </trkpt>
      <trkpt lat="42.208" lon="9.02774">
        <ele>2054.96</ele>
        <time>2015-09-10T08:21:46Z</time>
      </trkpt>
      <trkpt lat="42.20801" lon="9.02778">
        <ele>2055.92</ele>
        <time>2015-09-10T08:22:02Z</time>
      </trkpt>
      <trkpt lat="42.20809" lon="9.02779">
        <ele>2056.88</ele>
        <time>2015-09-10T08:22:26Z</time>
      </trkpt>
      <trkpt lat="42.20814" lon="9.02781">
        <ele>2056.88</ele>
        <time>2015-09-10T08:22:45Z</time>
      </trkpt>
      <trkpt lat="42.2082" lon="9.02787">
        <ele>2057.36</ele>
        <time>2015-09-10T08:23:06Z</time>
      </trkpt>
      <trkpt lat="42.20822" lon="9.02789">
        <ele>2057.36</ele>
        <time>2015-09-10T08:23:27Z</time>
      </trkpt>
      <trkpt lat="42.20825" lon="9.02789">
        <ele>2057.84</ele>
        <time>2015-09-10T08:23:42Z</time>
      </trkpt>
      <trkpt lat="42.20828" lon="9.02791">
        <ele>2055.44</ele>
        <time>2015-09-10T08:24:03Z</time>
      </trkpt>
      <trkpt lat="42.20834" lon="9.0279">
        <ele>2054.47</ele>
        <time>2015-09-10T08:24:26Z</time>
      </trkpt>
      <trkpt lat="42.20836" lon="9.02794">
        <ele>2053.99</ele>
        <time>2015-09-10T08:24:45Z</time>
      </trkpt>
      <trkpt lat="42.2084" lon="9.02799">
        <ele>2053.99</ele>
        <time>2015-09-10T08:25:06Z</time>
      </trkpt>
      <trkpt lat="42.2084" lon="9.028">
        <ele>2053.99</ele>
        <time>2015-09-10T08:25:33Z</time>
      </trkpt>
      <trkpt lat="42.20841" lon="9.028">
        <ele>2053.99</ele>
        <time>2015-09-10T08:26:05Z</time>
      </trkpt>
      <trkpt lat="42.20843" lon="9.028">
        <ele>2054.47</ele>
        <time>2015-09-10T08:26:24Z</time>
      </trkpt>
      <trkpt lat="42.20844" lon="9.02801">
        <ele>2053.51</ele>
        <time>2015-09-10T08:26:44Z</time>
      </trkpt>
      <trkpt lat="42.20853" lon="9.02807">
        <ele>2051.59</ele>
        <time>2015-09-10T08:27:03Z</time>
      </trkpt>
      <trkpt lat="42.20855" lon="9.02797">
        <ele>2048.71</ele>
        <time>2015-09-10T08:27:22Z</time>
      </trkpt>
      <trkpt lat="42.2086" lon="9.02793">
        <ele>2045.82</ele>
        <time>2015-09-10T08:27:40Z</time>
      </trkpt>
      <trkpt lat="42.20865" lon="9.02792">
        <ele>2043.42</ele>
        <time>2015-09-10T08:27:55Z</time>
      </trkpt>
      <trkpt lat="42.20874" lon="9.02804">
        <ele>2045.34</ele>
        <time>2015-09-10T08:28:13Z</time>
      </trkpt>
      <trkpt lat="42.2088" lon="9.02808">
        <ele>2046.3</ele>
        <time>2015-09-10T08:28:33Z</time>
      </trkpt>
      <trkpt lat="42.20886" lon="9.02811">
        <ele>2045.34</ele>
        <time>2015-09-10T08:28:57Z</time>
      </trkpt>
      <trkpt lat="42.20887" lon="9.02815">
        <ele>2047.75</ele>
        <time>2015-09-10T08:29:15Z</time>
      </trkpt>
      <trkpt lat="42.20891" lon="9.02818">
        <ele>2049.19</ele>
        <time>2015-09-10T08:29:38Z</time>
      </trkpt>
      <trkpt lat="42.20892" lon="9.02821">
        <ele>2051.11</ele>
        <time>2015-09-10T08:29:57Z</time>
      </trkpt>
      <trkpt lat="42.20895" lon="9.02822">
        <ele>2053.03</ele>
        <time>2015-09-10T08:30:16Z</time>
      </trkpt>
      <trkpt lat="42.20901" lon="9.02825">
        <ele>2053.99</ele>
        <time>2015-09-10T08:30:35Z</time>
      </trkpt>
      <trkpt lat="42.20907" lon="9.02831">
        <ele>2055.44</ele>
        <time>2015-09-10T08:30:56Z</time>
      </trkpt>
      <trkpt lat="42.20911" lon="9.02838">
        <ele>2057.36</ele>
        <time>2015-09-10T08:31:16Z</time>
      </trkpt>
      <trkpt lat="42.20915" lon="9.02841">
        <ele>2059.28</ele>
        <time>2015-09-10T08:31:34Z</time>
      </trkpt>
      <trkpt lat="42.20918" lon="9.0284">
        <ele>2059.28</ele>
        <time>2015-09-10T08:31:58Z</time>
      </trkpt>
      <trkpt lat="42.20929" lon="9.02843">
        <ele>2058.32</ele>
        <time>2015-09-10T08:32:25Z</time>
      </trkpt>
      <trkpt lat="42.20926" lon="9.02844">
        <ele>2059.76</ele>
        <time>2015-09-10T08:32:35Z</time>
      </trkpt>
      <trkpt lat="42.20928" lon="9.02847">
        <ele>2061.68</ele>
        <time>2015-09-10T08:32:54Z</time>
      </trkpt>
      <trkpt lat="42.20928" lon="9.02849">
        <ele>2063.61</ele>
        <time>2015-09-10T08:33:16Z</time>
      </trkpt>
      <trkpt lat="42.20927" lon="9.02853">
        <ele>2065.53</ele>
        <time>2015-09-10T08:33:36Z</time>
      </trkpt>
      <trkpt lat="42.20922" lon="9.02856">
        <ele>2066.97</ele>
        <time>2015-09-10T08:33:56Z</time>
      </trkpt>
      <trkpt lat="42.20924" lon="9.02862">
        <ele>2069.38</ele>
        <time>2015-09-10T08:34:16Z</time>
      </trkpt>
      <trkpt lat="42.20919" lon="9.02861">
        <ele>2071.78</ele>
        <time>2015-09-10T08:34:35Z</time>
      </trkpt>
      <trkpt lat="42.20915" lon="9.02865">
        <ele>2074.18</ele>
        <time>2015-09-10T08:34:57Z</time>
      </trkpt>
      <trkpt lat="42.20919" lon="9.02866">
        <ele>2074.18</ele>
        <time>2015-09-10T08:35:18Z</time>
      </trkpt>
      <trkpt lat="42.20916" lon="9.0287">
        <ele>2077.07</ele>
        <time>2015-09-10T08:35:40Z</time>
      </trkpt>
      <trkpt lat="42.20912" lon="9.02872">
        <ele>2078.99</ele>
        <time>2015-09-10T08:35:59Z</time>
      </trkpt>
      <trkpt lat="42.20916" lon="9.02879">
        <ele>2080.91</ele>
        <time>2015-09-10T08:36:20Z</time>
      </trkpt>
      <trkpt lat="42.20911" lon="9.02879">
        <ele>2083.79</ele>
        <time>2015-09-10T08:36:42Z</time>
      </trkpt>
      <trkpt lat="42.20906" lon="9.02878">
        <ele>2085.24</ele>
        <time>2015-09-10T08:37:00Z</time>
      </trkpt>
      <trkpt lat="42.20904" lon="9.0288">
        <ele>2087.16</ele>
        <time>2015-09-10T08:37:17Z</time>
      </trkpt>
      <trkpt lat="42.20907" lon="9.02888">
        <ele>2089.08</ele>
        <time>2015-09-10T08:37:39Z</time>
      </trkpt>
      <trkpt lat="42.20905" lon="9.02891">
        <ele>2091.49</ele>
        <time>2015-09-10T08:38:00Z</time>
      </trkpt>
      <trkpt lat="42.20904" lon="9.02897">
        <ele>2093.89</ele>
        <time>2015-09-10T08:38:23Z</time>
      </trkpt>
      <trkpt lat="42.20908" lon="9.02903">
        <ele>2095.81</ele>
        <time>2015-09-10T08:38:43Z</time>
      </trkpt>
      <trkpt lat="42.20908" lon="9.02906">
        <ele>2098.21</ele>
        <time>2015-09-10T08:39:05Z</time>
      </trkpt>
      <trkpt lat="42.20906" lon="9.02909">
        <ele>2100.62</ele>
        <time>2015-09-10T08:39:27Z</time>
      </trkpt>
      <trkpt lat="42.20908" lon="9.02912">
        <ele>2102.06</ele>
        <time>2015-09-10T08:39:47Z</time>
      </trkpt>
      <trkpt lat="42.2091" lon="9.02912">
        <ele>2103.5</ele>
        <time>2015-09-10T08:40:06Z</time>
      </trkpt>
      <trkpt lat="42.2091" lon="9.02915">
        <ele>2103.98</ele>
        <time>2015-09-10T08:40:27Z</time>
      </trkpt>
      <trkpt lat="42.20912" lon="9.02917">
        <ele>2105.42</ele>
        <time>2015-09-10T08:40:48Z</time>
      </trkpt>
      <trkpt lat="42.20914" lon="9.02921">
        <ele>2106.39</ele>
        <time>2015-09-10T08:41:13Z</time>
      </trkpt>
      <trkpt lat="42.20911" lon="9.02922">
        <ele>2108.79</ele>
        <time>2015-09-10T08:41:31Z</time>
      </trkpt>
      <trkpt lat="42.20909" lon="9.02928">
        <ele>2111.19</ele>
        <time>2015-09-10T08:41:54Z</time>
      </trkpt>
      <trkpt lat="42.20911" lon="9.02932">
        <ele>2112.63</ele>
        <time>2015-09-10T08:42:18Z</time>
      </trkpt>
      <trkpt lat="42.20913" lon="9.02934">
        <ele>2115.04</ele>
        <time>2015-09-10T08:42:36Z</time>
      </trkpt>
      <trkpt lat="42.20911" lon="9.02939">
        <ele>2116.96</ele>
        <time>2015-09-10T08:42:54Z</time>
      </trkpt>
      <trkpt lat="42.20907" lon="9.0294">
        <ele>2119.36</ele>
        <time>2015-09-10T08:43:15Z</time>
      </trkpt>
      <trkpt lat="42.20906" lon="9.02945">
        <ele>2120.32</ele>
        <time>2015-09-10T08:43:33Z</time>
      </trkpt>
      <trkpt lat="42.20904" lon="9.02948">
        <ele>2122.73</ele>
        <time>2015-09-10T08:43:54Z</time>
      </trkpt>
      <trkpt lat="42.20899" lon="9.02944">
        <ele>2124.17</ele>
        <time>2015-09-10T08:44:12Z</time>
      </trkpt>
      <trkpt lat="42.20894" lon="9.02948">
        <ele>2126.57</ele>
        <time>2015-09-10T08:44:32Z</time>
      </trkpt>
      <trkpt lat="42.20889" lon="9.02952">
        <ele>2128.02</ele>
        <time>2015-09-10T08:44:53Z</time>
      </trkpt>
      <trkpt lat="42.20883" lon="9.02949">
        <ele>2130.42</ele>
        <time>2015-09-10T08:45:12Z</time>
      </trkpt>
      <trkpt lat="42.20883" lon="9.02959">
        <ele>2132.34</ele>
        <time>2015-09-10T08:45:34Z</time>
      </trkpt>
      <trkpt lat="42.20879" lon="9.02963">
        <ele>2134.74</ele>
        <time>2015-09-10T08:45:57Z</time>
      </trkpt>
      <trkpt lat="42.20873" lon="9.02965">
        <ele>2136.67</ele>
        <time>2015-09-10T08:46:17Z</time>
      </trkpt>
      <trkpt lat="42.2087" lon="9.02977">
        <ele>2139.07</ele>
        <time>2015-09-10T08:46:38Z</time>
      </trkpt>
      <trkpt lat="42.20864" lon="9.02976">
        <ele>2140.99</ele>
        <time>2015-09-10T08:47:00Z</time>
      </trkpt>
      <trkpt lat="42.2086" lon="9.02987">
        <ele>2141.95</ele>
        <time>2015-09-10T08:47:20Z</time>
      </trkpt>
      <trkpt lat="42.20853" lon="9.0299">
        <ele>2142.92</ele>
        <time>2015-09-10T08:47:39Z</time>
      </trkpt>
      <trkpt lat="42.20846" lon="9.02995">
        <ele>2143.4</ele>
        <time>2015-09-10T08:47:56Z</time>
      </trkpt>
      <trkpt lat="42.2084" lon="9.03003">
        <ele>2145.32</ele>
        <time>2015-09-10T08:48:14Z</time>
      </trkpt>
      <trkpt lat="42.20834" lon="9.03008">
        <ele>2147.24</ele>
        <time>2015-09-10T08:48:34Z</time>
      </trkpt>
      <trkpt lat="42.20832" lon="9.03022">
        <ele>2147.24</ele>
        <time>2015-09-10T08:48:54Z</time>
      </trkpt>
      <trkpt lat="42.2083" lon="9.03021">
        <ele>2147.24</ele>
        <time>2015-09-10T08:49:11Z</time>
      </trkpt>
      <trkpt lat="42.20827" lon="9.03014">
        <ele>2147.72</ele>
        <time>2015-09-10T08:49:32Z</time>
      </trkpt>
      <trkpt lat="42.20833" lon="9.03021">
        <ele>2146.28</ele>
        <time>2015-09-10T08:49:47Z</time>
      </trkpt>
      <trkpt lat="42.20834" lon="9.03022">
        <ele>2146.76</ele>
        <time>2015-09-10T08:50:23Z</time>
      </trkpt>
      <trkpt lat="42.20833" lon="9.03023">
        <ele>2146.76</ele>
        <time>2015-09-10T08:50:59Z</time>
      </trkpt>
      <trkpt lat="42.20833" lon="9.03025">
        <ele>2146.76</ele>
        <time>2015-09-10T08:51:31Z</time>
      </trkpt>
      <trkpt lat="42.20834" lon="9.03022">
        <ele>2146.76</ele>
        <time>2015-09-10T08:52:08Z</time>
      </trkpt>
      <trkpt lat="42.20833" lon="9.03022">
        <ele>2146.76</ele>
        <time>2015-09-10T08:52:50Z</time>
      </trkpt>
      <trkpt lat="42.20834" lon="9.03023">
        <ele>2146.76</ele>
        <time>2015-09-10T08:53:22Z</time>
      </trkpt>
      <trkpt lat="42.20834" lon="9.03024">
        <ele>2146.76</ele>
        <time>2015-09-10T08:54:09Z</time>
      </trkpt>
      <trkpt lat="42.20833" lon="9.03022">
        <ele>2146.76</ele>
        <time>2015-09-10T08:54:54Z</time>
      </trkpt>
      <trkpt lat="42.20832" lon="9.03021">
        <ele>2146.76</ele>
        <time>2015-09-10T08:55:32Z</time>
      </trkpt>
      <trkpt lat="42.20833" lon="9.0302">
        <ele>2148.2</ele>
        <time>2015-09-10T08:55:52Z</time>
      </trkpt>
      <trkpt lat="42.20831" lon="9.0302">
        <ele>2148.2</ele>
        <time>2015-09-10T08:56:15Z</time>
      </trkpt>
      <trkpt lat="42.2083" lon="9.03017">
        <ele>2148.2</ele>
        <time>2015-09-10T08:56:40Z</time>
      </trkpt>
      <trkpt lat="42.20823" lon="9.03012">
        <ele>2148.2</ele>
        <time>2015-09-10T08:57:12Z</time>
      </trkpt>
      <trkpt lat="42.20815" lon="9.03022">
        <ele>2148.2</ele>
        <time>2015-09-10T08:57:33Z</time>
      </trkpt>
      <trkpt lat="42.20817" lon="9.03026">
        <ele>2146.76</ele>
        <time>2015-09-10T08:57:35Z</time>
      </trkpt>
      <trkpt lat="42.20825" lon="9.03043">
        <ele>2146.28</ele>
        <time>2015-09-10T08:57:49Z</time>
      </trkpt>
      <trkpt lat="42.20823" lon="9.03057">
        <ele>2146.28</ele>
        <time>2015-09-10T08:58:04Z</time>
      </trkpt>
      <trkpt lat="42.2082" lon="9.03068">
        <ele>2148.2</ele>
        <time>2015-09-10T08:58:19Z</time>
      </trkpt>
      <trkpt lat="42.20818" lon="9.0308">
        <ele>2149.65</ele>
        <time>2015-09-10T08:58:34Z</time>
      </trkpt>
      <trkpt lat="42.20822" lon="9.03085">
        <ele>2150.61</ele>
        <time>2015-09-10T08:58:46Z</time>
      </trkpt>
      <trkpt lat="42.20822" lon="9.03089">
        <ele>2151.09</ele>
        <time>2015-09-10T08:58:50Z</time>
      </trkpt>
      <trkpt lat="42.20824" lon="9.03103">
        <ele>2151.09</ele>
        <time>2015-09-10T08:59:02Z</time>
      </trkpt>
      <trkpt lat="42.20822" lon="9.03119">
        <ele>2151.09</ele>
        <time>2015-09-10T08:59:17Z</time>
      </trkpt>
      <trkpt lat="42.20821" lon="9.03129">
        <ele>2152.53</ele>
        <time>2015-09-10T08:59:34Z</time>
      </trkpt>
      <trkpt lat="42.20817" lon="9.03137">
        <ele>2153.97</ele>
        <time>2015-09-10T08:59:51Z</time>
      </trkpt>
      <trkpt lat="42.2082" lon="9.03145">
        <ele>2155.41</ele>
        <time>2015-09-10T09:00:05Z</time>
      </trkpt>
      <trkpt lat="42.20821" lon="9.03152">
        <ele>2157.34</ele>
        <time>2015-09-10T09:00:20Z</time>
      </trkpt>
      <trkpt lat="42.20817" lon="9.03158">
        <ele>2158.78</ele>
        <time>2015-09-10T09:00:35Z</time>
      </trkpt>
      <trkpt lat="42.2081" lon="9.03165">
        <ele>2160.22</ele>
        <time>2015-09-10T09:00:50Z</time>
      </trkpt>
      <trkpt lat="42.20815" lon="9.03174">
        <ele>2161.66</ele>
        <time>2015-09-10T09:01:04Z</time>
      </trkpt>
      <trkpt lat="42.20817" lon="9.03182">
        <ele>2162.62</ele>
        <time>2015-09-10T09:01:18Z</time>
      </trkpt>
      <trkpt lat="42.20813" lon="9.03193">
        <ele>2164.06</ele>
        <time>2015-09-10T09:01:33Z</time>
      </trkpt>
      <trkpt lat="42.20814" lon="9.032">
        <ele>2164.06</ele>
        <time>2015-09-10T09:01:41Z</time>
      </trkpt>
      <trkpt lat="42.20813" lon="9.0321">
        <ele>2164.55</ele>
        <time>2015-09-10T09:01:55Z</time>
      </trkpt>
      <trkpt lat="42.20813" lon="9.03221">
        <ele>2165.03</ele>
        <time>2015-09-10T09:02:11Z</time>
      </trkpt>
      <trkpt lat="42.20811" lon="9.03233">
        <ele>2165.03</ele>
        <time>2015-09-10T09:02:25Z</time>
      </trkpt>
      <trkpt lat="42.20807" lon="9.03244">
        <ele>2165.03</ele>
        <time>2015-09-10T09:02:40Z</time>
      </trkpt>
      <trkpt lat="42.20806" lon="9.03258">
        <ele>2165.99</ele>
        <time>2015-09-10T09:02:56Z</time>
      </trkpt>
      <trkpt lat="42.208" lon="9.0327">
        <ele>2166.95</ele>
        <time>2015-09-10T09:03:11Z</time>
      </trkpt>
      <trkpt lat="42.208" lon="9.03281">
        <ele>2166.95</ele>
        <time>2015-09-10T09:03:26Z</time>
      </trkpt>
      <trkpt lat="42.20798" lon="9.03289">
        <ele>2167.91</ele>
        <time>2015-09-10T09:03:42Z</time>
      </trkpt>
      <trkpt lat="42.20798" lon="9.03299">
        <ele>2166.47</ele>
        <time>2015-09-10T09:03:57Z</time>
      </trkpt>
      <trkpt lat="42.208" lon="9.03307">
        <ele>2165.03</ele>
        <time>2015-09-10T09:04:11Z</time>
      </trkpt>
      <trkpt lat="42.20804" lon="9.03316">
        <ele>2163.58</ele>
        <time>2015-09-10T09:04:27Z</time>
      </trkpt>
      <trkpt lat="42.20804" lon="9.0333">
        <ele>2162.62</ele>
        <time>2015-09-10T09:04:41Z</time>
      </trkpt>
      <trkpt lat="42.20803" lon="9.03339">
        <ele>2162.62</ele>
        <time>2015-09-10T09:04:57Z</time>
      </trkpt>
      <trkpt lat="42.20803" lon="9.03349">
        <ele>2160.7</ele>
        <time>2015-09-10T09:05:14Z</time>
      </trkpt>
      <trkpt lat="42.20798" lon="9.03357">
        <ele>2162.14</ele>
        <time>2015-09-10T09:05:29Z</time>
      </trkpt>
      <trkpt lat="42.20795" lon="9.03366">
        <ele>2162.62</ele>
        <time>2015-09-10T09:05:44Z</time>
      </trkpt>
      <trkpt lat="42.20795" lon="9.03377">
        <ele>2163.1</ele>
        <time>2015-09-10T09:06:01Z</time>
      </trkpt>
      <trkpt lat="42.20795" lon="9.03387">
        <ele>2162.14</ele>
        <time>2015-09-10T09:06:15Z</time>
      </trkpt>
      <trkpt lat="42.20792" lon="9.03395">
        <ele>2160.7</ele>
        <time>2015-09-10T09:06:33Z</time>
      </trkpt>
      <trkpt lat="42.20793" lon="9.03405">
        <ele>2161.18</ele>
        <time>2015-09-10T09:06:47Z</time>
      </trkpt>
      <trkpt lat="42.2079" lon="9.03409">
        <ele>2162.14</ele>
        <time>2015-09-10T09:06:54Z</time>
      </trkpt>
      <trkpt lat="42.20788" lon="9.03421">
        <ele>2164.06</ele>
        <time>2015-09-10T09:07:11Z</time>
      </trkpt>
      <trkpt lat="42.20783" lon="9.03432">
        <ele>2164.06</ele>
        <time>2015-09-10T09:07:26Z</time>
      </trkpt>
      <trkpt lat="42.20779" lon="9.0344">
        <ele>2165.51</ele>
        <time>2015-09-10T09:07:43Z</time>
      </trkpt>
      <trkpt lat="42.20782" lon="9.03446">
        <ele>2164.55</ele>
        <time>2015-09-10T09:08:01Z</time>
      </trkpt>
      <trkpt lat="42.20781" lon="9.0345">
        <ele>2167.43</ele>
        <time>2015-09-10T09:08:18Z</time>
      </trkpt>
      <trkpt lat="42.20786" lon="9.03461">
        <ele>2165.51</ele>
        <time>2015-09-10T09:08:35Z</time>
      </trkpt>
      <trkpt lat="42.20787" lon="9.03464">
        <ele>2166.47</ele>
        <time>2015-09-10T09:08:41Z</time>
      </trkpt>
      <trkpt lat="42.20788" lon="9.03474">
        <ele>2167.43</ele>
        <time>2015-09-10T09:08:56Z</time>
      </trkpt>
      <trkpt lat="42.20787" lon="9.03483">
        <ele>2167.91</ele>
        <time>2015-09-10T09:09:09Z</time>
      </trkpt>
      <trkpt lat="42.20789" lon="9.03492">
        <ele>2165.51</ele>
        <time>2015-09-10T09:09:27Z</time>
      </trkpt>
      <trkpt lat="42.20786" lon="9.03502">
        <ele>2165.51</ele>
        <time>2015-09-10T09:09:42Z</time>
      </trkpt>
      <trkpt lat="42.20786" lon="9.03509">
        <ele>2166.95</ele>
        <time>2015-09-10T09:09:50Z</time>
      </trkpt>
      <trkpt lat="42.20784" lon="9.0352">
        <ele>2166.95</ele>
        <time>2015-09-10T09:10:04Z</time>
      </trkpt>
      <trkpt lat="42.20784" lon="9.03537">
        <ele>2168.39</ele>
        <time>2015-09-10T09:10:22Z</time>
      </trkpt>
      <trkpt lat="42.20783" lon="9.0355">
        <ele>2169.35</ele>
        <time>2015-09-10T09:10:38Z</time>
      </trkpt>
      <trkpt lat="42.20782" lon="9.0356">
        <ele>2170.79</ele>
        <time>2015-09-10T09:10:55Z</time>
      </trkpt>
      <trkpt lat="42.20778" lon="9.03566">
        <ele>2172.72</ele>
        <time>2015-09-10T09:11:12Z</time>
      </trkpt>
      <trkpt lat="42.20777" lon="9.03573">
        <ele>2174.64</ele>
        <time>2015-09-10T09:11:29Z</time>
      </trkpt>
      <trkpt lat="42.20778" lon="9.03578">
        <ele>2176.08</ele>
        <time>2015-09-10T09:11:45Z</time>
      </trkpt>
      <trkpt lat="42.20778" lon="9.03583">
        <ele>2178</ele>
        <time>2015-09-10T09:12:00Z</time>
      </trkpt>
      <trkpt lat="42.20776" lon="9.03584">
        <ele>2179.45</ele>
        <time>2015-09-10T09:12:14Z</time>
      </trkpt>
      <trkpt lat="42.20774" lon="9.03587">
        <ele>2181.37</ele>
        <time>2015-09-10T09:12:33Z</time>
      </trkpt>
      <trkpt lat="42.2077" lon="9.0359">
        <ele>2183.29</ele>
        <time>2015-09-10T09:12:49Z</time>
      </trkpt>
      <trkpt lat="42.2077" lon="9.03592">
        <ele>2184.73</ele>
        <time>2015-09-10T09:13:06Z</time>
      </trkpt>
      <trkpt lat="42.20766" lon="9.03594">
        <ele>2186.66</ele>
        <time>2015-09-10T09:13:22Z</time>
      </trkpt>
      <trkpt lat="42.20763" lon="9.03597">
        <ele>2188.1</ele>
        <time>2015-09-10T09:13:37Z</time>
      </trkpt>
      <trkpt lat="42.20759" lon="9.03607">
        <ele>2189.54</ele>
        <time>2015-09-10T09:13:53Z</time>
      </trkpt>
      <trkpt lat="42.20753" lon="9.03617">
        <ele>2190.02</ele>
        <time>2015-09-10T09:14:07Z</time>
      </trkpt>
      <trkpt lat="42.20745" lon="9.0363">
        <ele>2190.02</ele>
        <time>2015-09-10T09:14:24Z</time>
      </trkpt>
      <trkpt lat="42.20741" lon="9.03642">
        <ele>2190.02</ele>
        <time>2015-09-10T09:14:39Z</time>
      </trkpt>
      <trkpt lat="42.20738" lon="9.03649">
        <ele>2188.1</ele>
        <time>2015-09-10T09:14:47Z</time>
      </trkpt>
      <trkpt lat="42.2073" lon="9.03659">
        <ele>2188.58</ele>
        <time>2015-09-10T09:15:02Z</time>
      </trkpt>
      <trkpt lat="42.20724" lon="9.03672">
        <ele>2190.5</ele>
        <time>2015-09-10T09:15:19Z</time>
      </trkpt>
      <trkpt lat="42.2072" lon="9.03682">
        <ele>2190.98</ele>
        <time>2015-09-10T09:15:33Z</time>
      </trkpt>
      <trkpt lat="42.20714" lon="9.03691">
        <ele>2191.94</ele>
        <time>2015-09-10T09:15:47Z</time>
      </trkpt>
      <trkpt lat="42.20705" lon="9.03705">
        <ele>2192.9</ele>
        <time>2015-09-10T09:16:06Z</time>
      </trkpt>
      <trkpt lat="42.20703" lon="9.03715">
        <ele>2194.35</ele>
        <time>2015-09-10T09:16:22Z</time>
      </trkpt>
      <trkpt lat="42.20697" lon="9.03722">
        <ele>2195.79</ele>
        <time>2015-09-10T09:16:39Z</time>
      </trkpt>
      <trkpt lat="42.20692" lon="9.03732">
        <ele>2196.27</ele>
        <time>2015-09-10T09:16:54Z</time>
      </trkpt>
      <trkpt lat="42.20686" lon="9.03741">
        <ele>2197.71</ele>
        <time>2015-09-10T09:17:10Z</time>
      </trkpt>
      <trkpt lat="42.2068" lon="9.03749">
        <ele>2199.63</ele>
        <time>2015-09-10T09:17:26Z</time>
      </trkpt>
      <trkpt lat="42.20674" lon="9.03748">
        <ele>2201.08</ele>
        <time>2015-09-10T09:17:43Z</time>
      </trkpt>
      <trkpt lat="42.2067" lon="9.03756">
        <ele>2202.04</ele>
        <time>2015-09-10T09:17:59Z</time>
      </trkpt>
      <trkpt lat="42.2067" lon="9.03756">
        <ele>2202.04</ele>
        <time>2015-09-10T09:18:22Z</time>
      </trkpt>
      <trkpt lat="42.20669" lon="9.03756">
        <ele>2202.52</ele>
        <time>2015-09-10T09:18:44Z</time>
      </trkpt>
      <trkpt lat="42.20669" lon="9.03755">
        <ele>2202.52</ele>
        <time>2015-09-10T09:19:08Z</time>
      </trkpt>
      <trkpt lat="42.20665" lon="9.03758">
        <ele>2203</ele>
        <time>2015-09-10T09:19:35Z</time>
      </trkpt>
      <trkpt lat="42.20665" lon="9.03758">
        <ele>2201.08</ele>
        <time>2015-09-10T09:19:56Z</time>
      </trkpt>
      <trkpt lat="42.20668" lon="9.03759">
        <ele>2201.08</ele>
        <time>2015-09-10T09:20:21Z</time>
      </trkpt>
      <trkpt lat="42.20667" lon="9.0376">
        <ele>2201.56</ele>
        <time>2015-09-10T09:21:00Z</time>
      </trkpt>
      <trkpt lat="42.20668" lon="9.03758">
        <ele>2202.52</ele>
        <time>2015-09-10T09:21:19Z</time>
      </trkpt>
      <trkpt lat="42.20669" lon="9.03758">
        <ele>2201.08</ele>
        <time>2015-09-10T09:21:22Z</time>
      </trkpt>
      <trkpt lat="42.20668" lon="9.03757">
        <ele>2201.08</ele>
        <time>2015-09-10T09:21:48Z</time>
      </trkpt>
      <trkpt lat="42.20669" lon="9.03758">
        <ele>2201.08</ele>
        <time>2015-09-10T09:22:13Z</time>
      </trkpt>
      <trkpt lat="42.2067" lon="9.03759">
        <ele>2201.08</ele>
        <time>2015-09-10T09:22:42Z</time>
      </trkpt>
      <trkpt lat="42.2067" lon="9.03758">
        <ele>2201.56</ele>
        <time>2015-09-10T09:23:05Z</time>
      </trkpt>
      <trkpt lat="42.20671" lon="9.0376">
        <ele>2201.08</ele>
        <time>2015-09-10T09:23:35Z</time>
      </trkpt>
      <trkpt lat="42.20671" lon="9.0376">
        <ele>2203</ele>
        <time>2015-09-10T09:23:41Z</time>
      </trkpt>
      <trkpt lat="42.20673" lon="9.0376">
        <ele>2201.56</ele>
        <time>2015-09-10T09:23:43Z</time>
      </trkpt>
      <trkpt lat="42.20669" lon="9.03759">
        <ele>2201.56</ele>
        <time>2015-09-10T09:24:09Z</time>
      </trkpt>
      <trkpt lat="42.20669" lon="9.0376">
        <ele>2201.56</ele>
        <time>2015-09-10T09:24:40Z</time>
      </trkpt>
      <trkpt lat="42.2067" lon="9.03758">
        <ele>2201.56</ele>
        <time>2015-09-10T09:25:19Z</time>
      </trkpt>
      <trkpt lat="42.20667" lon="9.03757">
        <ele>2202.52</ele>
        <time>2015-09-10T09:25:47Z</time>
      </trkpt>
      <trkpt lat="42.2067" lon="9.03759">
        <ele>2202.52</ele>
        <time>2015-09-10T09:26:25Z</time>
      </trkpt>
      <trkpt lat="42.2067" lon="9.03758">
        <ele>2202.52</ele>
        <time>2015-09-10T09:26:57Z</time>
      </trkpt>
      <trkpt lat="42.2067" lon="9.03757">
        <ele>2202.52</ele>
        <time>2015-09-10T09:27:25Z</time>
      </trkpt>
      <trkpt lat="42.2067" lon="9.0376">
        <ele>2203</ele>
        <time>2015-09-10T09:27:49Z</time>
      </trkpt>
      <trkpt lat="42.20669" lon="9.0376">
        <ele>2203</ele>
        <time>2015-09-10T09:28:24Z</time>
      </trkpt>
      <trkpt lat="42.2067" lon="9.03759">
        <ele>2203</ele>
        <time>2015-09-10T09:28:51Z</time>
      </trkpt>
      <trkpt lat="42.20668" lon="9.03759">
        <ele>2203</ele>
        <time>2015-09-10T09:29:20Z</time>
      </trkpt>
      <trkpt lat="42.20669" lon="9.03759">
        <ele>2203</ele>
        <time>2015-09-10T09:29:47Z</time>
      </trkpt>
      <trkpt lat="42.2067" lon="9.03759">
        <ele>2203</ele>
        <time>2015-09-10T09:30:22Z</time>
      </trkpt>
      <trkpt lat="42.2067" lon="9.0376">
        <ele>2203</ele>
        <time>2015-09-10T09:30:56Z</time>
      </trkpt>
      <trkpt lat="42.20671" lon="9.0376">
        <ele>2203</ele>
        <time>2015-09-10T09:31:15Z</time>
      </trkpt>
      <trkpt lat="42.20672" lon="9.0376">
        <ele>2203.48</ele>
        <time>2015-09-10T09:31:33Z</time>
      </trkpt>
      <trkpt lat="42.20671" lon="9.03756">
        <ele>2204.44</ele>
        <time>2015-09-10T09:32:04Z</time>
      </trkpt>
      <trkpt lat="42.20669" lon="9.03753">
        <ele>2204.44</ele>
        <time>2015-09-10T09:32:38Z</time>
      </trkpt>
      <trkpt lat="42.2067" lon="9.03754">
        <ele>2204.92</ele>
        <time>2015-09-10T09:33:11Z</time>
      </trkpt>
      <trkpt lat="42.2067" lon="9.03755">
        <ele>2203.96</ele>
        <time>2015-09-10T09:33:37Z</time>
      </trkpt>
      <trkpt lat="42.20672" lon="9.03759">
        <ele>2204.44</ele>
        <time>2015-09-10T09:34:09Z</time>
      </trkpt>
      <trkpt lat="42.20673" lon="9.0376">
        <ele>2204.44</ele>
        <time>2015-09-10T09:34:34Z</time>
      </trkpt>
      <trkpt lat="42.20671" lon="9.03759">
        <ele>2203.48</ele>
        <time>2015-09-10T09:34:57Z</time>
      </trkpt>
      <trkpt lat="42.20671" lon="9.0376">
        <ele>2204.92</ele>
        <time>2015-09-10T09:35:25Z</time>
      </trkpt>
      <trkpt lat="42.20669" lon="9.0376">
        <ele>2205.4</ele>
        <time>2015-09-10T09:35:47Z</time>
      </trkpt>
      <trkpt lat="42.20668" lon="9.03762">
        <ele>2203.96</ele>
        <time>2015-09-10T09:36:08Z</time>
      </trkpt>
      <trkpt lat="42.20668" lon="9.03762">
        <ele>2203.96</ele>
        <time>2015-09-10T09:36:09Z</time>
      </trkpt>
      <trkpt lat="42.20669" lon="9.03761">
        <ele>2203.96</ele>
        <time>2015-09-10T09:36:39Z</time>
      </trkpt>
      <trkpt lat="42.20668" lon="9.03761">
        <ele>2203.96</ele>
        <time>2015-09-10T09:37:13Z</time>
      </trkpt>
      <trkpt lat="42.20672" lon="9.0376">
        <ele>2203.48</ele>
        <time>2015-09-10T09:37:51Z</time>
      </trkpt>
      <trkpt lat="42.2067" lon="9.03761">
        <ele>2204.44</ele>
        <time>2015-09-10T09:38:05Z</time>
      </trkpt>
      <trkpt lat="42.20669" lon="9.0376">
        <ele>2205.4</ele>
        <time>2015-09-10T09:38:14Z</time>
      </trkpt>
      <trkpt lat="42.20669" lon="9.03759">
        <ele>2203.48</ele>
        <time>2015-09-10T09:38:16Z</time>
      </trkpt>
      <trkpt lat="42.20668" lon="9.03757">
        <ele>2203</ele>
        <time>2015-09-10T09:38:51Z</time>
      </trkpt>
      <trkpt lat="42.20668" lon="9.03762">
        <ele>2203</ele>
        <time>2015-09-10T09:39:30Z</time>
      </trkpt>
      <trkpt lat="42.20667" lon="9.03761">
        <ele>2203.48</ele>
        <time>2015-09-10T09:40:05Z</time>
      </trkpt>
      <trkpt lat="42.20669" lon="9.03761">
        <ele>2204.44</ele>
        <time>2015-09-10T09:40:40Z</time>
      </trkpt>
      <trkpt lat="42.20668" lon="9.0376">
        <ele>2204.92</ele>
        <time>2015-09-10T09:41:03Z</time>
      </trkpt>
      <trkpt lat="42.2067" lon="9.0376">
        <ele>2205.4</ele>
        <time>2015-09-10T09:41:42Z</time>
      </trkpt>
      <trkpt lat="42.20669" lon="9.03759">
        <ele>2205.4</ele>
        <time>2015-09-10T09:42:18Z</time>
      </trkpt>
      <trkpt lat="42.20669" lon="9.03761">
        <ele>2203.96</ele>
        <time>2015-09-10T09:42:46Z</time>
      </trkpt>
      <trkpt lat="42.20669" lon="9.03761">
        <ele>2204.44</ele>
        <time>2015-09-10T09:43:21Z</time>
      </trkpt>
      <trkpt lat="42.2067" lon="9.03758">
        <ele>2204.44</ele>
        <time>2015-09-10T09:43:56Z</time>
      </trkpt>
      <trkpt lat="42.2067" lon="9.03759">
        <ele>2203.96</ele>
        <time>2015-09-10T09:44:29Z</time>
      </trkpt>
      <trkpt lat="42.2067" lon="9.03761">
        <ele>2203.96</ele>
        <time>2015-09-10T09:45:03Z</time>
      </trkpt>
      <trkpt lat="42.20672" lon="9.0376">
        <ele>2203.96</ele>
        <time>2015-09-10T09:45:38Z</time>
      </trkpt>
      <trkpt lat="42.2067" lon="9.03761">
        <ele>2203.96</ele>
        <time>2015-09-10T09:46:12Z</time>
      </trkpt>
      <trkpt lat="42.20669" lon="9.0376">
        <ele>2204.44</ele>
        <time>2015-09-10T09:46:47Z</time>
      </trkpt>
      <trkpt lat="42.20669" lon="9.03761">
        <ele>2204.92</ele>
        <time>2015-09-10T09:47:06Z</time>
      </trkpt>
      <trkpt lat="42.20674" lon="9.03761">
        <ele>2205.4</ele>
        <time>2015-09-10T09:47:33Z</time>
      </trkpt>
      <trkpt lat="42.20674" lon="9.0376">
        <ele>2205.4</ele>
        <time>2015-09-10T09:47:58Z</time>
      </trkpt>
      <trkpt lat="42.20673" lon="9.03756">
        <ele>2205.4</ele>
        <time>2015-09-10T09:48:13Z</time>
      </trkpt>
      <trkpt lat="42.20672" lon="9.03757">
        <ele>2205.4</ele>
        <time>2015-09-10T09:48:36Z</time>
      </trkpt>
      <trkpt lat="42.20672" lon="9.03758">
        <ele>2205.4</ele>
        <time>2015-09-10T09:49:00Z</time>
      </trkpt>
      <trkpt lat="42.20672" lon="9.03759">
        <ele>2205.4</ele>
        <time>2015-09-10T09:49:18Z</time>
      </trkpt>
      <trkpt lat="42.20669" lon="9.03756">
        <ele>2205.4</ele>
        <time>2015-09-10T09:49:43Z</time>
      </trkpt>
      <trkpt lat="42.20673" lon="9.03762">
        <ele>2205.4</ele>
        <time>2015-09-10T09:50:17Z</time>
      </trkpt>
      <trkpt lat="42.20671" lon="9.03759">
        <ele>2205.4</ele>
        <time>2015-09-10T09:50:40Z</time>
      </trkpt>
      <trkpt lat="42.2067" lon="9.0376">
        <ele>2205.4</ele>
        <time>2015-09-10T09:51:06Z</time>
      </trkpt>
      <trkpt lat="42.20671" lon="9.03754">
        <ele>2205.4</ele>
        <time>2015-09-10T09:51:33Z</time>
      </trkpt>
      <trkpt lat="42.20668" lon="9.03758">
        <ele>2205.4</ele>
        <time>2015-09-10T09:51:56Z</time>
      </trkpt>
      <trkpt lat="42.2067" lon="9.03752">
        <ele>2205.4</ele>
        <time>2015-09-10T09:52:18Z</time>
      </trkpt>
      <trkpt lat="42.20671" lon="9.03753">
        <ele>2205.4</ele>
        <time>2015-09-10T09:52:50Z</time>
      </trkpt>
      <trkpt lat="42.20672" lon="9.03759">
        <ele>2205.4</ele>
        <time>2015-09-10T09:53:11Z</time>
      </trkpt>
      <trkpt lat="42.20673" lon="9.03762">
        <ele>2205.4</ele>
        <time>2015-09-10T09:53:25Z</time>
      </trkpt>
      <trkpt lat="42.20673" lon="9.03772">
        <ele>2203.48</ele>
        <time>2015-09-10T09:53:36Z</time>
      </trkpt>
      <trkpt lat="42.20672" lon="9.0379">
        <ele>2202.52</ele>
        <time>2015-09-10T09:53:53Z</time>
      </trkpt>
      <trkpt lat="42.20669" lon="9.03793">
        <ele>2201.08</ele>
        <time>2015-09-10T09:54:10Z</time>
      </trkpt>
      <trkpt lat="42.20665" lon="9.03803">
        <ele>2198.19</ele>
        <time>2015-09-10T09:54:27Z</time>
      </trkpt>
      <trkpt lat="42.20663" lon="9.03811">
        <ele>2197.23</ele>
        <time>2015-09-10T09:54:43Z</time>
      </trkpt>
      <trkpt lat="42.2066" lon="9.03822">
        <ele>2194.83</ele>
        <time>2015-09-10T09:55:00Z</time>
      </trkpt>
      <trkpt lat="42.20661" lon="9.03828">
        <ele>2193.87</ele>
        <time>2015-09-10T09:55:17Z</time>
      </trkpt>
      <trkpt lat="42.20658" lon="9.03827">
        <ele>2192.42</ele>
        <time>2015-09-10T09:55:36Z</time>
      </trkpt>
      <trkpt lat="42.20656" lon="9.03835">
        <ele>2190.98</ele>
        <time>2015-09-10T09:55:57Z</time>
      </trkpt>
      <trkpt lat="42.20653" lon="9.03831">
        <ele>2188.58</ele>
        <time>2015-09-10T09:56:15Z</time>
      </trkpt>
      <trkpt lat="42.20653" lon="9.03847">
        <ele>2187.14</ele>
        <time>2015-09-10T09:56:31Z</time>
      </trkpt>
      <trkpt lat="42.20647" lon="9.0385">
        <ele>2184.73</ele>
        <time>2015-09-10T09:56:49Z</time>
      </trkpt>
      <trkpt lat="42.20643" lon="9.03856">
        <ele>2182.33</ele>
        <time>2015-09-10T09:57:05Z</time>
      </trkpt>
      <trkpt lat="42.20641" lon="9.03863">
        <ele>2179.93</ele>
        <time>2015-09-10T09:57:21Z</time>
      </trkpt>
      <trkpt lat="42.20639" lon="9.03876">
        <ele>2179.45</ele>
        <time>2015-09-10T09:57:37Z</time>
      </trkpt>
      <trkpt lat="42.20632" lon="9.03883">
        <ele>2177.52</ele>
        <time>2015-09-10T09:57:56Z</time>
      </trkpt>
      <trkpt lat="42.20627" lon="9.03887">
        <ele>2177.52</ele>
        <time>2015-09-10T09:58:03Z</time>
      </trkpt>
      <trkpt lat="42.20618" lon="9.03898">
        <ele>2175.6</ele>
        <time>2015-09-10T09:58:19Z</time>
      </trkpt>
      <trkpt lat="42.20616" lon="9.039">
        <ele>2175.6</ele>
        <time>2015-09-10T09:58:22Z</time>
      </trkpt>
      <trkpt lat="42.206" lon="9.03908">
        <ele>2172.24</ele>
        <time>2015-09-10T09:58:41Z</time>
      </trkpt>
      <trkpt lat="42.2059" lon="9.03917">
        <ele>2170.31</ele>
        <time>2015-09-10T09:59:00Z</time>
      </trkpt>
      <trkpt lat="42.20585" lon="9.03923">
        <ele>2168.39</ele>
        <time>2015-09-10T09:59:18Z</time>
      </trkpt>
      <trkpt lat="42.20581" lon="9.03935">
        <ele>2168.39</ele>
        <time>2015-09-10T09:59:33Z</time>
      </trkpt>
      <trkpt lat="42.20576" lon="9.03947">
        <ele>2168.39</ele>
        <time>2015-09-10T09:59:47Z</time>
      </trkpt>
      <trkpt lat="42.20567" lon="9.03955">
        <ele>2169.35</ele>
        <time>2015-09-10T10:00:04Z</time>
      </trkpt>
      <trkpt lat="42.20566" lon="9.03965">
        <ele>2169.35</ele>
        <time>2015-09-10T10:00:19Z</time>
      </trkpt>
      <trkpt lat="42.20561" lon="9.03972">
        <ele>2169.35</ele>
        <time>2015-09-10T10:00:35Z</time>
      </trkpt>
      <trkpt lat="42.2056" lon="9.03974">
        <ele>2167.91</ele>
        <time>2015-09-10T10:00:37Z</time>
      </trkpt>
      <trkpt lat="42.20556" lon="9.03985">
        <ele>2165.03</ele>
        <time>2015-09-10T10:00:54Z</time>
      </trkpt>
      <trkpt lat="42.20553" lon="9.03998">
        <ele>2164.55</ele>
        <time>2015-09-10T10:01:09Z</time>
      </trkpt>
      <trkpt lat="42.20546" lon="9.04007">
        <ele>2163.58</ele>
        <time>2015-09-10T10:01:24Z</time>
      </trkpt>
      <trkpt lat="42.20535" lon="9.04022">
        <ele>2160.22</ele>
        <time>2015-09-10T10:01:43Z</time>
      </trkpt>
      <trkpt lat="42.20527" lon="9.04036">
        <ele>2158.3</ele>
        <time>2015-09-10T10:02:02Z</time>
      </trkpt>
      <trkpt lat="42.20522" lon="9.04047">
        <ele>2157.34</ele>
        <time>2015-09-10T10:02:17Z</time>
      </trkpt>
      <trkpt lat="42.20515" lon="9.04048">
        <ele>2155.41</ele>
        <time>2015-09-10T10:02:34Z</time>
      </trkpt>
      <trkpt lat="42.20509" lon="9.04057">
        <ele>2152.05</ele>
        <time>2015-09-10T10:02:48Z</time>
      </trkpt>
      <trkpt lat="42.20502" lon="9.04067">
        <ele>2150.13</ele>
        <time>2015-09-10T10:03:04Z</time>
      </trkpt>
      <trkpt lat="42.20497" lon="9.04079">
        <ele>2149.16</ele>
        <time>2015-09-10T10:03:13Z</time>
      </trkpt>
      <trkpt lat="42.20491" lon="9.04089">
        <ele>2150.13</ele>
        <time>2015-09-10T10:03:31Z</time>
      </trkpt>
      <trkpt lat="42.2048" lon="9.04092">
        <ele>2149.16</ele>
        <time>2015-09-10T10:03:47Z</time>
      </trkpt>
      <trkpt lat="42.20476" lon="9.04103">
        <ele>2147.72</ele>
        <time>2015-09-10T10:04:02Z</time>
      </trkpt>
      <trkpt lat="42.20473" lon="9.04117">
        <ele>2146.28</ele>
        <time>2015-09-10T10:04:17Z</time>
      </trkpt>
      <trkpt lat="42.20464" lon="9.04133">
        <ele>2144.36</ele>
        <time>2015-09-10T10:04:35Z</time>
      </trkpt>
      <trkpt lat="42.2046" lon="9.04153">
        <ele>2141.95</ele>
        <time>2015-09-10T10:04:53Z</time>
      </trkpt>
      <trkpt lat="42.20458" lon="9.04166">
        <ele>2140.51</ele>
        <time>2015-09-10T10:05:08Z</time>
      </trkpt>
      <trkpt lat="42.20451" lon="9.04179">
        <ele>2139.55</ele>
        <time>2015-09-10T10:05:24Z</time>
      </trkpt>
      <trkpt lat="42.20448" lon="9.04185">
        <ele>2138.11</ele>
        <time>2015-09-10T10:05:32Z</time>
      </trkpt>
      <trkpt lat="42.20446" lon="9.04204">
        <ele>2138.11</ele>
        <time>2015-09-10T10:05:52Z</time>
      </trkpt>
      <trkpt lat="42.20443" lon="9.04216">
        <ele>2138.11</ele>
        <time>2015-09-10T10:06:08Z</time>
      </trkpt>
      <trkpt lat="42.20437" lon="9.04227">
        <ele>2136.67</ele>
        <time>2015-09-10T10:06:26Z</time>
      </trkpt>
      <trkpt lat="42.20432" lon="9.04241">
        <ele>2135.71</ele>
        <time>2015-09-10T10:06:42Z</time>
      </trkpt>
      <trkpt lat="42.20422" lon="9.04254">
        <ele>2132.82</ele>
        <time>2015-09-10T10:07:00Z</time>
      </trkpt>
      <trkpt lat="42.20416" lon="9.04263">
        <ele>2131.38</ele>
        <time>2015-09-10T10:07:12Z</time>
      </trkpt>
      <trkpt lat="42.20416" lon="9.04267">
        <ele>2130.9</ele>
        <time>2015-09-10T10:07:15Z</time>
      </trkpt>
      <trkpt lat="42.20408" lon="9.04278">
        <ele>2128.98</ele>
        <time>2015-09-10T10:07:32Z</time>
      </trkpt>
      <trkpt lat="42.20402" lon="9.04283">
        <ele>2126.09</ele>
        <time>2015-09-10T10:07:49Z</time>
      </trkpt>
      <trkpt lat="42.204" lon="9.04293">
        <ele>2124.17</ele>
        <time>2015-09-10T10:08:04Z</time>
      </trkpt>
      <trkpt lat="42.20394" lon="9.04306">
        <ele>2123.21</ele>
        <time>2015-09-10T10:08:22Z</time>
      </trkpt>
      <trkpt lat="42.20381" lon="9.04314">
        <ele>2119.84</ele>
        <time>2015-09-10T10:08:42Z</time>
      </trkpt>
      <trkpt lat="42.20372" lon="9.04315">
        <ele>2117.44</ele>
        <time>2015-09-10T10:08:58Z</time>
      </trkpt>
      <trkpt lat="42.20369" lon="9.04324">
        <ele>2115.04</ele>
        <time>2015-09-10T10:09:12Z</time>
      </trkpt>
      <trkpt lat="42.20363" lon="9.04325">
        <ele>2111.67</ele>
        <time>2015-09-10T10:09:29Z</time>
      </trkpt>
      <trkpt lat="42.2036" lon="9.04337">
        <ele>2110.23</ele>
        <time>2015-09-10T10:09:45Z</time>
      </trkpt>
      <trkpt lat="42.20354" lon="9.04346">
        <ele>2109.75</ele>
        <time>2015-09-10T10:09:59Z</time>
      </trkpt>
      <trkpt lat="42.20345" lon="9.04351">
        <ele>2109.75</ele>
        <time>2015-09-10T10:10:13Z</time>
      </trkpt>
      <trkpt lat="42.20332" lon="9.04357">
        <ele>2107.83</ele>
        <time>2015-09-10T10:10:30Z</time>
      </trkpt>
      <trkpt lat="42.20324" lon="9.04366">
        <ele>2105.91</ele>
        <time>2015-09-10T10:10:46Z</time>
      </trkpt>
      <trkpt lat="42.20319" lon="9.04376">
        <ele>2105.42</ele>
        <time>2015-09-10T10:11:00Z</time>
      </trkpt>
      <trkpt lat="42.20318" lon="9.04379">
        <ele>2104.46</ele>
        <time>2015-09-10T10:11:06Z</time>
      </trkpt>
      <trkpt lat="42.20311" lon="9.0439">
        <ele>2103.98</ele>
        <time>2015-09-10T10:11:23Z</time>
      </trkpt>
      <trkpt lat="42.20302" lon="9.044">
        <ele>2100.62</ele>
        <time>2015-09-10T10:11:40Z</time>
      </trkpt>
      <trkpt lat="42.20301" lon="9.04401">
        <ele>2100.14</ele>
        <time>2015-09-10T10:11:42Z</time>
      </trkpt>
      <trkpt lat="42.20289" lon="9.04406">
        <ele>2096.77</ele>
        <time>2015-09-10T10:12:00Z</time>
      </trkpt>
      <trkpt lat="42.2028" lon="9.04413">
        <ele>2093.89</ele>
        <time>2015-09-10T10:12:16Z</time>
      </trkpt>
      <trkpt lat="42.20273" lon="9.04417">
        <ele>2092.45</ele>
        <time>2015-09-10T10:12:33Z</time>
      </trkpt>
      <trkpt lat="42.20267" lon="9.04414">
        <ele>2089.56</ele>
        <time>2015-09-10T10:12:45Z</time>
      </trkpt>
      <trkpt lat="42.20263" lon="9.04418">
        <ele>2086.68</ele>
        <time>2015-09-10T10:13:00Z</time>
      </trkpt>
      <trkpt lat="42.20256" lon="9.04424">
        <ele>2084.28</ele>
        <time>2015-09-10T10:13:18Z</time>
      </trkpt>
      <trkpt lat="42.20249" lon="9.04427">
        <ele>2085.72</ele>
        <time>2015-09-10T10:13:33Z</time>
      </trkpt>
      <trkpt lat="42.20243" lon="9.04429">
        <ele>2084.28</ele>
        <time>2015-09-10T10:13:49Z</time>
      </trkpt>
      <trkpt lat="42.20233" lon="9.04436">
        <ele>2084.28</ele>
        <time>2015-09-10T10:14:06Z</time>
      </trkpt>
      <trkpt lat="42.20231" lon="9.04438">
        <ele>2085.72</ele>
        <time>2015-09-10T10:14:11Z</time>
      </trkpt>
      <trkpt lat="42.20225" lon="9.04441">
        <ele>2087.16</ele>
        <time>2015-09-10T10:14:23Z</time>
      </trkpt>
      <trkpt lat="42.20215" lon="9.04447">
        <ele>2087.64</ele>
        <time>2015-09-10T10:14:39Z</time>
      </trkpt>
      <trkpt lat="42.20206" lon="9.04455">
        <ele>2088.12</ele>
        <time>2015-09-10T10:14:52Z</time>
      </trkpt>
      <trkpt lat="42.20194" lon="9.04465">
        <ele>2088.12</ele>
        <time>2015-09-10T10:15:09Z</time>
      </trkpt>
      <trkpt lat="42.20182" lon="9.04472">
        <ele>2088.12</ele>
        <time>2015-09-10T10:15:25Z</time>
      </trkpt>
      <trkpt lat="42.20171" lon="9.04476">
        <ele>2088.12</ele>
        <time>2015-09-10T10:15:41Z</time>
      </trkpt>
      <trkpt lat="42.20167" lon="9.04483">
        <ele>2088.12</ele>
        <time>2015-09-10T10:15:49Z</time>
      </trkpt>
      <trkpt lat="42.20163" lon="9.04485">
        <ele>2087.16</ele>
        <time>2015-09-10T10:15:53Z</time>
      </trkpt>
      <trkpt lat="42.20151" lon="9.04495">
        <ele>2086.68</ele>
        <time>2015-09-10T10:16:10Z</time>
      </trkpt>
      <trkpt lat="42.20143" lon="9.045">
        <ele>2084.28</ele>
        <time>2015-09-10T10:16:22Z</time>
      </trkpt>
      <trkpt lat="42.20132" lon="9.04511">
        <ele>2083.31</ele>
        <time>2015-09-10T10:16:39Z</time>
      </trkpt>
      <trkpt lat="42.2012" lon="9.04519">
        <ele>2079.95</ele>
        <time>2015-09-10T10:16:57Z</time>
      </trkpt>
      <trkpt lat="42.20106" lon="9.04531">
        <ele>2076.1</ele>
        <time>2015-09-10T10:17:17Z</time>
      </trkpt>
      <trkpt lat="42.20096" lon="9.04543">
        <ele>2074.18</ele>
        <time>2015-09-10T10:17:30Z</time>
      </trkpt>
      <trkpt lat="42.20084" lon="9.04556">
        <ele>2072.74</ele>
        <time>2015-09-10T10:17:48Z</time>
      </trkpt>
      <trkpt lat="42.20076" lon="9.04564">
        <ele>2069.86</ele>
        <time>2015-09-10T10:18:01Z</time>
      </trkpt>
      <trkpt lat="42.20074" lon="9.04564">
        <ele>2068.89</ele>
        <time>2015-09-10T10:18:04Z</time>
      </trkpt>
      <trkpt lat="42.20066" lon="9.04569">
        <ele>2065.53</ele>
        <time>2015-09-10T10:18:20Z</time>
      </trkpt>
      <trkpt lat="42.20058" lon="9.04569">
        <ele>2062.17</ele>
        <time>2015-09-10T10:18:34Z</time>
      </trkpt>
      <trkpt lat="42.20055" lon="9.0457">
        <ele>2060.24</ele>
        <time>2015-09-10T10:18:50Z</time>
      </trkpt>
      <trkpt lat="42.20049" lon="9.04571">
        <ele>2058.32</ele>
        <time>2015-09-10T10:19:07Z</time>
      </trkpt>
      <trkpt lat="42.2004" lon="9.04582">
        <ele>2055.92</ele>
        <time>2015-09-10T10:19:22Z</time>
      </trkpt>
      <trkpt lat="42.20033" lon="9.04597">
        <ele>2053.51</ele>
        <time>2015-09-10T10:19:39Z</time>
      </trkpt>
      <trkpt lat="42.20025" lon="9.04605">
        <ele>2051.59</ele>
        <time>2015-09-10T10:19:56Z</time>
      </trkpt>
      <trkpt lat="42.20022" lon="9.04609">
        <ele>2051.11</ele>
        <time>2015-09-10T10:20:02Z</time>
      </trkpt>
      <trkpt lat="42.20012" lon="9.0462">
        <ele>2047.26</ele>
        <time>2015-09-10T10:20:19Z</time>
      </trkpt>
      <trkpt lat="42.20002" lon="9.04633">
        <ele>2045.34</ele>
        <time>2015-09-10T10:20:38Z</time>
      </trkpt>
      <trkpt lat="42.20001" lon="9.04639">
        <ele>2044.86</ele>
        <time>2015-09-10T10:20:54Z</time>
      </trkpt>
      <trkpt lat="42.19999" lon="9.04646">
        <ele>2045.82</ele>
        <time>2015-09-10T10:21:08Z</time>
      </trkpt>
      <trkpt lat="42.19999" lon="9.04654">
        <ele>2047.75</ele>
        <time>2015-09-10T10:21:21Z</time>
      </trkpt>
      <trkpt lat="42.19997" lon="9.04667">
        <ele>2048.71</ele>
        <time>2015-09-10T10:21:37Z</time>
      </trkpt>
      <trkpt lat="42.19997" lon="9.04673">
        <ele>2047.75</ele>
        <time>2015-09-10T10:21:48Z</time>
      </trkpt>
      <trkpt lat="42.19998" lon="9.04673">
        <ele>2047.26</ele>
        <time>2015-09-10T10:22:13Z</time>
      </trkpt>
      <trkpt lat="42.2" lon="9.04672">
        <ele>2047.26</ele>
        <time>2015-09-10T10:22:33Z</time>
      </trkpt>
      <trkpt lat="42.19999" lon="9.04671">
        <ele>2047.26</ele>
        <time>2015-09-10T10:22:57Z</time>
      </trkpt>
      <trkpt lat="42.19999" lon="9.04672">
        <ele>2047.26</ele>
        <time>2015-09-10T10:23:32Z</time>
      </trkpt>
      <trkpt lat="42.19998" lon="9.04672">
        <ele>2047.26</ele>
        <time>2015-09-10T10:24:07Z</time>
      </trkpt>
      <trkpt lat="42.19998" lon="9.04673">
        <ele>2047.75</ele>
        <time>2015-09-10T10:24:22Z</time>
      </trkpt>
      <trkpt lat="42.19999" lon="9.0467">
        <ele>2047.75</ele>
        <time>2015-09-10T10:24:40Z</time>
      </trkpt>
      <trkpt lat="42.20001" lon="9.04674">
        <ele>2047.26</ele>
        <time>2015-09-10T10:25:01Z</time>
      </trkpt>
      <trkpt lat="42.20001" lon="9.04682">
        <ele>2044.38</ele>
        <time>2015-09-10T10:25:17Z</time>
      </trkpt>
      <trkpt lat="42.20004" lon="9.04687">
        <ele>2041.5</ele>
        <time>2015-09-10T10:25:27Z</time>
      </trkpt>
      <trkpt lat="42.20008" lon="9.04692">
        <ele>2040.05</ele>
        <time>2015-09-10T10:25:42Z</time>
      </trkpt>
      <trkpt lat="42.20003" lon="9.04696">
        <ele>2037.17</ele>
        <time>2015-09-10T10:25:57Z</time>
      </trkpt>
      <trkpt lat="42.19999" lon="9.04697">
        <ele>2034.29</ele>
        <time>2015-09-10T10:26:11Z</time>
      </trkpt>
      <trkpt lat="42.19996" lon="9.04698">
        <ele>2032.36</ele>
        <time>2015-09-10T10:26:19Z</time>
      </trkpt>
      <trkpt lat="42.19991" lon="9.04701">
        <ele>2029</ele>
        <time>2015-09-10T10:26:34Z</time>
      </trkpt>
      <trkpt lat="42.19985" lon="9.04702">
        <ele>2027.08</ele>
        <time>2015-09-10T10:26:48Z</time>
      </trkpt>
      <trkpt lat="42.19982" lon="9.04704">
        <ele>2023.71</ele>
        <time>2015-09-10T10:27:00Z</time>
      </trkpt>
      <trkpt lat="42.19978" lon="9.04708">
        <ele>2021.79</ele>
        <time>2015-09-10T10:27:14Z</time>
      </trkpt>
      <trkpt lat="42.19971" lon="9.0471">
        <ele>2018.91</ele>
        <time>2015-09-10T10:27:29Z</time>
      </trkpt>
      <trkpt lat="42.19968" lon="9.04713">
        <ele>2016.02</ele>
        <time>2015-09-10T10:27:40Z</time>
      </trkpt>
      <trkpt lat="42.19968" lon="9.04716">
        <ele>2014.1</ele>
        <time>2015-09-10T10:27:53Z</time>
      </trkpt>
      <trkpt lat="42.19963" lon="9.04718">
        <ele>2012.18</ele>
        <time>2015-09-10T10:28:09Z</time>
      </trkpt>
      <trkpt lat="42.19955" lon="9.04721">
        <ele>2008.81</ele>
        <time>2015-09-10T10:28:23Z</time>
      </trkpt>
      <trkpt lat="42.19953" lon="9.04721">
        <ele>2007.85</ele>
        <time>2015-09-10T10:28:25Z</time>
      </trkpt>
      <trkpt lat="42.19948" lon="9.04725">
        <ele>2004.97</ele>
        <time>2015-09-10T10:28:39Z</time>
      </trkpt>
      <trkpt lat="42.19944" lon="9.04728">
        <ele>2001.6</ele>
        <time>2015-09-10T10:28:51Z</time>
      </trkpt>
      <trkpt lat="42.19942" lon="9.04732">
        <ele>2000.16</ele>
        <time>2015-09-10T10:29:05Z</time>
      </trkpt>
      <trkpt lat="42.19937" lon="9.04732">
        <ele>1997.76</ele>
        <time>2015-09-10T10:29:21Z</time>
      </trkpt>
      <trkpt lat="42.19933" lon="9.04735">
        <ele>1995.83</ele>
        <time>2015-09-10T10:29:35Z</time>
      </trkpt>
      <trkpt lat="42.19931" lon="9.04733">
        <ele>1993.43</ele>
        <time>2015-09-10T10:29:48Z</time>
      </trkpt>
      <trkpt lat="42.19926" lon="9.04735">
        <ele>1992.47</ele>
        <time>2015-09-10T10:30:02Z</time>
      </trkpt>
      <trkpt lat="42.19923" lon="9.04739">
        <ele>1989.1</ele>
        <time>2015-09-10T10:30:08Z</time>
      </trkpt>
      <trkpt lat="42.19926" lon="9.04754">
        <ele>1985.74</ele>
        <time>2015-09-10T10:30:23Z</time>
      </trkpt>
      <trkpt lat="42.1993" lon="9.04767">
        <ele>1982.86</ele>
        <time>2015-09-10T10:30:39Z</time>
      </trkpt>
      <trkpt lat="42.19925" lon="9.04773">
        <ele>1980.45</ele>
        <time>2015-09-10T10:30:52Z</time>
      </trkpt>
      <trkpt lat="42.19919" lon="9.04777">
        <ele>1976.61</ele>
        <time>2015-09-10T10:31:07Z</time>
      </trkpt>
      <trkpt lat="42.19919" lon="9.04779">
        <ele>1975.65</ele>
        <time>2015-09-10T10:31:09Z</time>
      </trkpt>
      <trkpt lat="42.19921" lon="9.04795">
        <ele>1972.28</ele>
        <time>2015-09-10T10:31:26Z</time>
      </trkpt>
      <trkpt lat="42.19922" lon="9.04809">
        <ele>1969.88</ele>
        <time>2015-09-10T10:31:41Z</time>
      </trkpt>
      <trkpt lat="42.19922" lon="9.04817">
        <ele>1967.96</ele>
        <time>2015-09-10T10:31:56Z</time>
      </trkpt>
      <trkpt lat="42.19922" lon="9.04825">
        <ele>1965.07</ele>
        <time>2015-09-10T10:32:09Z</time>
      </trkpt>
      <trkpt lat="42.19916" lon="9.04828">
        <ele>1962.67</ele>
        <time>2015-09-10T10:32:22Z</time>
      </trkpt>
      <trkpt lat="42.19909" lon="9.04824">
        <ele>1960.75</ele>
        <time>2015-09-10T10:32:36Z</time>
      </trkpt>
      <trkpt lat="42.19905" lon="9.04823">
        <ele>1958.82</ele>
        <time>2015-09-10T10:32:53Z</time>
      </trkpt>
      <trkpt lat="42.19903" lon="9.04832">
        <ele>1955.94</ele>
        <time>2015-09-10T10:33:09Z</time>
      </trkpt>
      <trkpt lat="42.19897" lon="9.04831">
        <ele>1954.02</ele>
        <time>2015-09-10T10:33:24Z</time>
      </trkpt>
      <trkpt lat="42.19892" lon="9.04835">
        <ele>1950.65</ele>
        <time>2015-09-10T10:33:37Z</time>
      </trkpt>
      <trkpt lat="42.19889" lon="9.04846">
        <ele>1947.77</ele>
        <time>2015-09-10T10:33:51Z</time>
      </trkpt>
      <trkpt lat="42.19889" lon="9.04848">
        <ele>1947.77</ele>
        <time>2015-09-10T10:33:53Z</time>
      </trkpt>
      <trkpt lat="42.19896" lon="9.0486">
        <ele>1946.81</ele>
        <time>2015-09-10T10:34:08Z</time>
      </trkpt>
      <trkpt lat="42.199" lon="9.0487">
        <ele>1945.85</ele>
        <time>2015-09-10T10:34:21Z</time>
      </trkpt>
      <trkpt lat="42.19902" lon="9.04872">
        <ele>1945.85</ele>
        <time>2015-09-10T10:34:24Z</time>
      </trkpt>
      <trkpt lat="42.19905" lon="9.04883">
        <ele>1943.92</ele>
        <time>2015-09-10T10:34:39Z</time>
      </trkpt>
      <trkpt lat="42.19902" lon="9.04889">
        <ele>1942</ele>
        <time>2015-09-10T10:34:53Z</time>
      </trkpt>
      <trkpt lat="42.19901" lon="9.04899">
        <ele>1939.12</ele>
        <time>2015-09-10T10:35:08Z</time>
      </trkpt>
      <trkpt lat="42.19901" lon="9.0491">
        <ele>1936.71</ele>
        <time>2015-09-10T10:35:22Z</time>
      </trkpt>
      <trkpt lat="42.19897" lon="9.04916">
        <ele>1934.79</ele>
        <time>2015-09-10T10:35:36Z</time>
      </trkpt>
      <trkpt lat="42.19896" lon="9.04922">
        <ele>1931.91</ele>
        <time>2015-09-10T10:35:47Z</time>
      </trkpt>
      <trkpt lat="42.19893" lon="9.04931">
        <ele>1928.54</ele>
        <time>2015-09-10T10:36:05Z</time>
      </trkpt>
      <trkpt lat="42.19895" lon="9.04939">
        <ele>1925.66</ele>
        <time>2015-09-10T10:36:18Z</time>
      </trkpt>
      <trkpt lat="42.19892" lon="9.04947">
        <ele>1923.74</ele>
        <time>2015-09-10T10:36:32Z</time>
      </trkpt>
      <trkpt lat="42.19894" lon="9.0495">
        <ele>1921.33</ele>
        <time>2015-09-10T10:36:44Z</time>
      </trkpt>
      <trkpt lat="42.19891" lon="9.04955">
        <ele>1918.45</ele>
        <time>2015-09-10T10:36:59Z</time>
      </trkpt>
      <trkpt lat="42.19893" lon="9.04963">
        <ele>1916.04</ele>
        <time>2015-09-10T10:37:14Z</time>
      </trkpt>
      <trkpt lat="42.19894" lon="9.04966">
        <ele>1914.6</ele>
        <time>2015-09-10T10:37:23Z</time>
      </trkpt>
      <trkpt lat="42.19893" lon="9.04975">
        <ele>1911.72</ele>
        <time>2015-09-10T10:37:37Z</time>
      </trkpt>
      <trkpt lat="42.19893" lon="9.04984">
        <ele>1909.8</ele>
        <time>2015-09-10T10:37:50Z</time>
      </trkpt>
      <trkpt lat="42.19891" lon="9.04992">
        <ele>1906.43</ele>
        <time>2015-09-10T10:38:04Z</time>
      </trkpt>
      <trkpt lat="42.19888" lon="9.04997">
        <ele>1904.51</ele>
        <time>2015-09-10T10:38:19Z</time>
      </trkpt>
      <trkpt lat="42.1988" lon="9.05001">
        <ele>1902.11</ele>
        <time>2015-09-10T10:38:37Z</time>
      </trkpt>
      <trkpt lat="42.1988" lon="9.05003">
        <ele>1900.18</ele>
        <time>2015-09-10T10:38:50Z</time>
      </trkpt>
      <trkpt lat="42.19881" lon="9.05013">
        <ele>1897.78</ele>
        <time>2015-09-10T10:39:05Z</time>
      </trkpt>
      <trkpt lat="42.19881" lon="9.05021">
        <ele>1894.9</ele>
        <time>2015-09-10T10:39:18Z</time>
      </trkpt>
      <trkpt lat="42.19877" lon="9.05019">
        <ele>1893.93</ele>
        <time>2015-09-10T10:39:32Z</time>
      </trkpt>
      <trkpt lat="42.19871" lon="9.05021">
        <ele>1891.53</ele>
        <time>2015-09-10T10:39:47Z</time>
      </trkpt>
      <trkpt lat="42.19868" lon="9.05029">
        <ele>1888.65</ele>
        <time>2015-09-10T10:40:04Z</time>
      </trkpt>
      <trkpt lat="42.19868" lon="9.05035">
        <ele>1887.21</ele>
        <time>2015-09-10T10:40:19Z</time>
      </trkpt>
      <trkpt lat="42.19874" lon="9.05041">
        <ele>1886.72</ele>
        <time>2015-09-10T10:40:33Z</time>
      </trkpt>
      <trkpt lat="42.19875" lon="9.05048">
        <ele>1886.72</ele>
        <time>2015-09-10T10:40:41Z</time>
      </trkpt>
      <trkpt lat="42.19875" lon="9.05063">
        <ele>1884.32</ele>
        <time>2015-09-10T10:40:56Z</time>
      </trkpt>
      <trkpt lat="42.19874" lon="9.05075">
        <ele>1881.92</ele>
        <time>2015-09-10T10:41:10Z</time>
      </trkpt>
      <trkpt lat="42.19872" lon="9.05084">
        <ele>1880</ele>
        <time>2015-09-10T10:41:19Z</time>
      </trkpt>
      <trkpt lat="42.19867" lon="9.05092">
        <ele>1878.07</ele>
        <time>2015-09-10T10:41:33Z</time>
      </trkpt>
      <trkpt lat="42.19866" lon="9.05104">
        <ele>1875.67</ele>
        <time>2015-09-10T10:41:49Z</time>
      </trkpt>
      <trkpt lat="42.19862" lon="9.05109">
        <ele>1873.75</ele>
        <time>2015-09-10T10:42:03Z</time>
      </trkpt>
      <trkpt lat="42.19858" lon="9.05114">
        <ele>1871.34</ele>
        <time>2015-09-10T10:42:18Z</time>
      </trkpt>
      <trkpt lat="42.19856" lon="9.05126">
        <ele>1869.42</ele>
        <time>2015-09-10T10:42:32Z</time>
      </trkpt>
      <trkpt lat="42.19851" lon="9.05133">
        <ele>1867.02</ele>
        <time>2015-09-10T10:42:47Z</time>
      </trkpt>
      <trkpt lat="42.1985" lon="9.05137">
        <ele>1864.61</ele>
        <time>2015-09-10T10:43:02Z</time>
      </trkpt>
      <trkpt lat="42.19844" lon="9.05137">
        <ele>1863.17</ele>
        <time>2015-09-10T10:43:17Z</time>
      </trkpt>
      <trkpt lat="42.19837" lon="9.05136">
        <ele>1861.73</ele>
        <time>2015-09-10T10:43:30Z</time>
      </trkpt>
      <trkpt lat="42.1983" lon="9.05136">
        <ele>1858.37</ele>
        <time>2015-09-10T10:43:46Z</time>
      </trkpt>
      <trkpt lat="42.19826" lon="9.05139">
        <ele>1856.44</ele>
        <time>2015-09-10T10:44:02Z</time>
      </trkpt>
      <trkpt lat="42.19821" lon="9.05142">
        <ele>1854.04</ele>
        <time>2015-09-10T10:44:18Z</time>
      </trkpt>
      <trkpt lat="42.19815" lon="9.05147">
        <ele>1852.12</ele>
        <time>2015-09-10T10:44:30Z</time>
      </trkpt>
      <trkpt lat="42.19811" lon="9.05152">
        <ele>1850.68</ele>
        <time>2015-09-10T10:44:36Z</time>
      </trkpt>
      <trkpt lat="42.19814" lon="9.05171">
        <ele>1849.23</ele>
        <time>2015-09-10T10:44:53Z</time>
      </trkpt>
      <trkpt lat="42.19814" lon="9.05175">
        <ele>1849.23</ele>
        <time>2015-09-10T10:44:57Z</time>
      </trkpt>
      <trkpt lat="42.19814" lon="9.05195">
        <ele>1847.79</ele>
        <time>2015-09-10T10:45:13Z</time>
      </trkpt>
      <trkpt lat="42.19812" lon="9.05209">
        <ele>1846.83</ele>
        <time>2015-09-10T10:45:30Z</time>
      </trkpt>
      <trkpt lat="42.1981" lon="9.05212">
        <ele>1846.83</ele>
        <time>2015-09-10T10:45:48Z</time>
      </trkpt>
      <trkpt lat="42.19811" lon="9.0521">
        <ele>1846.35</ele>
        <time>2015-09-10T10:46:04Z</time>
      </trkpt>
      <trkpt lat="42.19812" lon="9.05208">
        <ele>1846.35</ele>
        <time>2015-09-10T10:46:21Z</time>
      </trkpt>
      <trkpt lat="42.19811" lon="9.05205">
        <ele>1846.35</ele>
        <time>2015-09-10T10:46:42Z</time>
      </trkpt>
      <trkpt lat="42.1981" lon="9.05205">
        <ele>1846.35</ele>
        <time>2015-09-10T10:46:57Z</time>
      </trkpt>
      <trkpt lat="42.19806" lon="9.05205">
        <ele>1846.35</ele>
        <time>2015-09-10T10:47:14Z</time>
      </trkpt>
      <trkpt lat="42.19806" lon="9.05202">
        <ele>1846.35</ele>
        <time>2015-09-10T10:47:44Z</time>
      </trkpt>
      <trkpt lat="42.19805" lon="9.05204">
        <ele>1846.35</ele>
        <time>2015-09-10T10:48:29Z</time>
      </trkpt>
      <trkpt lat="42.1981" lon="9.0521">
        <ele>1846.35</ele>
        <time>2015-09-10T10:48:45Z</time>
      </trkpt>
      <trkpt lat="42.19812" lon="9.05216">
        <ele>1846.35</ele>
        <time>2015-09-10T10:48:51Z</time>
      </trkpt>
      <trkpt lat="42.19812" lon="9.05218">
        <ele>1846.35</ele>
        <time>2015-09-10T10:48:54Z</time>
      </trkpt>
      <trkpt lat="42.19815" lon="9.05234">
        <ele>1846.35</ele>
        <time>2015-09-10T10:49:10Z</time>
      </trkpt>
      <trkpt lat="42.19813" lon="9.05239">
        <ele>1845.87</ele>
        <time>2015-09-10T10:49:25Z</time>
      </trkpt>
      <trkpt lat="42.19819" lon="9.05235">
        <ele>1845.87</ele>
        <time>2015-09-10T10:49:47Z</time>
      </trkpt>
      <trkpt lat="42.19824" lon="9.05239">
        <ele>1846.83</ele>
        <time>2015-09-10T10:50:08Z</time>
      </trkpt>
      <trkpt lat="42.19824" lon="9.0524">
        <ele>1846.83</ele>
        <time>2015-09-10T10:50:22Z</time>
      </trkpt>
      <trkpt lat="42.19824" lon="9.0524">
        <ele>1846.83</ele>
        <time>2015-09-10T10:50:49Z</time>
      </trkpt>
      <trkpt lat="42.19824" lon="9.0524">
        <ele>1846.83</ele>
        <time>2015-09-10T10:51:20Z</time>
      </trkpt>
      <trkpt lat="42.19822" lon="9.05239">
        <ele>1846.83</ele>
        <time>2015-09-10T10:52:05Z</time>
      </trkpt>
      <trkpt lat="42.19821" lon="9.05241">
        <ele>1846.83</ele>
        <time>2015-09-10T10:52:47Z</time>
      </trkpt>
      <trkpt lat="42.19823" lon="9.05238">
        <ele>1847.79</ele>
        <time>2015-09-10T10:53:15Z</time>
      </trkpt>
      <trkpt lat="42.19823" lon="9.05235">
        <ele>1847.79</ele>
        <time>2015-09-10T10:53:37Z</time>
      </trkpt>
      <trkpt lat="42.19822" lon="9.05234">
        <ele>1847.79</ele>
        <time>2015-09-10T10:54:07Z</time>
      </trkpt>
      <trkpt lat="42.19824" lon="9.05241">
        <ele>1847.79</ele>
        <time>2015-09-10T10:54:27Z</time>
      </trkpt>
      <trkpt lat="42.19825" lon="9.0524">
        <ele>1847.79</ele>
        <time>2015-09-10T10:54:54Z</time>
      </trkpt>
      <trkpt lat="42.19824" lon="9.05237">
        <ele>1847.31</ele>
        <time>2015-09-10T10:55:25Z</time>
      </trkpt>
      <trkpt lat="42.19821" lon="9.05235">
        <ele>1847.79</ele>
        <time>2015-09-10T10:55:52Z</time>
      </trkpt>
      <trkpt lat="42.19809" lon="9.05241">
        <ele>1847.79</ele>
        <time>2015-09-10T10:59:28Z</time>
      </trkpt>
      <trkpt lat="42.19818" lon="9.05225">
        <ele>1847.79</ele>
        <time>2015-09-10T10:59:57Z</time>
      </trkpt>
      <trkpt lat="42.19824" lon="9.05232">
        <ele>1847.79</ele>
        <time>2015-09-10T11:00:28Z</time>
      </trkpt>
      <trkpt lat="42.19828" lon="9.05233">
        <ele>1847.79</ele>
        <time>2015-09-10T11:00:55Z</time>
      </trkpt>
      <trkpt lat="42.19823" lon="9.05238">
        <ele>1846.83</ele>
        <time>2015-09-10T11:01:12Z</time>
      </trkpt>
      <trkpt lat="42.1982" lon="9.05229">
        <ele>1846.35</ele>
        <time>2015-09-10T11:01:29Z</time>
      </trkpt>
      <trkpt lat="42.1982" lon="9.05229">
        <ele>1847.31</ele>
        <time>2015-09-10T11:01:36Z</time>
      </trkpt>
      <trkpt lat="42.19813" lon="9.05221">
        <ele>1846.35</ele>
        <time>2015-09-10T11:01:52Z</time>
      </trkpt>
      <trkpt lat="42.19812" lon="9.05219">
        <ele>1846.35</ele>
        <time>2015-09-10T11:02:09Z</time>
      </trkpt>
      <trkpt lat="42.19814" lon="9.0521">
        <ele>1846.35</ele>
        <time>2015-09-10T11:02:25Z</time>
      </trkpt>
      <trkpt lat="42.19814" lon="9.0521">
        <ele>1846.35</ele>
        <time>2015-09-10T11:02:52Z</time>
      </trkpt>
      <trkpt lat="42.19813" lon="9.05213">
        <ele>1845.87</ele>
        <time>2015-09-10T11:03:16Z</time>
      </trkpt>
      <trkpt lat="42.19815" lon="9.05211">
        <ele>1845.87</ele>
        <time>2015-09-10T11:03:46Z</time>
      </trkpt>
      <trkpt lat="42.19815" lon="9.0521">
        <ele>1847.31</ele>
        <time>2015-09-10T11:04:09Z</time>
      </trkpt>
      <trkpt lat="42.19814" lon="9.05207">
        <ele>1847.31</ele>
        <time>2015-09-10T11:04:30Z</time>
      </trkpt>
      <trkpt lat="42.19815" lon="9.05208">
        <ele>1847.31</ele>
        <time>2015-09-10T11:04:51Z</time>
      </trkpt>
      <trkpt lat="42.19814" lon="9.05205">
        <ele>1846.83</ele>
        <time>2015-09-10T11:05:08Z</time>
      </trkpt>
      <trkpt lat="42.19814" lon="9.05207">
        <ele>1845.87</ele>
        <time>2015-09-10T11:05:18Z</time>
      </trkpt>
      <trkpt lat="42.19809" lon="9.05205">
        <ele>1845.87</ele>
        <time>2015-09-10T11:05:34Z</time>
      </trkpt>
      <trkpt lat="42.19812" lon="9.05205">
        <ele>1845.87</ele>
        <time>2015-09-10T11:05:49Z</time>
      </trkpt>
      <trkpt lat="42.19813" lon="9.05206">
        <ele>1845.87</ele>
        <time>2015-09-10T11:06:10Z</time>
      </trkpt>
      <trkpt lat="42.19813" lon="9.05207">
        <ele>1845.87</ele>
        <time>2015-09-10T11:06:29Z</time>
      </trkpt>
      <trkpt lat="42.19811" lon="9.05206">
        <ele>1845.39</ele>
        <time>2015-09-10T11:06:58Z</time>
      </trkpt>
      <trkpt lat="42.19811" lon="9.05206">
        <ele>1846.83</ele>
        <time>2015-09-10T11:07:10Z</time>
      </trkpt>
      <trkpt lat="42.19811" lon="9.05204">
        <ele>1845.39</ele>
        <time>2015-09-10T11:07:19Z</time>
      </trkpt>
      <trkpt lat="42.1981" lon="9.05206">
        <ele>1845.39</ele>
        <time>2015-09-10T11:07:54Z</time>
      </trkpt>
      <trkpt lat="42.19811" lon="9.05207">
        <ele>1846.83</ele>
        <time>2015-09-10T11:08:06Z</time>
      </trkpt>
      <trkpt lat="42.19811" lon="9.05202">
        <ele>1845.39</ele>
        <time>2015-09-10T11:08:17Z</time>
      </trkpt>
      <trkpt lat="42.19811" lon="9.05202">
        <ele>1846.83</ele>
        <time>2015-09-10T11:08:19Z</time>
      </trkpt>
      <trkpt lat="42.19811" lon="9.05202">
        <ele>1846.83</ele>
        <time>2015-09-10T11:08:52Z</time>
      </trkpt>
      <trkpt lat="42.19812" lon="9.05204">
        <ele>1845.87</ele>
        <time>2015-09-10T11:09:18Z</time>
      </trkpt>
      <trkpt lat="42.19811" lon="9.05206">
        <ele>1845.39</ele>
        <time>2015-09-10T11:09:40Z</time>
      </trkpt>
      <trkpt lat="42.19812" lon="9.05205">
        <ele>1846.83</ele>
        <time>2015-09-10T11:09:47Z</time>
      </trkpt>
      <trkpt lat="42.19808" lon="9.05207">
        <ele>1846.35</ele>
        <time>2015-09-10T11:10:03Z</time>
      </trkpt>
      <trkpt lat="42.19809" lon="9.05204">
        <ele>1846.83</ele>
        <time>2015-09-10T11:10:19Z</time>
      </trkpt>
      <trkpt lat="42.19802" lon="9.05181">
        <ele>1846.83</ele>
        <time>2015-09-10T11:10:40Z</time>
      </trkpt>
      <trkpt lat="42.198" lon="9.05172">
        <ele>1846.83</ele>
        <time>2015-09-10T11:10:55Z</time>
      </trkpt>
      <trkpt lat="42.19798" lon="9.05167">
        <ele>1846.83</ele>
        <time>2015-09-10T11:11:17Z</time>
      </trkpt>
      <trkpt lat="42.19796" lon="9.05165">
        <ele>1846.83</ele>
        <time>2015-09-10T11:11:25Z</time>
      </trkpt>
      <trkpt lat="42.19799" lon="9.0516">
        <ele>1847.79</ele>
        <time>2015-09-10T11:11:42Z</time>
      </trkpt>
      <trkpt lat="42.19802" lon="9.05142">
        <ele>1849.23</ele>
        <time>2015-09-10T11:11:59Z</time>
      </trkpt>
      <trkpt lat="42.19796" lon="9.05128">
        <ele>1850.68</ele>
        <time>2015-09-10T11:12:14Z</time>
      </trkpt>
      <trkpt lat="42.19789" lon="9.05122">
        <ele>1850.68</ele>
        <time>2015-09-10T11:12:24Z</time>
      </trkpt>
      <trkpt lat="42.19782" lon="9.05119">
        <ele>1850.68</ele>
        <time>2015-09-10T11:12:33Z</time>
      </trkpt>
      <trkpt lat="42.1978" lon="9.05104">
        <ele>1849.71</ele>
        <time>2015-09-10T11:12:48Z</time>
      </trkpt>
      <trkpt lat="42.19777" lon="9.05087">
        <ele>1849.23</ele>
        <time>2015-09-10T11:13:04Z</time>
      </trkpt>
      <trkpt lat="42.19769" lon="9.05074">
        <ele>1848.75</ele>
        <time>2015-09-10T11:13:16Z</time>
      </trkpt>
      <trkpt lat="42.19761" lon="9.05056">
        <ele>1848.75</ele>
        <time>2015-09-10T11:13:34Z</time>
      </trkpt>
      <trkpt lat="42.19759" lon="9.05053">
        <ele>1848.75</ele>
        <time>2015-09-10T11:13:55Z</time>
      </trkpt>
      <trkpt lat="42.19754" lon="9.05041">
        <ele>1850.19</ele>
        <time>2015-09-10T11:14:13Z</time>
      </trkpt>
      <trkpt lat="42.19751" lon="9.05032">
        <ele>1851.16</ele>
        <time>2015-09-10T11:14:28Z</time>
      </trkpt>
      <trkpt lat="42.19746" lon="9.05021">
        <ele>1851.16</ele>
        <time>2015-09-10T11:14:46Z</time>
      </trkpt>
      <trkpt lat="42.19743" lon="9.05012">
        <ele>1852.12</ele>
        <time>2015-09-10T11:15:03Z</time>
      </trkpt>
      <trkpt lat="42.19741" lon="9.05001">
        <ele>1852.12</ele>
        <time>2015-09-10T11:15:19Z</time>
      </trkpt>
      <trkpt lat="42.1974" lon="9.04995">
        <ele>1852.12</ele>
        <time>2015-09-10T11:15:34Z</time>
      </trkpt>
      <trkpt lat="42.19739" lon="9.04986">
        <ele>1850.68</ele>
        <time>2015-09-10T11:15:52Z</time>
      </trkpt>
      <trkpt lat="42.1974" lon="9.04978">
        <ele>1850.19</ele>
        <time>2015-09-10T11:16:09Z</time>
      </trkpt>
      <trkpt lat="42.19739" lon="9.04968">
        <ele>1850.19</ele>
        <time>2015-09-10T11:16:24Z</time>
      </trkpt>
      <trkpt lat="42.19742" lon="9.04958">
        <ele>1852.6</ele>
        <time>2015-09-10T11:16:41Z</time>
      </trkpt>
      <trkpt lat="42.19743" lon="9.0495">
        <ele>1855</ele>
        <time>2015-09-10T11:16:59Z</time>
      </trkpt>
      <trkpt lat="42.19743" lon="9.04943">
        <ele>1855</ele>
        <time>2015-09-10T11:17:15Z</time>
      </trkpt>
      <trkpt lat="42.1974" lon="9.04931">
        <ele>1853.56</ele>
        <time>2015-09-10T11:17:33Z</time>
      </trkpt>
      <trkpt lat="42.19738" lon="9.04926">
        <ele>1855</ele>
        <time>2015-09-10T11:17:41Z</time>
      </trkpt>
      <trkpt lat="42.19736" lon="9.04919">
        <ele>1856.44</ele>
        <time>2015-09-10T11:17:56Z</time>
      </trkpt>
      <trkpt lat="42.19735" lon="9.04911">
        <ele>1856.92</ele>
        <time>2015-09-10T11:18:10Z</time>
      </trkpt>
      <trkpt lat="42.1973" lon="9.04905">
        <ele>1856.92</ele>
        <time>2015-09-10T11:18:25Z</time>
      </trkpt>
      <trkpt lat="42.19726" lon="9.049">
        <ele>1854.04</ele>
        <time>2015-09-10T11:18:42Z</time>
      </trkpt>
      <trkpt lat="42.19721" lon="9.04898">
        <ele>1854.04</ele>
        <time>2015-09-10T11:18:59Z</time>
      </trkpt>
      <trkpt lat="42.19714" lon="9.04896">
        <ele>1852.12</ele>
        <time>2015-09-10T11:19:16Z</time>
      </trkpt>
      <trkpt lat="42.19708" lon="9.04891">
        <ele>1850.68</ele>
        <time>2015-09-10T11:19:32Z</time>
      </trkpt>
      <trkpt lat="42.19698" lon="9.04887">
        <ele>1849.71</ele>
        <time>2015-09-10T11:19:50Z</time>
      </trkpt>
      <trkpt lat="42.19691" lon="9.04877">
        <ele>1848.75</ele>
        <time>2015-09-10T11:20:06Z</time>
      </trkpt>
      <trkpt lat="42.19689" lon="9.04881">
        <ele>1846.83</ele>
        <time>2015-09-10T11:20:21Z</time>
      </trkpt>
      <trkpt lat="42.19685" lon="9.04881">
        <ele>1844.91</ele>
        <time>2015-09-10T11:20:37Z</time>
      </trkpt>
      <trkpt lat="42.1968" lon="9.04876">
        <ele>1842.98</ele>
        <time>2015-09-10T11:20:58Z</time>
      </trkpt>
      <trkpt lat="42.19678" lon="9.04877">
        <ele>1841.06</ele>
        <time>2015-09-10T11:21:15Z</time>
      </trkpt>
      <trkpt lat="42.19675" lon="9.04881">
        <ele>1838.18</ele>
        <time>2015-09-10T11:21:32Z</time>
      </trkpt>
      <trkpt lat="42.19668" lon="9.04884">
        <ele>1836.26</ele>
        <time>2015-09-10T11:21:49Z</time>
      </trkpt>
      <trkpt lat="42.19667" lon="9.04882">
        <ele>1837.7</ele>
        <time>2015-09-10T11:21:53Z</time>
      </trkpt>
      <trkpt lat="42.19662" lon="9.04879">
        <ele>1837.22</ele>
        <time>2015-09-10T11:22:10Z</time>
      </trkpt>
      <trkpt lat="42.19659" lon="9.04881">
        <ele>1834.81</ele>
        <time>2015-09-10T11:22:28Z</time>
      </trkpt>
      <trkpt lat="42.19655" lon="9.04884">
        <ele>1832.41</ele>
        <time>2015-09-10T11:22:44Z</time>
      </trkpt>
      <trkpt lat="42.1965" lon="9.04885">
        <ele>1830.49</ele>
        <time>2015-09-10T11:22:58Z</time>
      </trkpt>
      <trkpt lat="42.19645" lon="9.04888">
        <ele>1827.6</ele>
        <time>2015-09-10T11:23:13Z</time>
      </trkpt>
      <trkpt lat="42.19642" lon="9.04891">
        <ele>1825.68</ele>
        <time>2015-09-10T11:23:28Z</time>
      </trkpt>
      <trkpt lat="42.19634" lon="9.04895">
        <ele>1822.8</ele>
        <time>2015-09-10T11:23:47Z</time>
      </trkpt>
      <trkpt lat="42.19628" lon="9.04902">
        <ele>1820.39</ele>
        <time>2015-09-10T11:24:04Z</time>
      </trkpt>
      <trkpt lat="42.19623" lon="9.04905">
        <ele>1818.95</ele>
        <time>2015-09-10T11:24:19Z</time>
      </trkpt>
      <trkpt lat="42.19616" lon="9.04912">
        <ele>1817.51</ele>
        <time>2015-09-10T11:24:35Z</time>
      </trkpt>
      <trkpt lat="42.1961" lon="9.04916">
        <ele>1816.07</ele>
        <time>2015-09-10T11:24:52Z</time>
      </trkpt>
      <trkpt lat="42.19608" lon="9.04915">
        <ele>1814.15</ele>
        <time>2015-09-10T11:25:08Z</time>
      </trkpt>
      <trkpt lat="42.19605" lon="9.04921">
        <ele>1812.7</ele>
        <time>2015-09-10T11:25:25Z</time>
      </trkpt>
      <trkpt lat="42.19602" lon="9.04928">
        <ele>1810.3</ele>
        <time>2015-09-10T11:25:40Z</time>
      </trkpt>
      <trkpt lat="42.19598" lon="9.0493">
        <ele>1809.82</ele>
        <time>2015-09-10T11:25:53Z</time>
      </trkpt>
      <trkpt lat="42.19595" lon="9.0493">
        <ele>1811.26</ele>
        <time>2015-09-10T11:26:04Z</time>
      </trkpt>
      <trkpt lat="42.19591" lon="9.04933">
        <ele>1811.26</ele>
        <time>2015-09-10T11:26:19Z</time>
      </trkpt>
      <trkpt lat="42.19586" lon="9.0493">
        <ele>1809.34</ele>
        <time>2015-09-10T11:26:34Z</time>
      </trkpt>
      <trkpt lat="42.19588" lon="9.04935">
        <ele>1808.86</ele>
        <time>2015-09-10T11:26:52Z</time>
      </trkpt>
      <trkpt lat="42.19587" lon="9.04938">
        <ele>1806.45</ele>
        <time>2015-09-10T11:27:10Z</time>
      </trkpt>
      <trkpt lat="42.19584" lon="9.04938">
        <ele>1805.49</ele>
        <time>2015-09-10T11:27:24Z</time>
      </trkpt>
      <trkpt lat="42.19576" lon="9.04931">
        <ele>1804.05</ele>
        <time>2015-09-10T11:27:42Z</time>
      </trkpt>
      <trkpt lat="42.19571" lon="9.04932">
        <ele>1806.45</ele>
        <time>2015-09-10T11:27:59Z</time>
      </trkpt>
      <trkpt lat="42.19563" lon="9.04934">
        <ele>1807.42</ele>
        <time>2015-09-10T11:28:14Z</time>
      </trkpt>
      <trkpt lat="42.19553" lon="9.04936">
        <ele>1807.42</ele>
        <time>2015-09-10T11:28:29Z</time>
      </trkpt>
      <trkpt lat="42.19545" lon="9.04938">
        <ele>1807.42</ele>
        <time>2015-09-10T11:28:47Z</time>
      </trkpt>
      <trkpt lat="42.19544" lon="9.04939">
        <ele>1805.97</ele>
        <time>2015-09-10T11:28:50Z</time>
      </trkpt>
      <trkpt lat="42.19536" lon="9.04936">
        <ele>1803.09</ele>
        <time>2015-09-10T11:29:07Z</time>
      </trkpt>
      <trkpt lat="42.19527" lon="9.0494">
        <ele>1801.65</ele>
        <time>2015-09-10T11:29:25Z</time>
      </trkpt>
      <trkpt lat="42.19523" lon="9.04943">
        <ele>1799.73</ele>
        <time>2015-09-10T11:29:42Z</time>
      </trkpt>
      <trkpt lat="42.19514" lon="9.04946">
        <ele>1798.76</ele>
        <time>2015-09-10T11:29:58Z</time>
      </trkpt>
      <trkpt lat="42.19503" lon="9.04949">
        <ele>1796.36</ele>
        <time>2015-09-10T11:30:17Z</time>
      </trkpt>
      <trkpt lat="42.19496" lon="9.04953">
        <ele>1794.44</ele>
        <time>2015-09-10T11:30:32Z</time>
      </trkpt>
      <trkpt lat="42.19492" lon="9.04954">
        <ele>1793</ele>
        <time>2015-09-10T11:30:46Z</time>
      </trkpt>
      <trkpt lat="42.19488" lon="9.04955">
        <ele>1790.59</ele>
        <time>2015-09-10T11:31:02Z</time>
      </trkpt>
      <trkpt lat="42.19483" lon="9.0495">
        <ele>1789.63</ele>
        <time>2015-09-10T11:31:21Z</time>
      </trkpt>
      <trkpt lat="42.1948" lon="9.0495">
        <ele>1789.63</ele>
        <time>2015-09-10T11:31:40Z</time>
      </trkpt>
      <trkpt lat="42.19473" lon="9.04956">
        <ele>1788.67</ele>
        <time>2015-09-10T11:31:56Z</time>
      </trkpt>
      <trkpt lat="42.19469" lon="9.04964">
        <ele>1789.63</ele>
        <time>2015-09-10T11:32:12Z</time>
      </trkpt>
      <trkpt lat="42.19464" lon="9.04961">
        <ele>1787.23</ele>
        <time>2015-09-10T11:32:30Z</time>
      </trkpt>
      <trkpt lat="42.19462" lon="9.04953">
        <ele>1786.75</ele>
        <time>2015-09-10T11:32:45Z</time>
      </trkpt>
      <trkpt lat="42.19455" lon="9.04948">
        <ele>1786.27</ele>
        <time>2015-09-10T11:32:59Z</time>
      </trkpt>
      <trkpt lat="42.19445" lon="9.04945">
        <ele>1785.79</ele>
        <time>2015-09-10T11:33:13Z</time>
      </trkpt>
      <trkpt lat="42.19435" lon="9.04939">
        <ele>1784.34</ele>
        <time>2015-09-10T11:33:28Z</time>
      </trkpt>
      <trkpt lat="42.19424" lon="9.04934">
        <ele>1784.34</ele>
        <time>2015-09-10T11:33:43Z</time>
      </trkpt>
      <trkpt lat="42.19416" lon="9.04928">
        <ele>1785.79</ele>
        <time>2015-09-10T11:34:03Z</time>
      </trkpt>
      <trkpt lat="42.19411" lon="9.04925">
        <ele>1784.82</ele>
        <time>2015-09-10T11:34:14Z</time>
      </trkpt>
      <trkpt lat="42.19404" lon="9.04918">
        <ele>1785.79</ele>
        <time>2015-09-10T11:34:30Z</time>
      </trkpt>
      <trkpt lat="42.19395" lon="9.04919">
        <ele>1786.27</ele>
        <time>2015-09-10T11:34:45Z</time>
      </trkpt>
      <trkpt lat="42.19386" lon="9.04914">
        <ele>1787.23</ele>
        <time>2015-09-10T11:35:02Z</time>
      </trkpt>
      <trkpt lat="42.19381" lon="9.0491">
        <ele>1788.19</ele>
        <time>2015-09-10T11:35:19Z</time>
      </trkpt>
      <trkpt lat="42.19375" lon="9.04907">
        <ele>1789.63</ele>
        <time>2015-09-10T11:35:35Z</time>
      </trkpt>
      <trkpt lat="42.1937" lon="9.04906">
        <ele>1789.63</ele>
        <time>2015-09-10T11:35:49Z</time>
      </trkpt>
      <trkpt lat="42.19367" lon="9.04901">
        <ele>1791.55</ele>
        <time>2015-09-10T11:36:05Z</time>
      </trkpt>
      <trkpt lat="42.19367" lon="9.04897">
        <ele>1793.96</ele>
        <time>2015-09-10T11:36:26Z</time>
      </trkpt>
      <trkpt lat="42.19365" lon="9.04892">
        <ele>1795.4</ele>
        <time>2015-09-10T11:36:43Z</time>
      </trkpt>
      <trkpt lat="42.1936" lon="9.04884">
        <ele>1795.88</ele>
        <time>2015-09-10T11:37:02Z</time>
      </trkpt>
      <trkpt lat="42.19354" lon="9.04885">
        <ele>1794.92</ele>
        <time>2015-09-10T11:37:12Z</time>
      </trkpt>
      <trkpt lat="42.19338" lon="9.04889">
        <ele>1793</ele>
        <time>2015-09-10T11:37:32Z</time>
      </trkpt>
      <trkpt lat="42.19328" lon="9.04891">
        <ele>1791.55</ele>
        <time>2015-09-10T11:37:47Z</time>
      </trkpt>
      <trkpt lat="42.1932" lon="9.04896">
        <ele>1790.59</ele>
        <time>2015-09-10T11:37:57Z</time>
      </trkpt>
      <trkpt lat="42.19309" lon="9.04901">
        <ele>1789.15</ele>
        <time>2015-09-10T11:38:11Z</time>
      </trkpt>
      <trkpt lat="42.19294" lon="9.04902">
        <ele>1788.19</ele>
        <time>2015-09-10T11:38:28Z</time>
      </trkpt>
      <trkpt lat="42.19284" lon="9.04901">
        <ele>1789.63</ele>
        <time>2015-09-10T11:38:42Z</time>
      </trkpt>
      <trkpt lat="42.19277" lon="9.04908">
        <ele>1791.55</ele>
        <time>2015-09-10T11:38:57Z</time>
      </trkpt>
      <trkpt lat="42.1927" lon="9.04906">
        <ele>1793.96</ele>
        <time>2015-09-10T11:39:13Z</time>
      </trkpt>
      <trkpt lat="42.19263" lon="9.04906">
        <ele>1796.36</ele>
        <time>2015-09-10T11:39:33Z</time>
      </trkpt>
      <trkpt lat="42.19258" lon="9.04909">
        <ele>1798.28</ele>
        <time>2015-09-10T11:39:51Z</time>
      </trkpt>
      <trkpt lat="42.19255" lon="9.0491">
        <ele>1799.73</ele>
        <time>2015-09-10T11:40:08Z</time>
      </trkpt>
      <trkpt lat="42.1925" lon="9.0491">
        <ele>1802.13</ele>
        <time>2015-09-10T11:40:25Z</time>
      </trkpt>
      <trkpt lat="42.19248" lon="9.04913">
        <ele>1803.57</ele>
        <time>2015-09-10T11:40:42Z</time>
      </trkpt>
      <trkpt lat="42.19242" lon="9.04914">
        <ele>1806.45</ele>
        <time>2015-09-10T11:40:58Z</time>
      </trkpt>
      <trkpt lat="42.19236" lon="9.04913">
        <ele>1808.38</ele>
        <time>2015-09-10T11:41:15Z</time>
      </trkpt>
      <trkpt lat="42.19232" lon="9.04916">
        <ele>1810.3</ele>
        <time>2015-09-10T11:41:35Z</time>
      </trkpt>
      <trkpt lat="42.19229" lon="9.04921">
        <ele>1813.66</ele>
        <time>2015-09-10T11:41:52Z</time>
      </trkpt>
      <trkpt lat="42.19229" lon="9.0493">
        <ele>1815.11</ele>
        <time>2015-09-10T11:42:10Z</time>
      </trkpt>
      <trkpt lat="42.19223" lon="9.04928">
        <ele>1816.07</ele>
        <time>2015-09-10T11:42:27Z</time>
      </trkpt>
      <trkpt lat="42.19218" lon="9.04927">
        <ele>1818.95</ele>
        <time>2015-09-10T11:42:44Z</time>
      </trkpt>
      <trkpt lat="42.19211" lon="9.04927">
        <ele>1820.87</ele>
        <time>2015-09-10T11:43:01Z</time>
      </trkpt>
      <trkpt lat="42.192" lon="9.04928">
        <ele>1822.8</ele>
        <time>2015-09-10T11:43:20Z</time>
      </trkpt>
      <trkpt lat="42.19194" lon="9.0493">
        <ele>1825.2</ele>
        <time>2015-09-10T11:43:38Z</time>
      </trkpt>
      <trkpt lat="42.19188" lon="9.04935">
        <ele>1828.08</ele>
        <time>2015-09-10T11:43:55Z</time>
      </trkpt>
      <trkpt lat="42.19181" lon="9.04938">
        <ele>1829.53</ele>
        <time>2015-09-10T11:44:11Z</time>
      </trkpt>
      <trkpt lat="42.19175" lon="9.04938">
        <ele>1831.45</ele>
        <time>2015-09-10T11:44:27Z</time>
      </trkpt>
      <trkpt lat="42.19169" lon="9.04943">
        <ele>1833.37</ele>
        <time>2015-09-10T11:44:46Z</time>
      </trkpt>
      <trkpt lat="42.19165" lon="9.04948">
        <ele>1835.29</ele>
        <time>2015-09-10T11:45:01Z</time>
      </trkpt>
      <trkpt lat="42.19163" lon="9.04956">
        <ele>1837.7</ele>
        <time>2015-09-10T11:45:19Z</time>
      </trkpt>
      <trkpt lat="42.19158" lon="9.04957">
        <ele>1839.62</ele>
        <time>2015-09-10T11:45:36Z</time>
      </trkpt>
      <trkpt lat="42.19156" lon="9.04963">
        <ele>1842.5</ele>
        <time>2015-09-10T11:45:56Z</time>
      </trkpt>
      <trkpt lat="42.19154" lon="9.04965">
        <ele>1843.95</ele>
        <time>2015-09-10T11:46:10Z</time>
      </trkpt>
      <trkpt lat="42.19145" lon="9.04974">
        <ele>1845.87</ele>
        <time>2015-09-10T11:46:29Z</time>
      </trkpt>
      <trkpt lat="42.19141" lon="9.04978">
        <ele>1844.91</ele>
        <time>2015-09-10T11:46:38Z</time>
      </trkpt>
      <trkpt lat="42.19134" lon="9.04983">
        <ele>1844.91</ele>
        <time>2015-09-10T11:46:54Z</time>
      </trkpt>
      <trkpt lat="42.19132" lon="9.04985">
        <ele>1847.31</ele>
        <time>2015-09-10T11:47:11Z</time>
      </trkpt>
      <trkpt lat="42.19127" lon="9.04988">
        <ele>1849.23</ele>
        <time>2015-09-10T11:47:27Z</time>
      </trkpt>
      <trkpt lat="42.19125" lon="9.04993">
        <ele>1851.16</ele>
        <time>2015-09-10T11:47:44Z</time>
      </trkpt>
      <trkpt lat="42.19117" lon="9.05001">
        <ele>1851.64</ele>
        <time>2015-09-10T11:48:01Z</time>
      </trkpt>
      <trkpt lat="42.19111" lon="9.05001">
        <ele>1853.56</ele>
        <time>2015-09-10T11:48:16Z</time>
      </trkpt>
      <trkpt lat="42.19108" lon="9.05001">
        <ele>1855.96</ele>
        <time>2015-09-10T11:48:34Z</time>
      </trkpt>
      <trkpt lat="42.19105" lon="9.04996">
        <ele>1858.37</ele>
        <time>2015-09-10T11:48:55Z</time>
      </trkpt>
      <trkpt lat="42.19103" lon="9.04994">
        <ele>1859.81</ele>
        <time>2015-09-10T11:49:10Z</time>
      </trkpt>
      <trkpt lat="42.191" lon="9.05">
        <ele>1861.25</ele>
        <time>2015-09-10T11:49:25Z</time>
      </trkpt>
      <trkpt lat="42.19095" lon="9.05007">
        <ele>1859.33</ele>
        <time>2015-09-10T11:49:40Z</time>
      </trkpt>
      <trkpt lat="42.19092" lon="9.05015">
        <ele>1858.85</ele>
        <time>2015-09-10T11:49:53Z</time>
      </trkpt>
      <trkpt lat="42.19089" lon="9.05018">
        <ele>1859.33</ele>
        <time>2015-09-10T11:50:04Z</time>
      </trkpt>
      <trkpt lat="42.19087" lon="9.0502">
        <ele>1858.37</ele>
        <time>2015-09-10T11:50:16Z</time>
      </trkpt>
      <trkpt lat="42.19087" lon="9.0502">
        <ele>1859.81</ele>
        <time>2015-09-10T11:50:19Z</time>
      </trkpt>
      <trkpt lat="42.19086" lon="9.05022">
        <ele>1859.81</ele>
        <time>2015-09-10T11:50:36Z</time>
      </trkpt>
      <trkpt lat="42.19083" lon="9.05025">
        <ele>1860.77</ele>
        <time>2015-09-10T11:50:44Z</time>
      </trkpt>
      <trkpt lat="42.19078" lon="9.05031">
        <ele>1857.89</ele>
        <time>2015-09-10T11:50:59Z</time>
      </trkpt>
      <trkpt lat="42.19073" lon="9.05035">
        <ele>1858.85</ele>
        <time>2015-09-10T11:51:12Z</time>
      </trkpt>
      <trkpt lat="42.19068" lon="9.05039">
        <ele>1859.81</ele>
        <time>2015-09-10T11:51:25Z</time>
      </trkpt>
      <trkpt lat="42.19069" lon="9.05044">
        <ele>1861.25</ele>
        <time>2015-09-10T11:51:39Z</time>
      </trkpt>
      <trkpt lat="42.19065" lon="9.05045">
        <ele>1863.17</ele>
        <time>2015-09-10T11:51:55Z</time>
      </trkpt>
      <trkpt lat="42.19063" lon="9.05045">
        <ele>1864.61</ele>
        <time>2015-09-10T11:52:09Z</time>
      </trkpt>
      <trkpt lat="42.19061" lon="9.05039">
        <ele>1867.02</ele>
        <time>2015-09-10T11:52:26Z</time>
      </trkpt>
      <trkpt lat="42.19058" lon="9.0504">
        <ele>1868.46</ele>
        <time>2015-09-10T11:52:39Z</time>
      </trkpt>
      <trkpt lat="42.19057" lon="9.05044">
        <ele>1867.02</ele>
        <time>2015-09-10T11:52:46Z</time>
      </trkpt>
      <trkpt lat="42.19047" lon="9.05045">
        <ele>1867.02</ele>
        <time>2015-09-10T11:53:05Z</time>
      </trkpt>
      <trkpt lat="42.19047" lon="9.05044">
        <ele>1867.02</ele>
        <time>2015-09-10T11:53:06Z</time>
      </trkpt>
      <trkpt lat="42.19044" lon="9.05044">
        <ele>1866.06</ele>
        <time>2015-09-10T11:53:17Z</time>
      </trkpt>
      <trkpt lat="42.1904" lon="9.05047">
        <ele>1864.13</ele>
        <time>2015-09-10T11:53:30Z</time>
      </trkpt>
      <trkpt lat="42.19035" lon="9.05056">
        <ele>1863.17</ele>
        <time>2015-09-10T11:53:44Z</time>
      </trkpt>
      <trkpt lat="42.19028" lon="9.05057">
        <ele>1865.09</ele>
        <time>2015-09-10T11:54:00Z</time>
      </trkpt>
      <trkpt lat="42.19026" lon="9.05061">
        <ele>1863.65</ele>
        <time>2015-09-10T11:54:10Z</time>
      </trkpt>
      <trkpt lat="42.1902" lon="9.05065">
        <ele>1863.17</ele>
        <time>2015-09-10T11:54:26Z</time>
      </trkpt>
      <trkpt lat="42.19011" lon="9.05069">
        <ele>1862.69</ele>
        <time>2015-09-10T11:54:43Z</time>
      </trkpt>
      <trkpt lat="42.1901" lon="9.05069">
        <ele>1864.13</ele>
        <time>2015-09-10T11:54:45Z</time>
      </trkpt>
      <trkpt lat="42.19005" lon="9.05077">
        <ele>1866.06</ele>
        <time>2015-09-10T11:55:01Z</time>
      </trkpt>
      <trkpt lat="42.18999" lon="9.05082">
        <ele>1867.98</ele>
        <time>2015-09-10T11:55:16Z</time>
      </trkpt>
      <trkpt lat="42.18992" lon="9.0508">
        <ele>1868.46</ele>
        <time>2015-09-10T11:55:32Z</time>
      </trkpt>
      <trkpt lat="42.18987" lon="9.05082">
        <ele>1869.9</ele>
        <time>2015-09-10T11:55:48Z</time>
      </trkpt>
      <trkpt lat="42.18984" lon="9.05085">
        <ele>1871.82</ele>
        <time>2015-09-10T11:56:02Z</time>
      </trkpt>
      <trkpt lat="42.1898" lon="9.05086">
        <ele>1873.27</ele>
        <time>2015-09-10T11:56:16Z</time>
      </trkpt>
      <trkpt lat="42.18977" lon="9.05086">
        <ele>1875.19</ele>
        <time>2015-09-10T11:56:30Z</time>
      </trkpt>
      <trkpt lat="42.18971" lon="9.05088">
        <ele>1875.19</ele>
        <time>2015-09-10T11:56:45Z</time>
      </trkpt>
      <trkpt lat="42.18967" lon="9.05085">
        <ele>1873.75</ele>
        <time>2015-09-10T11:56:57Z</time>
      </trkpt>
      <trkpt lat="42.18964" lon="9.05088">
        <ele>1871.34</ele>
        <time>2015-09-10T11:57:11Z</time>
      </trkpt>
      <trkpt lat="42.18956" lon="9.05086">
        <ele>1870.38</ele>
        <time>2015-09-10T11:57:25Z</time>
      </trkpt>
      <trkpt lat="42.18948" lon="9.05083">
        <ele>1867.98</ele>
        <time>2015-09-10T11:57:38Z</time>
      </trkpt>
      <trkpt lat="42.1894" lon="9.05085">
        <ele>1867.02</ele>
        <time>2015-09-10T11:57:51Z</time>
      </trkpt>
      <trkpt lat="42.1893" lon="9.05088">
        <ele>1867.02</ele>
        <time>2015-09-10T11:58:08Z</time>
      </trkpt>
      <trkpt lat="42.18928" lon="9.05087">
        <ele>1868.46</ele>
        <time>2015-09-10T11:58:12Z</time>
      </trkpt>
      <trkpt lat="42.18919" lon="9.0509">
        <ele>1867.02</ele>
        <time>2015-09-10T11:58:23Z</time>
      </trkpt>
      <trkpt lat="42.18909" lon="9.05087">
        <ele>1867.02</ele>
        <time>2015-09-10T11:58:38Z</time>
      </trkpt>
      <trkpt lat="42.18907" lon="9.05084">
        <ele>1868.46</ele>
        <time>2015-09-10T11:58:43Z</time>
      </trkpt>
      <trkpt lat="42.189" lon="9.05087">
        <ele>1871.34</ele>
        <time>2015-09-10T11:59:00Z</time>
      </trkpt>
      <trkpt lat="42.18892" lon="9.05089">
        <ele>1873.27</ele>
        <time>2015-09-10T11:59:16Z</time>
      </trkpt>
      <trkpt lat="42.18886" lon="9.05092">
        <ele>1874.71</ele>
        <time>2015-09-10T11:59:30Z</time>
      </trkpt>
      <trkpt lat="42.1888" lon="9.05092">
        <ele>1876.15</ele>
        <time>2015-09-10T11:59:47Z</time>
      </trkpt>
      <trkpt lat="42.18874" lon="9.05087">
        <ele>1877.59</ele>
        <time>2015-09-10T12:00:02Z</time>
      </trkpt>
      <trkpt lat="42.18866" lon="9.05093">
        <ele>1878.07</ele>
        <time>2015-09-10T12:00:14Z</time>
      </trkpt>
      <trkpt lat="42.18856" lon="9.05097">
        <ele>1879.03</ele>
        <time>2015-09-10T12:00:30Z</time>
      </trkpt>
      <trkpt lat="42.18847" lon="9.05103">
        <ele>1879.03</ele>
        <time>2015-09-10T12:00:45Z</time>
      </trkpt>
      <trkpt lat="42.18835" lon="9.05102">
        <ele>1879.51</ele>
        <time>2015-09-10T12:01:00Z</time>
      </trkpt>
      <trkpt lat="42.18826" lon="9.05099">
        <ele>1879.51</ele>
        <time>2015-09-10T12:01:11Z</time>
      </trkpt>
      <trkpt lat="42.18817" lon="9.05094">
        <ele>1880.96</ele>
        <time>2015-09-10T12:01:25Z</time>
      </trkpt>
      <trkpt lat="42.18809" lon="9.05091">
        <ele>1881.92</ele>
        <time>2015-09-10T12:01:39Z</time>
      </trkpt>
      <trkpt lat="42.188" lon="9.05088">
        <ele>1884.32</ele>
        <time>2015-09-10T12:01:55Z</time>
      </trkpt>
      <trkpt lat="42.18791" lon="9.05088">
        <ele>1886.72</ele>
        <time>2015-09-10T12:02:10Z</time>
      </trkpt>
      <trkpt lat="42.18781" lon="9.05083">
        <ele>1887.21</ele>
        <time>2015-09-10T12:02:26Z</time>
      </trkpt>
      <trkpt lat="42.18774" lon="9.0508">
        <ele>1888.17</ele>
        <time>2015-09-10T12:02:39Z</time>
      </trkpt>
      <trkpt lat="42.18766" lon="9.05078">
        <ele>1889.61</ele>
        <time>2015-09-10T12:02:55Z</time>
      </trkpt>
      <trkpt lat="42.18759" lon="9.05077">
        <ele>1891.53</ele>
        <time>2015-09-10T12:03:10Z</time>
      </trkpt>
      <trkpt lat="42.18749" lon="9.0507">
        <ele>1892.97</ele>
        <time>2015-09-10T12:03:28Z</time>
      </trkpt>
      <trkpt lat="42.18741" lon="9.05067">
        <ele>1893.45</ele>
        <time>2015-09-10T12:03:41Z</time>
      </trkpt>
      <trkpt lat="42.18735" lon="9.05067">
        <ele>1895.86</ele>
        <time>2015-09-10T12:03:54Z</time>
      </trkpt>
      <trkpt lat="42.18726" lon="9.05061">
        <ele>1895.86</ele>
        <time>2015-09-10T12:04:10Z</time>
      </trkpt>
      <trkpt lat="42.18719" lon="9.05059">
        <ele>1896.82</ele>
        <time>2015-09-10T12:04:23Z</time>
      </trkpt>
      <trkpt lat="42.18714" lon="9.05057">
        <ele>1897.78</ele>
        <time>2015-09-10T12:04:32Z</time>
      </trkpt>
      <trkpt lat="42.18711" lon="9.05055">
        <ele>1897.78</ele>
        <time>2015-09-10T12:04:35Z</time>
      </trkpt>
      <trkpt lat="42.18698" lon="9.0505">
        <ele>1898.26</ele>
        <time>2015-09-10T12:04:54Z</time>
      </trkpt>
      <trkpt lat="42.18689" lon="9.05047">
        <ele>1899.22</ele>
        <time>2015-09-10T12:05:09Z</time>
      </trkpt>
      <trkpt lat="42.18681" lon="9.05044">
        <ele>1902.11</ele>
        <time>2015-09-10T12:05:26Z</time>
      </trkpt>
      <trkpt lat="42.18676" lon="9.05042">
        <ele>1903.07</ele>
        <time>2015-09-10T12:05:41Z</time>
      </trkpt>
      <trkpt lat="42.1867" lon="9.05035">
        <ele>1904.99</ele>
        <time>2015-09-10T12:05:57Z</time>
      </trkpt>
      <trkpt lat="42.18662" lon="9.05031">
        <ele>1907.87</ele>
        <time>2015-09-10T12:06:16Z</time>
      </trkpt>
      <trkpt lat="42.18655" lon="9.05024">
        <ele>1909.8</ele>
        <time>2015-09-10T12:06:34Z</time>
      </trkpt>
      <trkpt lat="42.18648" lon="9.05023">
        <ele>1912.2</ele>
        <time>2015-09-10T12:06:50Z</time>
      </trkpt>
      <trkpt lat="42.18645" lon="9.05019">
        <ele>1912.68</ele>
        <time>2015-09-10T12:07:07Z</time>
      </trkpt>
      <trkpt lat="42.1864" lon="9.05012">
        <ele>1913.16</ele>
        <time>2015-09-10T12:07:22Z</time>
      </trkpt>
      <trkpt lat="42.18634" lon="9.05008">
        <ele>1915.08</ele>
        <time>2015-09-10T12:07:37Z</time>
      </trkpt>
      <trkpt lat="42.18629" lon="9.05002">
        <ele>1915.56</ele>
        <time>2015-09-10T12:07:53Z</time>
      </trkpt>
      <trkpt lat="42.18626" lon="9.04998">
        <ele>1917.01</ele>
        <time>2015-09-10T12:08:09Z</time>
      </trkpt>
      <trkpt lat="42.18621" lon="9.04991">
        <ele>1917.97</ele>
        <time>2015-09-10T12:08:24Z</time>
      </trkpt>
      <trkpt lat="42.18616" lon="9.04987">
        <ele>1919.89</ele>
        <time>2015-09-10T12:08:40Z</time>
      </trkpt>
      <trkpt lat="42.18609" lon="9.04977">
        <ele>1920.37</ele>
        <time>2015-09-10T12:08:57Z</time>
      </trkpt>
      <trkpt lat="42.18601" lon="9.04973">
        <ele>1922.77</ele>
        <time>2015-09-10T12:09:13Z</time>
      </trkpt>
      <trkpt lat="42.18596" lon="9.04971">
        <ele>1925.18</ele>
        <time>2015-09-10T12:09:28Z</time>
      </trkpt>
      <trkpt lat="42.18594" lon="9.04968">
        <ele>1927.1</ele>
        <time>2015-09-10T12:09:40Z</time>
      </trkpt>
      <trkpt lat="42.18589" lon="9.04965">
        <ele>1928.06</ele>
        <time>2015-09-10T12:09:56Z</time>
      </trkpt>
      <trkpt lat="42.18584" lon="9.04961">
        <ele>1929.5</ele>
        <time>2015-09-10T12:10:10Z</time>
      </trkpt>
      <trkpt lat="42.18578" lon="9.04958">
        <ele>1930.95</ele>
        <time>2015-09-10T12:10:25Z</time>
      </trkpt>
      <trkpt lat="42.18574" lon="9.04957">
        <ele>1932.87</ele>
        <time>2015-09-10T12:10:40Z</time>
      </trkpt>
      <trkpt lat="42.18571" lon="9.04955">
        <ele>1934.79</ele>
        <time>2015-09-10T12:10:56Z</time>
      </trkpt>
      <trkpt lat="42.18566" lon="9.0495">
        <ele>1936.23</ele>
        <time>2015-09-10T12:11:13Z</time>
      </trkpt>
      <trkpt lat="42.18561" lon="9.04941">
        <ele>1937.67</ele>
        <time>2015-09-10T12:11:30Z</time>
      </trkpt>
      <trkpt lat="42.18558" lon="9.0494">
        <ele>1939.6</ele>
        <time>2015-09-10T12:11:47Z</time>
      </trkpt>
      <trkpt lat="42.18554" lon="9.04938">
        <ele>1941.04</ele>
        <time>2015-09-10T12:12:00Z</time>
      </trkpt>
      <trkpt lat="42.18548" lon="9.04933">
        <ele>1942.48</ele>
        <time>2015-09-10T12:12:15Z</time>
      </trkpt>
      <trkpt lat="42.18544" lon="9.04931">
        <ele>1943.92</ele>
        <time>2015-09-10T12:12:28Z</time>
      </trkpt>
      <trkpt lat="42.18536" lon="9.04927">
        <ele>1945.36</ele>
        <time>2015-09-10T12:12:44Z</time>
      </trkpt>
      <trkpt lat="42.18527" lon="9.04921">
        <ele>1947.29</ele>
        <time>2015-09-10T12:13:01Z</time>
      </trkpt>
      <trkpt lat="42.18521" lon="9.04915">
        <ele>1948.73</ele>
        <time>2015-09-10T12:13:18Z</time>
      </trkpt>
      <trkpt lat="42.18515" lon="9.04916">
        <ele>1951.13</ele>
        <time>2015-09-10T12:13:36Z</time>
      </trkpt>
      <trkpt lat="42.18515" lon="9.04916">
        <ele>1951.61</ele>
        <time>2015-09-10T12:14:04Z</time>
      </trkpt>
      <trkpt lat="42.18509" lon="9.04916">
        <ele>1953.06</ele>
        <time>2015-09-10T12:14:19Z</time>
      </trkpt>
      <trkpt lat="42.18503" lon="9.04915">
        <ele>1954.98</ele>
        <time>2015-09-10T12:14:34Z</time>
      </trkpt>
      <trkpt lat="42.18494" lon="9.04911">
        <ele>1957.86</ele>
        <time>2015-09-10T12:14:51Z</time>
      </trkpt>
      <trkpt lat="42.18485" lon="9.04909">
        <ele>1958.34</ele>
        <time>2015-09-10T12:15:08Z</time>
      </trkpt>
      <trkpt lat="42.18475" lon="9.04903">
        <ele>1960.75</ele>
        <time>2015-09-10T12:15:26Z</time>
      </trkpt>
      <trkpt lat="42.18466" lon="9.04899">
        <ele>1962.67</ele>
        <time>2015-09-10T12:15:44Z</time>
      </trkpt>
      <trkpt lat="42.18458" lon="9.04898">
        <ele>1965.07</ele>
        <time>2015-09-10T12:16:01Z</time>
      </trkpt>
      <trkpt lat="42.18447" lon="9.04894">
        <ele>1966.51</ele>
        <time>2015-09-10T12:16:18Z</time>
      </trkpt>
      <trkpt lat="42.18436" lon="9.04894">
        <ele>1967.48</ele>
        <time>2015-09-10T12:16:35Z</time>
      </trkpt>
      <trkpt lat="42.18429" lon="9.0489">
        <ele>1967.48</ele>
        <time>2015-09-10T12:16:51Z</time>
      </trkpt>
      <trkpt lat="42.18429" lon="9.0489">
        <ele>1966.51</ele>
        <time>2015-09-10T12:16:57Z</time>
      </trkpt>
      <trkpt lat="42.18428" lon="9.0489">
        <ele>1966.51</ele>
        <time>2015-09-10T12:17:25Z</time>
      </trkpt>
      <trkpt lat="42.18429" lon="9.04889">
        <ele>1966.51</ele>
        <time>2015-09-10T12:17:47Z</time>
      </trkpt>
      <trkpt lat="42.18421" lon="9.04888">
        <ele>1965.07</ele>
        <time>2015-09-10T12:18:08Z</time>
      </trkpt>
      <trkpt lat="42.1841" lon="9.04883">
        <ele>1963.63</ele>
        <time>2015-09-10T12:18:25Z</time>
      </trkpt>
      <trkpt lat="42.18395" lon="9.04869">
        <ele>1961.71</ele>
        <time>2015-09-10T12:18:43Z</time>
      </trkpt>
      <trkpt lat="42.18381" lon="9.04857">
        <ele>1958.82</ele>
        <time>2015-09-10T12:19:03Z</time>
      </trkpt>
      <trkpt lat="42.1837" lon="9.04846">
        <ele>1958.34</ele>
        <time>2015-09-10T12:19:20Z</time>
      </trkpt>
      <trkpt lat="42.1837" lon="9.04846">
        <ele>1959.78</ele>
        <time>2015-09-10T12:19:34Z</time>
      </trkpt>
      <trkpt lat="42.18369" lon="9.04846">
        <ele>1958.34</ele>
        <time>2015-09-10T12:19:41Z</time>
      </trkpt>
      <trkpt lat="42.18368" lon="9.04846">
        <ele>1958.34</ele>
        <time>2015-09-10T12:19:42Z</time>
      </trkpt>
      <trkpt lat="42.1835" lon="9.04842">
        <ele>1958.34</ele>
        <time>2015-09-10T12:19:59Z</time>
      </trkpt>
      <trkpt lat="42.18341" lon="9.04833">
        <ele>1958.34</ele>
        <time>2015-09-10T12:20:12Z</time>
      </trkpt>
      <trkpt lat="42.18329" lon="9.04825">
        <ele>1959.3</ele>
        <time>2015-09-10T12:20:28Z</time>
      </trkpt>
      <trkpt lat="42.18316" lon="9.0482">
        <ele>1959.78</ele>
        <time>2015-09-10T12:20:42Z</time>
      </trkpt>
      <trkpt lat="42.18309" lon="9.04816">
        <ele>1959.78</ele>
        <time>2015-09-10T12:20:51Z</time>
      </trkpt>
      <trkpt lat="42.18296" lon="9.04814">
        <ele>1958.82</ele>
        <time>2015-09-10T12:21:07Z</time>
      </trkpt>
      <trkpt lat="42.18285" lon="9.0481">
        <ele>1958.82</ele>
        <time>2015-09-10T12:21:22Z</time>
      </trkpt>
      <trkpt lat="42.18274" lon="9.04806">
        <ele>1958.82</ele>
        <time>2015-09-10T12:21:37Z</time>
      </trkpt>
      <trkpt lat="42.18259" lon="9.04803">
        <ele>1958.34</ele>
        <time>2015-09-10T12:21:55Z</time>
      </trkpt>
      <trkpt lat="42.18259" lon="9.04803">
        <ele>1958.34</ele>
        <time>2015-09-10T12:21:56Z</time>
      </trkpt>
      <trkpt lat="42.18249" lon="9.04801">
        <ele>1958.34</ele>
        <time>2015-09-10T12:22:07Z</time>
      </trkpt>
      <trkpt lat="42.18245" lon="9.048">
        <ele>1957.86</ele>
        <time>2015-09-10T12:22:12Z</time>
      </trkpt>
      <trkpt lat="42.1824" lon="9.048">
        <ele>1957.38</ele>
        <time>2015-09-10T12:22:17Z</time>
      </trkpt>
      <trkpt lat="42.18238" lon="9.04798">
        <ele>1956.9</ele>
        <time>2015-09-10T12:22:21Z</time>
      </trkpt>
      <trkpt lat="42.18225" lon="9.04793">
        <ele>1955.94</ele>
        <time>2015-09-10T12:22:38Z</time>
      </trkpt>
      <trkpt lat="42.18213" lon="9.04791">
        <ele>1954.98</ele>
        <time>2015-09-10T12:22:53Z</time>
      </trkpt>
      <trkpt lat="42.18202" lon="9.04784">
        <ele>1954.02</ele>
        <time>2015-09-10T12:23:10Z</time>
      </trkpt>
      <trkpt lat="42.1819" lon="9.0478">
        <ele>1953.06</ele>
        <time>2015-09-10T12:23:26Z</time>
      </trkpt>
      <trkpt lat="42.18184" lon="9.04774">
        <ele>1953.06</ele>
        <time>2015-09-10T12:23:36Z</time>
      </trkpt>
      <trkpt lat="42.18181" lon="9.04772">
        <ele>1953.06</ele>
        <time>2015-09-10T12:23:41Z</time>
      </trkpt>
      <trkpt lat="42.1816" lon="9.04766">
        <ele>1953.06</ele>
        <time>2015-09-10T12:24:02Z</time>
      </trkpt>
      <trkpt lat="42.18145" lon="9.04759">
        <ele>1952.09</ele>
        <time>2015-09-10T12:24:20Z</time>
      </trkpt>
      <trkpt lat="42.1813" lon="9.04761">
        <ele>1951.61</ele>
        <time>2015-09-10T12:24:38Z</time>
      </trkpt>
      <trkpt lat="42.18122" lon="9.04765">
        <ele>1949.21</ele>
        <time>2015-09-10T12:24:54Z</time>
      </trkpt>
      <trkpt lat="42.18112" lon="9.04765">
        <ele>1947.29</ele>
        <time>2015-09-10T12:25:08Z</time>
      </trkpt>
      <trkpt lat="42.18102" lon="9.04762">
        <ele>1946.33</ele>
        <time>2015-09-10T12:25:20Z</time>
      </trkpt>
      <trkpt lat="42.18086" lon="9.04762">
        <ele>1947.77</ele>
        <time>2015-09-10T12:25:38Z</time>
      </trkpt>
      <trkpt lat="42.18073" lon="9.04765">
        <ele>1948.25</ele>
        <time>2015-09-10T12:25:56Z</time>
      </trkpt>
      <trkpt lat="42.18062" lon="9.04768">
        <ele>1948.25</ele>
        <time>2015-09-10T12:26:12Z</time>
      </trkpt>
      <trkpt lat="42.18052" lon="9.04773">
        <ele>1950.17</ele>
        <time>2015-09-10T12:26:28Z</time>
      </trkpt>
      <trkpt lat="42.18044" lon="9.04778">
        <ele>1951.13</ele>
        <time>2015-09-10T12:26:43Z</time>
      </trkpt>
      <trkpt lat="42.18036" lon="9.0478">
        <ele>1954.02</ele>
        <time>2015-09-10T12:26:59Z</time>
      </trkpt>
      <trkpt lat="42.18029" lon="9.04783">
        <ele>1955.94</ele>
        <time>2015-09-10T12:27:16Z</time>
      </trkpt>
      <trkpt lat="42.18022" lon="9.04787">
        <ele>1957.38</ele>
        <time>2015-09-10T12:27:31Z</time>
      </trkpt>
      <trkpt lat="42.18013" lon="9.04788">
        <ele>1959.3</ele>
        <time>2015-09-10T12:27:50Z</time>
      </trkpt>
      <trkpt lat="42.18006" lon="9.0479">
        <ele>1960.27</ele>
        <time>2015-09-10T12:28:08Z</time>
      </trkpt>
      <trkpt lat="42.17999" lon="9.04788">
        <ele>1962.67</ele>
        <time>2015-09-10T12:28:27Z</time>
      </trkpt>
      <trkpt lat="42.17993" lon="9.04791">
        <ele>1964.59</ele>
        <time>2015-09-10T12:28:43Z</time>
      </trkpt>
      <trkpt lat="42.17986" lon="9.04793">
        <ele>1966.03</ele>
        <time>2015-09-10T12:28:59Z</time>
      </trkpt>
      <trkpt lat="42.17981" lon="9.04797">
        <ele>1968.92</ele>
        <time>2015-09-10T12:29:13Z</time>
      </trkpt>
      <trkpt lat="42.17975" lon="9.04802">
        <ele>1970.36</ele>
        <time>2015-09-10T12:29:29Z</time>
      </trkpt>
      <trkpt lat="42.17967" lon="9.04805">
        <ele>1972.28</ele>
        <time>2015-09-10T12:29:47Z</time>
      </trkpt>
      <trkpt lat="42.17959" lon="9.04806">
        <ele>1974.2</ele>
        <time>2015-09-10T12:30:04Z</time>
      </trkpt>
      <trkpt lat="42.17952" lon="9.04804">
        <ele>1975.17</ele>
        <time>2015-09-10T12:30:21Z</time>
      </trkpt>
      <trkpt lat="42.17949" lon="9.04807">
        <ele>1976.13</ele>
        <time>2015-09-10T12:30:28Z</time>
      </trkpt>
      <trkpt lat="42.17944" lon="9.04811">
        <ele>1977.09</ele>
        <time>2015-09-10T12:30:42Z</time>
      </trkpt>
      <trkpt lat="42.17936" lon="9.04813">
        <ele>1978.53</ele>
        <time>2015-09-10T12:30:58Z</time>
      </trkpt>
      <trkpt lat="42.17928" lon="9.04814">
        <ele>1980.45</ele>
        <time>2015-09-10T12:31:16Z</time>
      </trkpt>
      <trkpt lat="42.17921" lon="9.0482">
        <ele>1981.9</ele>
        <time>2015-09-10T12:31:31Z</time>
      </trkpt>
      <trkpt lat="42.17913" lon="9.0483">
        <ele>1983.82</ele>
        <time>2015-09-10T12:31:50Z</time>
      </trkpt>
      <trkpt lat="42.17905" lon="9.04839">
        <ele>1984.78</ele>
        <time>2015-09-10T12:32:05Z</time>
      </trkpt>
      <trkpt lat="42.17898" lon="9.04846">
        <ele>1986.22</ele>
        <time>2015-09-10T12:32:20Z</time>
      </trkpt>
      <trkpt lat="42.17891" lon="9.04856">
        <ele>1988.14</ele>
        <time>2015-09-10T12:32:38Z</time>
      </trkpt>
      <trkpt lat="42.17886" lon="9.04862">
        <ele>1990.07</ele>
        <time>2015-09-10T12:32:55Z</time>
      </trkpt>
      <trkpt lat="42.17878" lon="9.04867">
        <ele>1992.47</ele>
        <time>2015-09-10T12:33:14Z</time>
      </trkpt>
      <trkpt lat="42.17871" lon="9.04873">
        <ele>1994.39</ele>
        <time>2015-09-10T12:33:32Z</time>
      </trkpt>
      <trkpt lat="42.17864" lon="9.04876">
        <ele>1996.8</ele>
        <time>2015-09-10T12:33:50Z</time>
      </trkpt>
      <trkpt lat="42.17857" lon="9.04881">
        <ele>1999.2</ele>
        <time>2015-09-10T12:34:11Z</time>
      </trkpt>
      <trkpt lat="42.1785" lon="9.04888">
        <ele>2001.12</ele>
        <time>2015-09-10T12:34:30Z</time>
      </trkpt>
      <trkpt lat="42.17843" lon="9.04894">
        <ele>2003.04</ele>
        <time>2015-09-10T12:34:46Z</time>
      </trkpt>
      <trkpt lat="42.17837" lon="9.04898">
        <ele>2004.97</ele>
        <time>2015-09-10T12:35:03Z</time>
      </trkpt>
      <trkpt lat="42.17831" lon="9.04901">
        <ele>2008.33</ele>
        <time>2015-09-10T12:35:18Z</time>
      </trkpt>
      <trkpt lat="42.17825" lon="9.04903">
        <ele>2009.77</ele>
        <time>2015-09-10T12:35:35Z</time>
      </trkpt>
      <trkpt lat="42.17819" lon="9.04905">
        <ele>2011.22</ele>
        <time>2015-09-10T12:35:51Z</time>
      </trkpt>
      <trkpt lat="42.17813" lon="9.04907">
        <ele>2013.62</ele>
        <time>2015-09-10T12:36:09Z</time>
      </trkpt>
      <trkpt lat="42.17807" lon="9.04911">
        <ele>2015.54</ele>
        <time>2015-09-10T12:36:26Z</time>
      </trkpt>
      <trkpt lat="42.17798" lon="9.04916">
        <ele>2017.94</ele>
        <time>2015-09-10T12:36:46Z</time>
      </trkpt>
      <trkpt lat="42.1779" lon="9.04917">
        <ele>2020.35</ele>
        <time>2015-09-10T12:37:06Z</time>
      </trkpt>
      <trkpt lat="42.17783" lon="9.04921">
        <ele>2022.75</ele>
        <time>2015-09-10T12:37:25Z</time>
      </trkpt>
      <trkpt lat="42.17777" lon="9.04919">
        <ele>2024.67</ele>
        <time>2015-09-10T12:37:41Z</time>
      </trkpt>
      <trkpt lat="42.17772" lon="9.04922">
        <ele>2026.6</ele>
        <time>2015-09-10T12:37:54Z</time>
      </trkpt>
      <trkpt lat="42.17767" lon="9.04927">
        <ele>2027.56</ele>
        <time>2015-09-10T12:38:10Z</time>
      </trkpt>
      <trkpt lat="42.17762" lon="9.04924">
        <ele>2029.48</ele>
        <time>2015-09-10T12:38:25Z</time>
      </trkpt>
      <trkpt lat="42.17756" lon="9.04918">
        <ele>2030.44</ele>
        <time>2015-09-10T12:38:40Z</time>
      </trkpt>
      <trkpt lat="42.1775" lon="9.04914">
        <ele>2031.88</ele>
        <time>2015-09-10T12:38:55Z</time>
      </trkpt>
      <trkpt lat="42.17744" lon="9.04909">
        <ele>2032.84</ele>
        <time>2015-09-10T12:39:11Z</time>
      </trkpt>
      <trkpt lat="42.17736" lon="9.04904">
        <ele>2032.36</ele>
        <time>2015-09-10T12:39:28Z</time>
      </trkpt>
      <trkpt lat="42.17735" lon="9.04902">
        <ele>2033.81</ele>
        <time>2015-09-10T12:39:41Z</time>
      </trkpt>
      <trkpt lat="42.17733" lon="9.04902">
        <ele>2033.81</ele>
        <time>2015-09-10T12:39:44Z</time>
      </trkpt>
      <trkpt lat="42.17731" lon="9.04903">
        <ele>2031.88</ele>
        <time>2015-09-10T12:39:48Z</time>
      </trkpt>
      <trkpt lat="42.17729" lon="9.04902">
        <ele>2033.81</ele>
        <time>2015-09-10T12:39:51Z</time>
      </trkpt>
      <trkpt lat="42.17728" lon="9.04902">
        <ele>2031.88</ele>
        <time>2015-09-10T12:39:55Z</time>
      </trkpt>
      <trkpt lat="42.17723" lon="9.049">
        <ele>2029.96</ele>
        <time>2015-09-10T12:40:09Z</time>
      </trkpt>
      <trkpt lat="42.17717" lon="9.04894">
        <ele>2028.04</ele>
        <time>2015-09-10T12:40:26Z</time>
      </trkpt>
      <trkpt lat="42.17715" lon="9.04887">
        <ele>2027.56</ele>
        <time>2015-09-10T12:40:42Z</time>
      </trkpt>
      <trkpt lat="42.17711" lon="9.04889">
        <ele>2026.12</ele>
        <time>2015-09-10T12:40:58Z</time>
      </trkpt>
      <trkpt lat="42.17709" lon="9.04891">
        <ele>2023.71</ele>
        <time>2015-09-10T12:41:16Z</time>
      </trkpt>
      <trkpt lat="42.17706" lon="9.04888">
        <ele>2022.75</ele>
        <time>2015-09-10T12:41:29Z</time>
      </trkpt>
      <trkpt lat="42.17701" lon="9.04885">
        <ele>2021.31</ele>
        <time>2015-09-10T12:41:45Z</time>
      </trkpt>
      <trkpt lat="42.17698" lon="9.0488">
        <ele>2020.83</ele>
        <time>2015-09-10T12:42:00Z</time>
      </trkpt>
      <trkpt lat="42.17695" lon="9.04878">
        <ele>2019.87</ele>
        <time>2015-09-10T12:42:13Z</time>
      </trkpt>
      <trkpt lat="42.17691" lon="9.04876">
        <ele>2018.43</ele>
        <time>2015-09-10T12:42:27Z</time>
      </trkpt>
      <trkpt lat="42.17687" lon="9.04875">
        <ele>2017.46</ele>
        <time>2015-09-10T12:42:41Z</time>
      </trkpt>
      <trkpt lat="42.17682" lon="9.04873">
        <ele>2015.54</ele>
        <time>2015-09-10T12:42:57Z</time>
      </trkpt>
      <trkpt lat="42.17675" lon="9.0487">
        <ele>2015.06</ele>
        <time>2015-09-10T12:43:13Z</time>
      </trkpt>
      <trkpt lat="42.17669" lon="9.04868">
        <ele>2015.06</ele>
        <time>2015-09-10T12:43:31Z</time>
      </trkpt>
      <trkpt lat="42.17663" lon="9.04865">
        <ele>2013.14</ele>
        <time>2015-09-10T12:43:46Z</time>
      </trkpt>
      <trkpt lat="42.17654" lon="9.04859">
        <ele>2013.14</ele>
        <time>2015-09-10T12:44:01Z</time>
      </trkpt>
      <trkpt lat="42.17648" lon="9.04852">
        <ele>2012.18</ele>
        <time>2015-09-10T12:44:15Z</time>
      </trkpt>
      <trkpt lat="42.17641" lon="9.04846">
        <ele>2011.7</ele>
        <time>2015-09-10T12:44:30Z</time>
      </trkpt>
      <trkpt lat="42.17639" lon="9.04839">
        <ele>2014.1</ele>
        <time>2015-09-10T12:44:45Z</time>
      </trkpt>
      <trkpt lat="42.17634" lon="9.04837">
        <ele>2015.54</ele>
        <time>2015-09-10T12:45:01Z</time>
      </trkpt>
      <trkpt lat="42.17624" lon="9.04835">
        <ele>2016.5</ele>
        <time>2015-09-10T12:45:18Z</time>
      </trkpt>
      <trkpt lat="42.17616" lon="9.04836">
        <ele>2015.06</ele>
        <time>2015-09-10T12:45:33Z</time>
      </trkpt>
      <trkpt lat="42.1761" lon="9.04831">
        <ele>2014.1</ele>
        <time>2015-09-10T12:45:49Z</time>
      </trkpt>
      <trkpt lat="42.17602" lon="9.04827">
        <ele>2015.06</ele>
        <time>2015-09-10T12:46:05Z</time>
      </trkpt>
      <trkpt lat="42.17593" lon="9.04824">
        <ele>2016.98</ele>
        <time>2015-09-10T12:46:21Z</time>
      </trkpt>
      <trkpt lat="42.17586" lon="9.04819">
        <ele>2017.94</ele>
        <time>2015-09-10T12:46:37Z</time>
      </trkpt>
      <trkpt lat="42.17583" lon="9.04818">
        <ele>2019.39</ele>
        <time>2015-09-10T12:46:48Z</time>
      </trkpt>
      <trkpt lat="42.17573" lon="9.04817">
        <ele>2019.87</ele>
        <time>2015-09-10T12:47:04Z</time>
      </trkpt>
      <trkpt lat="42.17564" lon="9.04819">
        <ele>2018.91</ele>
        <time>2015-09-10T12:47:21Z</time>
      </trkpt>
      <trkpt lat="42.17557" lon="9.04818">
        <ele>2016.5</ele>
        <time>2015-09-10T12:47:33Z</time>
      </trkpt>
      <trkpt lat="42.17553" lon="9.04813">
        <ele>2013.62</ele>
        <time>2015-09-10T12:47:48Z</time>
      </trkpt>
      <trkpt lat="42.17546" lon="9.04817">
        <ele>2011.22</ele>
        <time>2015-09-10T12:48:04Z</time>
      </trkpt>
      <trkpt lat="42.17542" lon="9.04818">
        <ele>2009.29</ele>
        <time>2015-09-10T12:48:18Z</time>
      </trkpt>
      <trkpt lat="42.17539" lon="9.04815">
        <ele>2006.41</ele>
        <time>2015-09-10T12:48:35Z</time>
      </trkpt>
      <trkpt lat="42.17536" lon="9.04818">
        <ele>2005.45</ele>
        <time>2015-09-10T12:48:43Z</time>
      </trkpt>
      <trkpt lat="42.17531" lon="9.04818">
        <ele>2003.52</ele>
        <time>2015-09-10T12:48:59Z</time>
      </trkpt>
      <trkpt lat="42.17527" lon="9.04814">
        <ele>2000.16</ele>
        <time>2015-09-10T12:49:14Z</time>
      </trkpt>
      <trkpt lat="42.17525" lon="9.04819">
        <ele>1998.72</ele>
        <time>2015-09-10T12:49:29Z</time>
      </trkpt>
      <trkpt lat="42.17523" lon="9.04824">
        <ele>1995.83</ele>
        <time>2015-09-10T12:49:43Z</time>
      </trkpt>
      <trkpt lat="42.1752" lon="9.04827">
        <ele>1993.91</ele>
        <time>2015-09-10T12:49:59Z</time>
      </trkpt>
      <trkpt lat="42.17514" lon="9.04825">
        <ele>1991.51</ele>
        <time>2015-09-10T12:50:15Z</time>
      </trkpt>
      <trkpt lat="42.17509" lon="9.04823">
        <ele>1988.62</ele>
        <time>2015-09-10T12:50:30Z</time>
      </trkpt>
      <trkpt lat="42.17507" lon="9.04825">
        <ele>1986.7</ele>
        <time>2015-09-10T12:50:46Z</time>
      </trkpt>
      <trkpt lat="42.17503" lon="9.04824">
        <ele>1984.3</ele>
        <time>2015-09-10T12:51:04Z</time>
      </trkpt>
      <trkpt lat="42.17498" lon="9.04821">
        <ele>1981.9</ele>
        <time>2015-09-10T12:51:22Z</time>
      </trkpt>
      <trkpt lat="42.17498" lon="9.04823">
        <ele>1979.97</ele>
        <time>2015-09-10T12:51:41Z</time>
      </trkpt>
      <trkpt lat="42.17492" lon="9.04824">
        <ele>1977.57</ele>
        <time>2015-09-10T12:51:58Z</time>
      </trkpt>
      <trkpt lat="42.17487" lon="9.04824">
        <ele>1974.69</ele>
        <time>2015-09-10T12:52:14Z</time>
      </trkpt>
      <trkpt lat="42.17482" lon="9.04827">
        <ele>1972.76</ele>
        <time>2015-09-10T12:52:30Z</time>
      </trkpt>
      <trkpt lat="42.17478" lon="9.04825">
        <ele>1969.4</ele>
        <time>2015-09-10T12:52:40Z</time>
      </trkpt>
      <trkpt lat="42.17472" lon="9.04827">
        <ele>1967.48</ele>
        <time>2015-09-10T12:52:55Z</time>
      </trkpt>
      <trkpt lat="42.17468" lon="9.04826">
        <ele>1965.07</ele>
        <time>2015-09-10T12:53:12Z</time>
      </trkpt>
      <trkpt lat="42.17464" lon="9.04831">
        <ele>1963.15</ele>
        <time>2015-09-10T12:53:28Z</time>
      </trkpt>
      <trkpt lat="42.17459" lon="9.04828">
        <ele>1960.75</ele>
        <time>2015-09-10T12:53:41Z</time>
      </trkpt>
      <trkpt lat="42.17451" lon="9.04826">
        <ele>1956.9</ele>
        <time>2015-09-10T12:53:59Z</time>
      </trkpt>
      <trkpt lat="42.17445" lon="9.04826">
        <ele>1954.5</ele>
        <time>2015-09-10T12:54:14Z</time>
      </trkpt>
      <trkpt lat="42.17438" lon="9.0483">
        <ele>1952.57</ele>
        <time>2015-09-10T12:54:30Z</time>
      </trkpt>
      <trkpt lat="42.1743" lon="9.04831">
        <ele>1949.21</ele>
        <time>2015-09-10T12:54:45Z</time>
      </trkpt>
      <trkpt lat="42.17423" lon="9.04834">
        <ele>1946.81</ele>
        <time>2015-09-10T12:55:00Z</time>
      </trkpt>
      <trkpt lat="42.17421" lon="9.04839">
        <ele>1944.4</ele>
        <time>2015-09-10T12:55:15Z</time>
      </trkpt>
      <trkpt lat="42.1742" lon="9.04842">
        <ele>1942.48</ele>
        <time>2015-09-10T12:55:29Z</time>
      </trkpt>
      <trkpt lat="42.17414" lon="9.04844">
        <ele>1940.56</ele>
        <time>2015-09-10T12:55:46Z</time>
      </trkpt>
      <trkpt lat="42.17411" lon="9.04847">
        <ele>1938.16</ele>
        <time>2015-09-10T12:56:02Z</time>
      </trkpt>
      <trkpt lat="42.17409" lon="9.04852">
        <ele>1935.27</ele>
        <time>2015-09-10T12:56:17Z</time>
      </trkpt>
      <trkpt lat="42.17406" lon="9.04849">
        <ele>1933.35</ele>
        <time>2015-09-10T12:56:35Z</time>
      </trkpt>
      <trkpt lat="42.17403" lon="9.0485">
        <ele>1931.43</ele>
        <time>2015-09-10T12:56:50Z</time>
      </trkpt>
      <trkpt lat="42.17399" lon="9.04849">
        <ele>1929.5</ele>
        <time>2015-09-10T12:57:06Z</time>
      </trkpt>
      <trkpt lat="42.17394" lon="9.04849">
        <ele>1926.62</ele>
        <time>2015-09-10T12:57:23Z</time>
      </trkpt>
      <trkpt lat="42.17389" lon="9.04849">
        <ele>1924.22</ele>
        <time>2015-09-10T12:57:39Z</time>
      </trkpt>
      <trkpt lat="42.17384" lon="9.04847">
        <ele>1921.81</ele>
        <time>2015-09-10T12:57:54Z</time>
      </trkpt>
      <trkpt lat="42.17381" lon="9.04846">
        <ele>1918.93</ele>
        <time>2015-09-10T12:58:12Z</time>
      </trkpt>
      <trkpt lat="42.17376" lon="9.04843">
        <ele>1916.53</ele>
        <time>2015-09-10T12:58:27Z</time>
      </trkpt>
      <trkpt lat="42.17374" lon="9.0484">
        <ele>1915.08</ele>
        <time>2015-09-10T12:58:42Z</time>
      </trkpt>
      <trkpt lat="42.17372" lon="9.04839">
        <ele>1913.64</ele>
        <time>2015-09-10T12:58:57Z</time>
      </trkpt>
      <trkpt lat="42.1737" lon="9.04838">
        <ele>1912.68</ele>
        <time>2015-09-10T12:59:14Z</time>
      </trkpt>
      <trkpt lat="42.17368" lon="9.04837">
        <ele>1910.76</ele>
        <time>2015-09-10T12:59:31Z</time>
      </trkpt>
      <trkpt lat="42.17366" lon="9.04836">
        <ele>1909.32</ele>
        <time>2015-09-10T12:59:51Z</time>
      </trkpt>
      <trkpt lat="42.17365" lon="9.04836">
        <ele>1907.87</ele>
        <time>2015-09-10T13:00:06Z</time>
      </trkpt>
      <trkpt lat="42.17363" lon="9.04838">
        <ele>1905.95</ele>
        <time>2015-09-10T13:00:19Z</time>
      </trkpt>
      <trkpt lat="42.17358" lon="9.0484">
        <ele>1904.03</ele>
        <time>2015-09-10T13:00:36Z</time>
      </trkpt>
      <trkpt lat="42.17353" lon="9.04843">
        <ele>1902.11</ele>
        <time>2015-09-10T13:00:51Z</time>
      </trkpt>
      <trkpt lat="42.17347" lon="9.0484">
        <ele>1898.74</ele>
        <time>2015-09-10T13:01:04Z</time>
      </trkpt>
      <trkpt lat="42.17345" lon="9.04842">
        <ele>1898.26</ele>
        <time>2015-09-10T13:01:10Z</time>
      </trkpt>
      <trkpt lat="42.17341" lon="9.04845">
        <ele>1894.9</ele>
        <time>2015-09-10T13:01:21Z</time>
      </trkpt>
      <trkpt lat="42.17335" lon="9.04851">
        <ele>1892.49</ele>
        <time>2015-09-10T13:01:38Z</time>
      </trkpt>
      <trkpt lat="42.17325" lon="9.04852">
        <ele>1889.61</ele>
        <time>2015-09-10T13:01:55Z</time>
      </trkpt>
      <trkpt lat="42.17323" lon="9.04854">
        <ele>1889.13</ele>
        <time>2015-09-10T13:02:19Z</time>
      </trkpt>
      <trkpt lat="42.17323" lon="9.04853">
        <ele>1889.13</ele>
        <time>2015-09-10T13:02:47Z</time>
      </trkpt>
      <trkpt lat="42.17323" lon="9.04853">
        <ele>1890.57</ele>
        <time>2015-09-10T13:03:07Z</time>
      </trkpt>
      <trkpt lat="42.17316" lon="9.04856">
        <ele>1891.05</ele>
        <time>2015-09-10T13:03:24Z</time>
      </trkpt>
      <trkpt lat="42.17303" lon="9.0486">
        <ele>1891.53</ele>
        <time>2015-09-10T13:03:41Z</time>
      </trkpt>
      <trkpt lat="42.17302" lon="9.04861">
        <ele>1891.53</ele>
        <time>2015-09-10T13:03:45Z</time>
      </trkpt>
      <trkpt lat="42.17294" lon="9.04867">
        <ele>1892.01</ele>
        <time>2015-09-10T13:03:59Z</time>
      </trkpt>
      <trkpt lat="42.17284" lon="9.04874">
        <ele>1892.49</ele>
        <time>2015-09-10T13:04:15Z</time>
      </trkpt>
      <trkpt lat="42.17282" lon="9.04877">
        <ele>1892.97</ele>
        <time>2015-09-10T13:04:19Z</time>
      </trkpt>
      <trkpt lat="42.17272" lon="9.0489">
        <ele>1893.93</ele>
        <time>2015-09-10T13:04:37Z</time>
      </trkpt>
      <trkpt lat="42.17267" lon="9.0489">
        <ele>1892.97</ele>
        <time>2015-09-10T13:04:44Z</time>
      </trkpt>
      <trkpt lat="42.17265" lon="9.04891">
        <ele>1892.97</ele>
        <time>2015-09-10T13:04:47Z</time>
      </trkpt>
      <trkpt lat="42.17261" lon="9.04891">
        <ele>1892.01</ele>
        <time>2015-09-10T13:04:52Z</time>
      </trkpt>
      <trkpt lat="42.17258" lon="9.04891">
        <ele>1891.53</ele>
        <time>2015-09-10T13:04:55Z</time>
      </trkpt>
      <trkpt lat="42.17254" lon="9.04891">
        <ele>1890.57</ele>
        <time>2015-09-10T13:04:59Z</time>
      </trkpt>
      <trkpt lat="42.17242" lon="9.04896">
        <ele>1890.57</ele>
        <time>2015-09-10T13:05:16Z</time>
      </trkpt>
      <trkpt lat="42.17238" lon="9.04899">
        <ele>1892.01</ele>
        <time>2015-09-10T13:05:22Z</time>
      </trkpt>
      <trkpt lat="42.17228" lon="9.04907">
        <ele>1892.97</ele>
        <time>2015-09-10T13:05:37Z</time>
      </trkpt>
      <trkpt lat="42.17221" lon="9.04913">
        <ele>1893.93</ele>
        <time>2015-09-10T13:05:50Z</time>
      </trkpt>
      <trkpt lat="42.17211" lon="9.04922">
        <ele>1893.93</ele>
        <time>2015-09-10T13:06:07Z</time>
      </trkpt>
      <trkpt lat="42.17204" lon="9.04931">
        <ele>1894.42</ele>
        <time>2015-09-10T13:06:21Z</time>
      </trkpt>
      <trkpt lat="42.17201" lon="9.04934">
        <ele>1894.42</ele>
        <time>2015-09-10T13:06:26Z</time>
      </trkpt>
      <trkpt lat="42.17198" lon="9.04937">
        <ele>1893.45</ele>
        <time>2015-09-10T13:06:30Z</time>
      </trkpt>
      <trkpt lat="42.17189" lon="9.0494">
        <ele>1891.05</ele>
        <time>2015-09-10T13:06:41Z</time>
      </trkpt>
      <trkpt lat="42.17181" lon="9.04944">
        <ele>1889.61</ele>
        <time>2015-09-10T13:06:51Z</time>
      </trkpt>
      <trkpt lat="42.17178" lon="9.04945">
        <ele>1891.05</ele>
        <time>2015-09-10T13:06:54Z</time>
      </trkpt>
      <trkpt lat="42.17166" lon="9.04954">
        <ele>1892.49</ele>
        <time>2015-09-10T13:07:11Z</time>
      </trkpt>
      <trkpt lat="42.17162" lon="9.04959">
        <ele>1891.05</ele>
        <time>2015-09-10T13:07:22Z</time>
      </trkpt>
      <trkpt lat="42.17158" lon="9.04964">
        <ele>1892.49</ele>
        <time>2015-09-10T13:07:34Z</time>
      </trkpt>
      <trkpt lat="42.17153" lon="9.04971">
        <ele>1893.45</ele>
        <time>2015-09-10T13:07:49Z</time>
      </trkpt>
      <trkpt lat="42.17152" lon="9.04972">
        <ele>1892.01</ele>
        <time>2015-09-10T13:07:51Z</time>
      </trkpt>
      <trkpt lat="42.17147" lon="9.04979">
        <ele>1891.05</ele>
        <time>2015-09-10T13:08:08Z</time>
      </trkpt>
      <trkpt lat="42.17145" lon="9.04984">
        <ele>1888.17</ele>
        <time>2015-09-10T13:08:25Z</time>
      </trkpt>
      <trkpt lat="42.1714" lon="9.04991">
        <ele>1887.69</ele>
        <time>2015-09-10T13:08:40Z</time>
      </trkpt>
      <trkpt lat="42.17136" lon="9.04994">
        <ele>1889.13</ele>
        <time>2015-09-10T13:08:50Z</time>
      </trkpt>
      <trkpt lat="42.17129" lon="9.04998">
        <ele>1890.09</ele>
        <time>2015-09-10T13:09:04Z</time>
      </trkpt>
      <trkpt lat="42.17127" lon="9.04999">
        <ele>1891.05</ele>
        <time>2015-09-10T13:09:20Z</time>
      </trkpt>
      <trkpt lat="42.17125" lon="9.05002">
        <ele>1892.49</ele>
        <time>2015-09-10T13:09:38Z</time>
      </trkpt>
      <trkpt lat="42.1712" lon="9.05007">
        <ele>1892.97</ele>
        <time>2015-09-10T13:09:54Z</time>
      </trkpt>
      <trkpt lat="42.17116" lon="9.0501">
        <ele>1894.42</ele>
        <time>2015-09-10T13:10:09Z</time>
      </trkpt>
      <trkpt lat="42.17115" lon="9.05013">
        <ele>1895.86</ele>
        <time>2015-09-10T13:10:24Z</time>
      </trkpt>
      <trkpt lat="42.17114" lon="9.05012">
        <ele>1897.3</ele>
        <time>2015-09-10T13:10:41Z</time>
      </trkpt>
      <trkpt lat="42.17112" lon="9.05009">
        <ele>1899.22</ele>
        <time>2015-09-10T13:11:00Z</time>
      </trkpt>
      <trkpt lat="42.1711" lon="9.05011">
        <ele>1900.66</ele>
        <time>2015-09-10T13:11:17Z</time>
      </trkpt>
      <trkpt lat="42.17108" lon="9.05014">
        <ele>1902.11</ele>
        <time>2015-09-10T13:11:32Z</time>
      </trkpt>
      <trkpt lat="42.17106" lon="9.05022">
        <ele>1903.07</ele>
        <time>2015-09-10T13:11:47Z</time>
      </trkpt>
      <trkpt lat="42.17104" lon="9.0503">
        <ele>1902.11</ele>
        <time>2015-09-10T13:12:01Z</time>
      </trkpt>
      <trkpt lat="42.17103" lon="9.05037">
        <ele>1900.18</ele>
        <time>2015-09-10T13:12:17Z</time>
      </trkpt>
      <trkpt lat="42.17102" lon="9.05042">
        <ele>1899.22</ele>
        <time>2015-09-10T13:12:32Z</time>
      </trkpt>
      <trkpt lat="42.17095" lon="9.05048">
        <ele>1900.18</ele>
        <time>2015-09-10T13:12:48Z</time>
      </trkpt>
      <trkpt lat="42.17093" lon="9.05053">
        <ele>1900.18</ele>
        <time>2015-09-10T13:13:03Z</time>
      </trkpt>
      <trkpt lat="42.17088" lon="9.05059">
        <ele>1901.63</ele>
        <time>2015-09-10T13:13:21Z</time>
      </trkpt>
      <trkpt lat="42.17084" lon="9.05063">
        <ele>1904.03</ele>
        <time>2015-09-10T13:13:37Z</time>
      </trkpt>
      <trkpt lat="42.17079" lon="9.05069">
        <ele>1905.47</ele>
        <time>2015-09-10T13:13:51Z</time>
      </trkpt>
      <trkpt lat="42.17075" lon="9.05071">
        <ele>1906.91</ele>
        <time>2015-09-10T13:14:08Z</time>
      </trkpt>
      <trkpt lat="42.17072" lon="9.05076">
        <ele>1908.35</ele>
        <time>2015-09-10T13:14:27Z</time>
      </trkpt>
      <trkpt lat="42.17075" lon="9.05078">
        <ele>1906.43</ele>
        <time>2015-09-10T13:14:44Z</time>
      </trkpt>
      <trkpt lat="42.17071" lon="9.05088">
        <ele>1904.51</ele>
        <time>2015-09-10T13:14:58Z</time>
      </trkpt>
      <trkpt lat="42.17066" lon="9.05094">
        <ele>1904.51</ele>
        <time>2015-09-10T13:15:11Z</time>
      </trkpt>
      <trkpt lat="42.1706" lon="9.05097">
        <ele>1904.03</ele>
        <time>2015-09-10T13:15:27Z</time>
      </trkpt>
      <trkpt lat="42.17057" lon="9.05102">
        <ele>1904.03</ele>
        <time>2015-09-10T13:15:40Z</time>
      </trkpt>
      <trkpt lat="42.17051" lon="9.05106">
        <ele>1905.95</ele>
        <time>2015-09-10T13:15:57Z</time>
      </trkpt>
      <trkpt lat="42.17047" lon="9.05114">
        <ele>1903.55</ele>
        <time>2015-09-10T13:16:15Z</time>
      </trkpt>
      <trkpt lat="42.17044" lon="9.05114">
        <ele>1904.99</ele>
        <time>2015-09-10T13:16:28Z</time>
      </trkpt>
      <trkpt lat="42.17039" lon="9.05118">
        <ele>1906.43</ele>
        <time>2015-09-10T13:16:41Z</time>
      </trkpt>
      <trkpt lat="42.17038" lon="9.05122">
        <ele>1906.43</ele>
        <time>2015-09-10T13:16:55Z</time>
      </trkpt>
      <trkpt lat="42.17036" lon="9.05126">
        <ele>1908.35</ele>
        <time>2015-09-10T13:17:15Z</time>
      </trkpt>
      <trkpt lat="42.17032" lon="9.05127">
        <ele>1909.32</ele>
        <time>2015-09-10T13:17:29Z</time>
      </trkpt>
      <trkpt lat="42.17026" lon="9.05131">
        <ele>1910.28</ele>
        <time>2015-09-10T13:17:47Z</time>
      </trkpt>
      <trkpt lat="42.17026" lon="9.05134">
        <ele>1908.83</ele>
        <time>2015-09-10T13:17:57Z</time>
      </trkpt>
      <trkpt lat="42.17025" lon="9.05137">
        <ele>1907.87</ele>
        <time>2015-09-10T13:18:12Z</time>
      </trkpt>
      <trkpt lat="42.17025" lon="9.05145">
        <ele>1909.32</ele>
        <time>2015-09-10T13:18:25Z</time>
      </trkpt>
      <trkpt lat="42.17021" lon="9.05154">
        <ele>1910.76</ele>
        <time>2015-09-10T13:18:41Z</time>
      </trkpt>
      <trkpt lat="42.1702" lon="9.05156">
        <ele>1911.72</ele>
        <time>2015-09-10T13:18:55Z</time>
      </trkpt>
      <trkpt lat="42.17019" lon="9.05152">
        <ele>1913.64</ele>
        <time>2015-09-10T13:19:12Z</time>
      </trkpt>
      <trkpt lat="42.17017" lon="9.05156">
        <ele>1914.6</ele>
        <time>2015-09-10T13:19:27Z</time>
      </trkpt>
      <trkpt lat="42.17015" lon="9.0516">
        <ele>1916.53</ele>
        <time>2015-09-10T13:19:41Z</time>
      </trkpt>
      <trkpt lat="42.17012" lon="9.05162">
        <ele>1917.97</ele>
        <time>2015-09-10T13:19:55Z</time>
      </trkpt>
      <trkpt lat="42.1701" lon="9.05164">
        <ele>1918.93</ele>
        <time>2015-09-10T13:20:07Z</time>
      </trkpt>
      <trkpt lat="42.17005" lon="9.05165">
        <ele>1920.85</ele>
        <time>2015-09-10T13:20:24Z</time>
      </trkpt>
      <trkpt lat="42.17005" lon="9.05166">
        <ele>1921.33</ele>
        <time>2015-09-10T13:20:41Z</time>
      </trkpt>
      <trkpt lat="42.17002" lon="9.05165">
        <ele>1923.25</ele>
        <time>2015-09-10T13:21:00Z</time>
      </trkpt>
      <trkpt lat="42.16999" lon="9.05163">
        <ele>1924.22</ele>
        <time>2015-09-10T13:21:17Z</time>
      </trkpt>
      <trkpt lat="42.17001" lon="9.05161">
        <ele>1924.7</ele>
        <time>2015-09-10T13:21:36Z</time>
      </trkpt>
      <trkpt lat="42.17" lon="9.05157">
        <ele>1926.14</ele>
        <time>2015-09-10T13:21:51Z</time>
      </trkpt>
      <trkpt lat="42.16997" lon="9.05152">
        <ele>1928.06</ele>
        <time>2015-09-10T13:22:09Z</time>
      </trkpt>
      <trkpt lat="42.16995" lon="9.05152">
        <ele>1929.5</ele>
        <time>2015-09-10T13:22:23Z</time>
      </trkpt>
      <trkpt lat="42.16994" lon="9.05154">
        <ele>1930.46</ele>
        <time>2015-09-10T13:22:38Z</time>
      </trkpt>
      <trkpt lat="42.16992" lon="9.05152">
        <ele>1931.91</ele>
        <time>2015-09-10T13:22:57Z</time>
      </trkpt>
      <trkpt lat="42.16991" lon="9.05154">
        <ele>1933.83</ele>
        <time>2015-09-10T13:23:14Z</time>
      </trkpt>
      <trkpt lat="42.1699" lon="9.05151">
        <ele>1935.27</ele>
        <time>2015-09-10T13:23:34Z</time>
      </trkpt>
      <trkpt lat="42.16989" lon="9.05151">
        <ele>1937.19</ele>
        <time>2015-09-10T13:23:53Z</time>
      </trkpt>
      <trkpt lat="42.16988" lon="9.0515">
        <ele>1937.67</ele>
        <time>2015-09-10T13:24:11Z</time>
      </trkpt>
      <trkpt lat="42.16988" lon="9.05151">
        <ele>1939.12</ele>
        <time>2015-09-10T13:24:27Z</time>
      </trkpt>
      <trkpt lat="42.16987" lon="9.05148">
        <ele>1940.56</ele>
        <time>2015-09-10T13:24:44Z</time>
      </trkpt>
      <trkpt lat="42.16985" lon="9.05146">
        <ele>1941.52</ele>
        <time>2015-09-10T13:25:02Z</time>
      </trkpt>
      <trkpt lat="42.16985" lon="9.05142">
        <ele>1943.92</ele>
        <time>2015-09-10T13:25:24Z</time>
      </trkpt>
      <trkpt lat="42.16984" lon="9.05141">
        <ele>1945.85</ele>
        <time>2015-09-10T13:25:42Z</time>
      </trkpt>
      <trkpt lat="42.16981" lon="9.05138">
        <ele>1947.29</ele>
        <time>2015-09-10T13:26:02Z</time>
      </trkpt>
      <trkpt lat="42.1698" lon="9.05135">
        <ele>1946.81</ele>
        <time>2015-09-10T13:26:21Z</time>
      </trkpt>
      <trkpt lat="42.16977" lon="9.05134">
        <ele>1943.92</ele>
        <time>2015-09-10T13:26:39Z</time>
      </trkpt>
      <trkpt lat="42.16973" lon="9.05136">
        <ele>1941.52</ele>
        <time>2015-09-10T13:26:56Z</time>
      </trkpt>
      <trkpt lat="42.16973" lon="9.05135">
        <ele>1942.96</ele>
        <time>2015-09-10T13:26:59Z</time>
      </trkpt>
      <trkpt lat="42.16977" lon="9.05136">
        <ele>1943.92</ele>
        <time>2015-09-10T13:27:16Z</time>
      </trkpt>
      <trkpt lat="42.1698" lon="9.05134">
        <ele>1945.85</ele>
        <time>2015-09-10T13:27:32Z</time>
      </trkpt>
      <trkpt lat="42.1698" lon="9.0514">
        <ele>1948.25</ele>
        <time>2015-09-10T13:27:51Z</time>
      </trkpt>
      <trkpt lat="42.16978" lon="9.05143">
        <ele>1949.69</ele>
        <time>2015-09-10T13:28:09Z</time>
      </trkpt>
      <trkpt lat="42.16977" lon="9.05148">
        <ele>1950.17</ele>
        <time>2015-09-10T13:28:22Z</time>
      </trkpt>
      <trkpt lat="42.16975" lon="9.05156">
        <ele>1952.57</ele>
        <time>2015-09-10T13:28:38Z</time>
      </trkpt>
      <trkpt lat="42.16972" lon="9.05159">
        <ele>1952.09</ele>
        <time>2015-09-10T13:28:45Z</time>
      </trkpt>
      <trkpt lat="42.16969" lon="9.05172">
        <ele>1952.57</ele>
        <time>2015-09-10T13:29:02Z</time>
      </trkpt>
      <trkpt lat="42.16969" lon="9.05177">
        <ele>1955.46</ele>
        <time>2015-09-10T13:29:11Z</time>
      </trkpt>
      <trkpt lat="42.16967" lon="9.05187">
        <ele>1953.06</ele>
        <time>2015-09-10T13:29:27Z</time>
      </trkpt>
      <trkpt lat="42.16965" lon="9.05197">
        <ele>1951.61</ele>
        <time>2015-09-10T13:29:41Z</time>
      </trkpt>
      <trkpt lat="42.16961" lon="9.05213">
        <ele>1951.61</ele>
        <time>2015-09-10T13:29:58Z</time>
      </trkpt>
      <trkpt lat="42.16959" lon="9.05227">
        <ele>1952.57</ele>
        <time>2015-09-10T13:30:12Z</time>
      </trkpt>
      <trkpt lat="42.16954" lon="9.0524">
        <ele>1952.57</ele>
        <time>2015-09-10T13:30:27Z</time>
      </trkpt>
      <trkpt lat="42.16952" lon="9.05248">
        <ele>1952.57</ele>
        <time>2015-09-10T13:30:35Z</time>
      </trkpt>
      <trkpt lat="42.16952" lon="9.05254">
        <ele>1952.57</ele>
        <time>2015-09-10T13:30:40Z</time>
      </trkpt>
      <trkpt lat="42.16946" lon="9.05267">
        <ele>1952.57</ele>
        <time>2015-09-10T13:30:53Z</time>
      </trkpt>
      <trkpt lat="42.16934" lon="9.05285">
        <ele>1951.61</ele>
        <time>2015-09-10T13:31:14Z</time>
      </trkpt>
      <trkpt lat="42.16931" lon="9.05295">
        <ele>1951.61</ele>
        <time>2015-09-10T13:31:31Z</time>
      </trkpt>
      <trkpt lat="42.1693" lon="9.05303">
        <ele>1954.5</ele>
        <time>2015-09-10T13:31:45Z</time>
      </trkpt>
      <trkpt lat="42.1693" lon="9.05304">
        <ele>1954.5</ele>
        <time>2015-09-10T13:31:46Z</time>
      </trkpt>
      <trkpt lat="42.16927" lon="9.05315">
        <ele>1953.54</ele>
        <time>2015-09-10T13:32:01Z</time>
      </trkpt>
      <trkpt lat="42.16925" lon="9.05318">
        <ele>1953.54</ele>
        <time>2015-09-10T13:32:05Z</time>
      </trkpt>
      <trkpt lat="42.16924" lon="9.05323">
        <ele>1953.54</ele>
        <time>2015-09-10T13:32:10Z</time>
      </trkpt>
      <trkpt lat="42.1692" lon="9.0534">
        <ele>1954.98</ele>
        <time>2015-09-10T13:32:28Z</time>
      </trkpt>
      <trkpt lat="42.16914" lon="9.05351">
        <ele>1955.46</ele>
        <time>2015-09-10T13:32:42Z</time>
      </trkpt>
      <trkpt lat="42.16907" lon="9.05373">
        <ele>1955.46</ele>
        <time>2015-09-10T13:33:00Z</time>
      </trkpt>
      <trkpt lat="42.16907" lon="9.05374">
        <ele>1955.46</ele>
        <time>2015-09-10T13:33:01Z</time>
      </trkpt>
      <trkpt lat="42.16898" lon="9.05396">
        <ele>1955.46</ele>
        <time>2015-09-10T13:33:20Z</time>
      </trkpt>
      <trkpt lat="42.16894" lon="9.05405">
        <ele>1954.02</ele>
        <time>2015-09-10T13:33:27Z</time>
      </trkpt>
      <trkpt lat="42.16887" lon="9.05424">
        <ele>1955.46</ele>
        <time>2015-09-10T13:33:45Z</time>
      </trkpt>
      <trkpt lat="42.16882" lon="9.05443">
        <ele>1956.42</ele>
        <time>2015-09-10T13:34:02Z</time>
      </trkpt>
      <trkpt lat="42.16878" lon="9.05455">
        <ele>1956.42</ele>
        <time>2015-09-10T13:34:16Z</time>
      </trkpt>
      <trkpt lat="42.16877" lon="9.05459">
        <ele>1956.42</ele>
        <time>2015-09-10T13:34:19Z</time>
      </trkpt>
      <trkpt lat="42.16875" lon="9.05467">
        <ele>1956.9</ele>
        <time>2015-09-10T13:34:26Z</time>
      </trkpt>
      <trkpt lat="42.16871" lon="9.05482">
        <ele>1957.38</ele>
        <time>2015-09-10T13:34:41Z</time>
      </trkpt>
      <trkpt lat="42.16868" lon="9.05496">
        <ele>1957.86</ele>
        <time>2015-09-10T13:34:53Z</time>
      </trkpt>
      <trkpt lat="42.16863" lon="9.05514">
        <ele>1958.34</ele>
        <time>2015-09-10T13:35:11Z</time>
      </trkpt>
      <trkpt lat="42.16864" lon="9.05527">
        <ele>1959.3</ele>
        <time>2015-09-10T13:35:26Z</time>
      </trkpt>
      <trkpt lat="42.16864" lon="9.05543">
        <ele>1957.38</ele>
        <time>2015-09-10T13:35:41Z</time>
      </trkpt>
      <trkpt lat="42.16864" lon="9.05562">
        <ele>1956.9</ele>
        <time>2015-09-10T13:35:58Z</time>
      </trkpt>
      <trkpt lat="42.16865" lon="9.05579">
        <ele>1954.5</ele>
        <time>2015-09-10T13:36:15Z</time>
      </trkpt>
      <trkpt lat="42.16867" lon="9.05587">
        <ele>1953.54</ele>
        <time>2015-09-10T13:36:24Z</time>
      </trkpt>
      <trkpt lat="42.16867" lon="9.05608">
        <ele>1951.61</ele>
        <time>2015-09-10T13:36:41Z</time>
      </trkpt>
      <trkpt lat="42.16864" lon="9.05626">
        <ele>1949.21</ele>
        <time>2015-09-10T13:36:59Z</time>
      </trkpt>
      <trkpt lat="42.16865" lon="9.05641">
        <ele>1949.21</ele>
        <time>2015-09-10T13:37:13Z</time>
      </trkpt>
      <trkpt lat="42.16866" lon="9.05657">
        <ele>1947.77</ele>
        <time>2015-09-10T13:37:31Z</time>
      </trkpt>
      <trkpt lat="42.16864" lon="9.05672">
        <ele>1945.85</ele>
        <time>2015-09-10T13:37:48Z</time>
      </trkpt>
      <trkpt lat="42.16862" lon="9.05686">
        <ele>1943.44</ele>
        <time>2015-09-10T13:38:06Z</time>
      </trkpt>
      <trkpt lat="42.16862" lon="9.05689">
        <ele>1943.44</ele>
        <time>2015-09-10T13:38:10Z</time>
      </trkpt>
      <trkpt lat="42.16861" lon="9.05706">
        <ele>1941.52</ele>
        <time>2015-09-10T13:38:27Z</time>
      </trkpt>
      <trkpt lat="42.16861" lon="9.05711">
        <ele>1941.52</ele>
        <time>2015-09-10T13:38:31Z</time>
      </trkpt>
      <trkpt lat="42.1686" lon="9.05715">
        <ele>1941.52</ele>
        <time>2015-09-10T13:38:35Z</time>
      </trkpt>
      <trkpt lat="42.16865" lon="9.0574">
        <ele>1941.04</ele>
        <time>2015-09-10T13:38:55Z</time>
      </trkpt>
      <trkpt lat="42.16861" lon="9.05755">
        <ele>1939.12</ele>
        <time>2015-09-10T13:39:13Z</time>
      </trkpt>
      <trkpt lat="42.16861" lon="9.05768">
        <ele>1937.67</ele>
        <time>2015-09-10T13:39:29Z</time>
      </trkpt>
      <trkpt lat="42.16858" lon="9.05774">
        <ele>1934.31</ele>
        <time>2015-09-10T13:39:44Z</time>
      </trkpt>
      <trkpt lat="42.16859" lon="9.05779">
        <ele>1932.87</ele>
        <time>2015-09-10T13:39:52Z</time>
      </trkpt>
      <trkpt lat="42.16858" lon="9.05791">
        <ele>1930.95</ele>
        <time>2015-09-10T13:40:07Z</time>
      </trkpt>
      <trkpt lat="42.16859" lon="9.05799">
        <ele>1929.98</ele>
        <time>2015-09-10T13:40:16Z</time>
      </trkpt>
      <trkpt lat="42.16857" lon="9.05817">
        <ele>1928.54</ele>
        <time>2015-09-10T13:40:33Z</time>
      </trkpt>
      <trkpt lat="42.16854" lon="9.05835">
        <ele>1928.06</ele>
        <time>2015-09-10T13:40:50Z</time>
      </trkpt>
      <trkpt lat="42.16852" lon="9.0585">
        <ele>1927.58</ele>
        <time>2015-09-10T13:41:09Z</time>
      </trkpt>
      <trkpt lat="42.16849" lon="9.05867">
        <ele>1926.14</ele>
        <time>2015-09-10T13:41:27Z</time>
      </trkpt>
      <trkpt lat="42.16847" lon="9.05881">
        <ele>1924.22</ele>
        <time>2015-09-10T13:41:42Z</time>
      </trkpt>
      <trkpt lat="42.16843" lon="9.05893">
        <ele>1922.29</ele>
        <time>2015-09-10T13:41:56Z</time>
      </trkpt>
      <trkpt lat="42.16838" lon="9.059">
        <ele>1921.81</ele>
        <time>2015-09-10T13:42:11Z</time>
      </trkpt>
      <trkpt lat="42.16836" lon="9.0591">
        <ele>1920.85</ele>
        <time>2015-09-10T13:42:21Z</time>
      </trkpt>
      <trkpt lat="42.16833" lon="9.05919">
        <ele>1919.89</ele>
        <time>2015-09-10T13:42:40Z</time>
      </trkpt>
      <trkpt lat="42.16832" lon="9.0592">
        <ele>1919.41</ele>
        <time>2015-09-10T13:43:03Z</time>
      </trkpt>
      <trkpt lat="42.16832" lon="9.0592">
        <ele>1919.41</ele>
        <time>2015-09-10T13:43:24Z</time>
      </trkpt>
      <trkpt lat="42.16832" lon="9.05922">
        <ele>1919.41</ele>
        <time>2015-09-10T13:43:42Z</time>
      </trkpt>
      <trkpt lat="42.16831" lon="9.05926">
        <ele>1919.89</ele>
        <time>2015-09-10T13:44:04Z</time>
      </trkpt>
      <trkpt lat="42.16825" lon="9.05943">
        <ele>1919.89</ele>
        <time>2015-09-10T13:44:22Z</time>
      </trkpt>
      <trkpt lat="42.1682" lon="9.05955">
        <ele>1917.01</ele>
        <time>2015-09-10T13:44:37Z</time>
      </trkpt>
      <trkpt lat="42.16819" lon="9.05959">
        <ele>1917.01</ele>
        <time>2015-09-10T13:44:40Z</time>
      </trkpt>
      <trkpt lat="42.16819" lon="9.05963">
        <ele>1917.01</ele>
        <time>2015-09-10T13:44:43Z</time>
      </trkpt>
      <trkpt lat="42.16815" lon="9.0597">
        <ele>1916.04</ele>
        <time>2015-09-10T13:44:49Z</time>
      </trkpt>
      <trkpt lat="42.16809" lon="9.05977">
        <ele>1915.08</ele>
        <time>2015-09-10T13:45:00Z</time>
      </trkpt>
      <trkpt lat="42.16798" lon="9.05986">
        <ele>1913.16</ele>
        <time>2015-09-10T13:45:16Z</time>
      </trkpt>
      <trkpt lat="42.1679" lon="9.05996">
        <ele>1911.72</ele>
        <time>2015-09-10T13:45:34Z</time>
      </trkpt>
      <trkpt lat="42.16788" lon="9.05998">
        <ele>1911.24</ele>
        <time>2015-09-10T13:45:38Z</time>
      </trkpt>
      <trkpt lat="42.1678" lon="9.06015">
        <ele>1910.28</ele>
        <time>2015-09-10T13:45:53Z</time>
      </trkpt>
      <trkpt lat="42.16772" lon="9.06023">
        <ele>1909.8</ele>
        <time>2015-09-10T13:46:02Z</time>
      </trkpt>
      <trkpt lat="42.16765" lon="9.06039">
        <ele>1908.35</ele>
        <time>2015-09-10T13:46:20Z</time>
      </trkpt>
      <trkpt lat="42.16759" lon="9.0605">
        <ele>1908.35</ele>
        <time>2015-09-10T13:46:32Z</time>
      </trkpt>
      <trkpt lat="42.1675" lon="9.0606">
        <ele>1907.39</ele>
        <time>2015-09-10T13:46:44Z</time>
      </trkpt>
      <trkpt lat="42.16736" lon="9.06072">
        <ele>1907.39</ele>
        <time>2015-09-10T13:47:02Z</time>
      </trkpt>
      <trkpt lat="42.16733" lon="9.06076">
        <ele>1906.91</ele>
        <time>2015-09-10T13:47:09Z</time>
      </trkpt>
      <trkpt lat="42.16726" lon="9.06092">
        <ele>1905.95</ele>
        <time>2015-09-10T13:47:25Z</time>
      </trkpt>
      <trkpt lat="42.16724" lon="9.06097">
        <ele>1905.95</ele>
        <time>2015-09-10T13:47:30Z</time>
      </trkpt>
      <trkpt lat="42.16719" lon="9.06109">
        <ele>1904.03</ele>
        <time>2015-09-10T13:47:48Z</time>
      </trkpt>
      <trkpt lat="42.16719" lon="9.06125">
        <ele>1902.11</ele>
        <time>2015-09-10T13:48:05Z</time>
      </trkpt>
      <trkpt lat="42.16715" lon="9.0614">
        <ele>1899.7</ele>
        <time>2015-09-10T13:48:20Z</time>
      </trkpt>
      <trkpt lat="42.16715" lon="9.06144">
        <ele>1899.22</ele>
        <time>2015-09-10T13:48:24Z</time>
      </trkpt>
      <trkpt lat="42.16713" lon="9.06164">
        <ele>1897.78</ele>
        <time>2015-09-10T13:48:42Z</time>
      </trkpt>
      <trkpt lat="42.1671" lon="9.06178">
        <ele>1896.34</ele>
        <time>2015-09-10T13:48:58Z</time>
      </trkpt>
      <trkpt lat="42.16711" lon="9.06192">
        <ele>1894.42</ele>
        <time>2015-09-10T13:49:13Z</time>
      </trkpt>
      <trkpt lat="42.1671" lon="9.0621">
        <ele>1892.49</ele>
        <time>2015-09-10T13:49:31Z</time>
      </trkpt>
      <trkpt lat="42.16711" lon="9.06225">
        <ele>1890.57</ele>
        <time>2015-09-10T13:49:45Z</time>
      </trkpt>
      <trkpt lat="42.16709" lon="9.06242">
        <ele>1888.17</ele>
        <time>2015-09-10T13:50:02Z</time>
      </trkpt>
      <trkpt lat="42.16706" lon="9.06255">
        <ele>1886.24</ele>
        <time>2015-09-10T13:50:15Z</time>
      </trkpt>
      <trkpt lat="42.16703" lon="9.06271">
        <ele>1884.32</ele>
        <time>2015-09-10T13:50:30Z</time>
      </trkpt>
      <trkpt lat="42.16702" lon="9.06287">
        <ele>1882.4</ele>
        <time>2015-09-10T13:50:46Z</time>
      </trkpt>
      <trkpt lat="42.167" lon="9.06302">
        <ele>1880.48</ele>
        <time>2015-09-10T13:51:00Z</time>
      </trkpt>
      <trkpt lat="42.167" lon="9.06317">
        <ele>1878.55</ele>
        <time>2015-09-10T13:51:14Z</time>
      </trkpt>
      <trkpt lat="42.16696" lon="9.06335">
        <ele>1878.07</ele>
        <time>2015-09-10T13:51:30Z</time>
      </trkpt>
      <trkpt lat="42.16692" lon="9.0635">
        <ele>1876.63</ele>
        <time>2015-09-10T13:51:46Z</time>
      </trkpt>
      <trkpt lat="42.16691" lon="9.0636">
        <ele>1875.19</ele>
        <time>2015-09-10T13:52:01Z</time>
      </trkpt>
      <trkpt lat="42.1669" lon="9.06363">
        <ele>1874.71</ele>
        <time>2015-09-10T13:52:06Z</time>
      </trkpt>
      <trkpt lat="42.16688" lon="9.06376">
        <ele>1872.79</ele>
        <time>2015-09-10T13:52:23Z</time>
      </trkpt>
      <trkpt lat="42.16685" lon="9.0639">
        <ele>1870.86</ele>
        <time>2015-09-10T13:52:39Z</time>
      </trkpt>
      <trkpt lat="42.16684" lon="9.06404">
        <ele>1868.46</ele>
        <time>2015-09-10T13:52:54Z</time>
      </trkpt>
      <trkpt lat="42.16681" lon="9.06414">
        <ele>1865.58</ele>
        <time>2015-09-10T13:53:10Z</time>
      </trkpt>
      <trkpt lat="42.16674" lon="9.06415">
        <ele>1863.65</ele>
        <time>2015-09-10T13:53:24Z</time>
      </trkpt>
      <trkpt lat="42.16668" lon="9.06418">
        <ele>1860.29</ele>
        <time>2015-09-10T13:53:40Z</time>
      </trkpt>
      <trkpt lat="42.16665" lon="9.06428">
        <ele>1857.89</ele>
        <time>2015-09-10T13:53:54Z</time>
      </trkpt>
      <trkpt lat="42.16659" lon="9.06433">
        <ele>1854.52</ele>
        <time>2015-09-10T13:54:07Z</time>
      </trkpt>
      <trkpt lat="42.16652" lon="9.0644">
        <ele>1851.64</ele>
        <time>2015-09-10T13:54:21Z</time>
      </trkpt>
      <trkpt lat="42.16645" lon="9.06454">
        <ele>1847.79</ele>
        <time>2015-09-10T13:54:38Z</time>
      </trkpt>
      <trkpt lat="42.16638" lon="9.06458">
        <ele>1845.39</ele>
        <time>2015-09-10T13:54:49Z</time>
      </trkpt>
      <trkpt lat="42.16635" lon="9.06466">
        <ele>1844.91</ele>
        <time>2015-09-10T13:54:55Z</time>
      </trkpt>
      <trkpt lat="42.16627" lon="9.06487">
        <ele>1842.02</ele>
        <time>2015-09-10T13:55:15Z</time>
      </trkpt>
      <trkpt lat="42.1662" lon="9.06506">
        <ele>1839.62</ele>
        <time>2015-09-10T13:55:33Z</time>
      </trkpt>
      <trkpt lat="42.16607" lon="9.0652">
        <ele>1837.22</ele>
        <time>2015-09-10T13:55:52Z</time>
      </trkpt>
      <trkpt lat="42.16599" lon="9.06523">
        <ele>1833.85</ele>
        <time>2015-09-10T13:56:05Z</time>
      </trkpt>
      <trkpt lat="42.1659" lon="9.06532">
        <ele>1831.45</ele>
        <time>2015-09-10T13:56:22Z</time>
      </trkpt>
      <trkpt lat="42.16584" lon="9.06535">
        <ele>1828.56</ele>
        <time>2015-09-10T13:56:34Z</time>
      </trkpt>
      <trkpt lat="42.16573" lon="9.06535">
        <ele>1825.2</ele>
        <time>2015-09-10T13:56:50Z</time>
      </trkpt>
      <trkpt lat="42.16566" lon="9.0654">
        <ele>1821.84</ele>
        <time>2015-09-10T13:57:02Z</time>
      </trkpt>
      <trkpt lat="42.16555" lon="9.06541">
        <ele>1818.47</ele>
        <time>2015-09-10T13:57:17Z</time>
      </trkpt>
      <trkpt lat="42.16553" lon="9.06543">
        <ele>1818.47</ele>
        <time>2015-09-10T13:57:20Z</time>
      </trkpt>
      <trkpt lat="42.16544" lon="9.06546">
        <ele>1815.59</ele>
        <time>2015-09-10T13:57:35Z</time>
      </trkpt>
      <trkpt lat="42.16539" lon="9.06549">
        <ele>1814.15</ele>
        <time>2015-09-10T13:57:43Z</time>
      </trkpt>
      <trkpt lat="42.1653" lon="9.06547">
        <ele>1811.26</ele>
        <time>2015-09-10T13:57:58Z</time>
      </trkpt>
      <trkpt lat="42.16521" lon="9.06551">
        <ele>1808.86</ele>
        <time>2015-09-10T13:58:14Z</time>
      </trkpt>
      <trkpt lat="42.16514" lon="9.0655">
        <ele>1805.97</ele>
        <time>2015-09-10T13:58:31Z</time>
      </trkpt>
      <trkpt lat="42.16508" lon="9.0655">
        <ele>1802.61</ele>
        <time>2015-09-10T13:58:45Z</time>
      </trkpt>
      <trkpt lat="42.16499" lon="9.06551">
        <ele>1799.24</ele>
        <time>2015-09-10T13:59:00Z</time>
      </trkpt>
      <trkpt lat="42.16491" lon="9.06547">
        <ele>1795.88</ele>
        <time>2015-09-10T13:59:16Z</time>
      </trkpt>
      <trkpt lat="42.1648" lon="9.06537">
        <ele>1794.44</ele>
        <time>2015-09-10T13:59:33Z</time>
      </trkpt>
      <trkpt lat="42.16473" lon="9.06536">
        <ele>1791.07</ele>
        <time>2015-09-10T13:59:45Z</time>
      </trkpt>
      <trkpt lat="42.16471" lon="9.06536">
        <ele>1790.59</ele>
        <time>2015-09-10T13:59:49Z</time>
      </trkpt>
      <trkpt lat="42.16466" lon="9.06538">
        <ele>1788.19</ele>
        <time>2015-09-10T14:00:01Z</time>
      </trkpt>
      <trkpt lat="42.16456" lon="9.06536">
        <ele>1785.31</ele>
        <time>2015-09-10T14:00:17Z</time>
      </trkpt>
      <trkpt lat="42.16452" lon="9.06539">
        <ele>1782.42</ele>
        <time>2015-09-10T14:00:30Z</time>
      </trkpt>
      <trkpt lat="42.16448" lon="9.06545">
        <ele>1779.54</ele>
        <time>2015-09-10T14:00:45Z</time>
      </trkpt>
      <trkpt lat="42.16442" lon="9.06547">
        <ele>1777.13</ele>
        <time>2015-09-10T14:00:59Z</time>
      </trkpt>
      <trkpt lat="42.16438" lon="9.06552">
        <ele>1775.21</ele>
        <time>2015-09-10T14:01:14Z</time>
      </trkpt>
      <trkpt lat="42.1643" lon="9.06551">
        <ele>1772.33</ele>
        <time>2015-09-10T14:01:27Z</time>
      </trkpt>
      <trkpt lat="42.16424" lon="9.06551">
        <ele>1769.44</ele>
        <time>2015-09-10T14:01:41Z</time>
      </trkpt>
      <trkpt lat="42.16415" lon="9.06548">
        <ele>1766.56</ele>
        <time>2015-09-10T14:01:59Z</time>
      </trkpt>
      <trkpt lat="42.1641" lon="9.06547">
        <ele>1764.64</ele>
        <time>2015-09-10T14:02:08Z</time>
      </trkpt>
      <trkpt lat="42.16404" lon="9.06546">
        <ele>1761.75</ele>
        <time>2015-09-10T14:02:20Z</time>
      </trkpt>
      <trkpt lat="42.16397" lon="9.06551">
        <ele>1758.87</ele>
        <time>2015-09-10T14:02:34Z</time>
      </trkpt>
      <trkpt lat="42.16388" lon="9.06549">
        <ele>1756.47</ele>
        <time>2015-09-10T14:02:50Z</time>
      </trkpt>
      <trkpt lat="42.16379" lon="9.0655">
        <ele>1754.06</ele>
        <time>2015-09-10T14:03:06Z</time>
      </trkpt>
      <trkpt lat="42.16373" lon="9.06552">
        <ele>1751.66</ele>
        <time>2015-09-10T14:03:18Z</time>
      </trkpt>
      <trkpt lat="42.16364" lon="9.06555">
        <ele>1747.81</ele>
        <time>2015-09-10T14:03:32Z</time>
      </trkpt>
      <trkpt lat="42.16357" lon="9.06552">
        <ele>1746.37</ele>
        <time>2015-09-10T14:03:48Z</time>
      </trkpt>
      <trkpt lat="42.1635" lon="9.06561">
        <ele>1743.97</ele>
        <time>2015-09-10T14:04:03Z</time>
      </trkpt>
      <trkpt lat="42.1634" lon="9.06567">
        <ele>1740.6</ele>
        <time>2015-09-10T14:04:19Z</time>
      </trkpt>
      <trkpt lat="42.16331" lon="9.06568">
        <ele>1737.72</ele>
        <time>2015-09-10T14:04:37Z</time>
      </trkpt>
      <trkpt lat="42.16326" lon="9.06572">
        <ele>1735.8</ele>
        <time>2015-09-10T14:04:54Z</time>
      </trkpt>
      <trkpt lat="42.16322" lon="9.06574">
        <ele>1733.88</ele>
        <time>2015-09-10T14:05:13Z</time>
      </trkpt>
      <trkpt lat="42.16313" lon="9.06574">
        <ele>1730.99</ele>
        <time>2015-09-10T14:05:30Z</time>
      </trkpt>
      <trkpt lat="42.16306" lon="9.06576">
        <ele>1727.63</ele>
        <time>2015-09-10T14:05:45Z</time>
      </trkpt>
      <trkpt lat="42.16304" lon="9.06575">
        <ele>1726.67</ele>
        <time>2015-09-10T14:05:50Z</time>
      </trkpt>
      <trkpt lat="42.163" lon="9.06577">
        <ele>1725.7</ele>
        <time>2015-09-10T14:05:58Z</time>
      </trkpt>
      <trkpt lat="42.16299" lon="9.06579">
        <ele>1724.74</ele>
        <time>2015-09-10T14:06:01Z</time>
      </trkpt>
      <trkpt lat="42.16291" lon="9.06579">
        <ele>1722.82</ele>
        <time>2015-09-10T14:06:16Z</time>
      </trkpt>
      <trkpt lat="42.16288" lon="9.06579">
        <ele>1721.86</ele>
        <time>2015-09-10T14:06:21Z</time>
      </trkpt>
      <trkpt lat="42.16281" lon="9.06579">
        <ele>1718.97</ele>
        <time>2015-09-10T14:06:34Z</time>
      </trkpt>
      <trkpt lat="42.16275" lon="9.0658">
        <ele>1716.57</ele>
        <time>2015-09-10T14:06:49Z</time>
      </trkpt>
      <trkpt lat="42.16264" lon="9.06575">
        <ele>1714.65</ele>
        <time>2015-09-10T14:07:06Z</time>
      </trkpt>
      <trkpt lat="42.16258" lon="9.06574">
        <ele>1712.73</ele>
        <time>2015-09-10T14:07:21Z</time>
      </trkpt>
      <trkpt lat="42.16251" lon="9.06574">
        <ele>1710.8</ele>
        <time>2015-09-10T14:07:38Z</time>
      </trkpt>
      <trkpt lat="42.16247" lon="9.06579">
        <ele>1708.4</ele>
        <time>2015-09-10T14:07:53Z</time>
      </trkpt>
      <trkpt lat="42.16244" lon="9.0658">
        <ele>1707.44</ele>
        <time>2015-09-10T14:08:08Z</time>
      </trkpt>
      <trkpt lat="42.16237" lon="9.06583">
        <ele>1704.07</ele>
        <time>2015-09-10T14:08:23Z</time>
      </trkpt>
      <trkpt lat="42.1623" lon="9.06586">
        <ele>1702.15</ele>
        <time>2015-09-10T14:08:38Z</time>
      </trkpt>
      <trkpt lat="42.16226" lon="9.06591">
        <ele>1699.75</ele>
        <time>2015-09-10T14:08:52Z</time>
      </trkpt>
      <trkpt lat="42.16215" lon="9.06595">
        <ele>1695.42</ele>
        <time>2015-09-10T14:09:10Z</time>
      </trkpt>
      <trkpt lat="42.16212" lon="9.06595">
        <ele>1695.42</ele>
        <time>2015-09-10T14:09:14Z</time>
      </trkpt>
      <trkpt lat="42.16209" lon="9.06592">
        <ele>1694.94</ele>
        <time>2015-09-10T14:09:20Z</time>
      </trkpt>
      <trkpt lat="42.162" lon="9.06593">
        <ele>1692.54</ele>
        <time>2015-09-10T14:09:36Z</time>
      </trkpt>
      <trkpt lat="42.16191" lon="9.06596">
        <ele>1690.62</ele>
        <time>2015-09-10T14:09:52Z</time>
      </trkpt>
      <trkpt lat="42.16183" lon="9.06596">
        <ele>1688.21</ele>
        <time>2015-09-10T14:10:07Z</time>
      </trkpt>
      <trkpt lat="42.16173" lon="9.06596">
        <ele>1686.29</ele>
        <time>2015-09-10T14:10:22Z</time>
      </trkpt>
      <trkpt lat="42.16164" lon="9.06596">
        <ele>1683.89</ele>
        <time>2015-09-10T14:10:38Z</time>
      </trkpt>
      <trkpt lat="42.16153" lon="9.06596">
        <ele>1681.48</ele>
        <time>2015-09-10T14:10:54Z</time>
      </trkpt>
      <trkpt lat="42.16145" lon="9.06591">
        <ele>1680.04</ele>
        <time>2015-09-10T14:11:13Z</time>
      </trkpt>
      <trkpt lat="42.1614" lon="9.06588">
        <ele>1677.64</ele>
        <time>2015-09-10T14:11:30Z</time>
      </trkpt>
      <trkpt lat="42.16137" lon="9.06587">
        <ele>1676.68</ele>
        <time>2015-09-10T14:11:39Z</time>
      </trkpt>
      <trkpt lat="42.16131" lon="9.06588">
        <ele>1674.75</ele>
        <time>2015-09-10T14:11:53Z</time>
      </trkpt>
      <trkpt lat="42.16125" lon="9.06591">
        <ele>1671.87</ele>
        <time>2015-09-10T14:12:07Z</time>
      </trkpt>
      <trkpt lat="42.16119" lon="9.06588">
        <ele>1669.95</ele>
        <time>2015-09-10T14:12:22Z</time>
      </trkpt>
      <trkpt lat="42.16116" lon="9.06589">
        <ele>1668.51</ele>
        <time>2015-09-10T14:12:38Z</time>
      </trkpt>
      <trkpt lat="42.16116" lon="9.06588">
        <ele>1668.51</ele>
        <time>2015-09-10T14:13:07Z</time>
      </trkpt>
      <trkpt lat="42.16116" lon="9.06589">
        <ele>1667.54</ele>
        <time>2015-09-10T14:13:29Z</time>
      </trkpt>
      <trkpt lat="42.16115" lon="9.0659">
        <ele>1667.54</ele>
        <time>2015-09-10T14:14:06Z</time>
      </trkpt>
      <trkpt lat="42.16117" lon="9.06591">
        <ele>1667.06</ele>
        <time>2015-09-10T14:14:40Z</time>
      </trkpt>
      <trkpt lat="42.16117" lon="9.0659">
        <ele>1668.51</ele>
        <time>2015-09-10T14:14:46Z</time>
      </trkpt>
      <trkpt lat="42.16114" lon="9.06588">
        <ele>1667.06</ele>
        <time>2015-09-10T14:14:58Z</time>
      </trkpt>
      <trkpt lat="42.16109" lon="9.06586">
        <ele>1666.1</ele>
        <time>2015-09-10T14:15:12Z</time>
      </trkpt>
      <trkpt lat="42.16103" lon="9.06586">
        <ele>1663.7</ele>
        <time>2015-09-10T14:15:28Z</time>
      </trkpt>
      <trkpt lat="42.16092" lon="9.06587">
        <ele>1660.81</ele>
        <time>2015-09-10T14:15:45Z</time>
      </trkpt>
      <trkpt lat="42.16083" lon="9.06589">
        <ele>1657.93</ele>
        <time>2015-09-10T14:16:02Z</time>
      </trkpt>
      <trkpt lat="42.16075" lon="9.06591">
        <ele>1656.01</ele>
        <time>2015-09-10T14:16:19Z</time>
      </trkpt>
      <trkpt lat="42.16072" lon="9.06592">
        <ele>1652.64</ele>
        <time>2015-09-10T14:16:27Z</time>
      </trkpt>
      <trkpt lat="42.16071" lon="9.06592">
        <ele>1652.64</ele>
        <time>2015-09-10T14:16:28Z</time>
      </trkpt>
      <trkpt lat="42.16065" lon="9.06592">
        <ele>1651.2</ele>
        <time>2015-09-10T14:16:43Z</time>
      </trkpt>
      <trkpt lat="42.1606" lon="9.06592">
        <ele>1648.32</ele>
        <time>2015-09-10T14:16:59Z</time>
      </trkpt>
      <trkpt lat="42.16053" lon="9.06593">
        <ele>1645.91</ele>
        <time>2015-09-10T14:17:15Z</time>
      </trkpt>
      <trkpt lat="42.16044" lon="9.06597">
        <ele>1643.51</ele>
        <time>2015-09-10T14:17:32Z</time>
      </trkpt>
      <trkpt lat="42.16036" lon="9.06598">
        <ele>1642.07</ele>
        <time>2015-09-10T14:17:49Z</time>
      </trkpt>
      <trkpt lat="42.16028" lon="9.06601">
        <ele>1639.67</ele>
        <time>2015-09-10T14:18:07Z</time>
      </trkpt>
      <trkpt lat="42.16024" lon="9.06611">
        <ele>1637.74</ele>
        <time>2015-09-10T14:18:24Z</time>
      </trkpt>
      <trkpt lat="42.16019" lon="9.06611">
        <ele>1635.34</ele>
        <time>2015-09-10T14:18:37Z</time>
      </trkpt>
      <trkpt lat="42.16012" lon="9.06616">
        <ele>1633.9</ele>
        <time>2015-09-10T14:18:52Z</time>
      </trkpt>
      <trkpt lat="42.16004" lon="9.06626">
        <ele>1630.53</ele>
        <time>2015-09-10T14:19:08Z</time>
      </trkpt>
      <trkpt lat="42.15998" lon="9.06631">
        <ele>1628.13</ele>
        <time>2015-09-10T14:19:23Z</time>
      </trkpt>
      <trkpt lat="42.15994" lon="9.0664">
        <ele>1626.69</ele>
        <time>2015-09-10T14:19:37Z</time>
      </trkpt>
      <trkpt lat="42.15987" lon="9.06649">
        <ele>1624.28</ele>
        <time>2015-09-10T14:19:53Z</time>
      </trkpt>
      <trkpt lat="42.15979" lon="9.06655">
        <ele>1620.92</ele>
        <time>2015-09-10T14:20:09Z</time>
      </trkpt>
      <trkpt lat="42.15972" lon="9.06657">
        <ele>1619.48</ele>
        <time>2015-09-10T14:20:23Z</time>
      </trkpt>
      <trkpt lat="42.15965" lon="9.0666">
        <ele>1617.07</ele>
        <time>2015-09-10T14:20:34Z</time>
      </trkpt>
      <trkpt lat="42.1596" lon="9.06664">
        <ele>1615.15</ele>
        <time>2015-09-10T14:20:48Z</time>
      </trkpt>
      <trkpt lat="42.15954" lon="9.06668">
        <ele>1613.23</ele>
        <time>2015-09-10T14:21:08Z</time>
      </trkpt>
      <trkpt lat="42.15952" lon="9.06669">
        <ele>1610.83</ele>
        <time>2015-09-10T14:21:13Z</time>
      </trkpt>
      <trkpt lat="42.1595" lon="9.06673">
        <ele>1611.79</ele>
        <time>2015-09-10T14:21:20Z</time>
      </trkpt>
      <trkpt lat="42.15947" lon="9.06678">
        <ele>1608.42</ele>
        <time>2015-09-10T14:21:34Z</time>
      </trkpt>
      <trkpt lat="42.15942" lon="9.0668">
        <ele>1605.54</ele>
        <time>2015-09-10T14:21:50Z</time>
      </trkpt>
      <trkpt lat="42.15935" lon="9.06682">
        <ele>1602.66</ele>
        <time>2015-09-10T14:22:06Z</time>
      </trkpt>
      <trkpt lat="42.1593" lon="9.06682">
        <ele>1600.73</ele>
        <time>2015-09-10T14:22:20Z</time>
      </trkpt>
      <trkpt lat="42.15924" lon="9.06684">
        <ele>1598.81</ele>
        <time>2015-09-10T14:22:37Z</time>
      </trkpt>
      <trkpt lat="42.15923" lon="9.06685">
        <ele>1596.89</ele>
        <time>2015-09-10T14:22:40Z</time>
      </trkpt>
      <trkpt lat="42.15918" lon="9.06684">
        <ele>1594.96</ele>
        <time>2015-09-10T14:22:55Z</time>
      </trkpt>
      <trkpt lat="42.15917" lon="9.06691">
        <ele>1592.56</ele>
        <time>2015-09-10T14:23:12Z</time>
      </trkpt>
      <trkpt lat="42.15911" lon="9.06693">
        <ele>1588.72</ele>
        <time>2015-09-10T14:23:24Z</time>
      </trkpt>
      <trkpt lat="42.15907" lon="9.06696">
        <ele>1587.75</ele>
        <time>2015-09-10T14:23:36Z</time>
      </trkpt>
      <trkpt lat="42.15901" lon="9.06694">
        <ele>1585.35</ele>
        <time>2015-09-10T14:23:51Z</time>
      </trkpt>
      <trkpt lat="42.15898" lon="9.06697">
        <ele>1583.91</ele>
        <time>2015-09-10T14:24:04Z</time>
      </trkpt>
      <trkpt lat="42.15894" lon="9.06696">
        <ele>1581.51</ele>
        <time>2015-09-10T14:24:18Z</time>
      </trkpt>
      <trkpt lat="42.1589" lon="9.067">
        <ele>1579.58</ele>
        <time>2015-09-10T14:24:32Z</time>
      </trkpt>
      <trkpt lat="42.15884" lon="9.067">
        <ele>1577.66</ele>
        <time>2015-09-10T14:24:47Z</time>
      </trkpt>
      <trkpt lat="42.15879" lon="9.06699">
        <ele>1574.3</ele>
        <time>2015-09-10T14:25:02Z</time>
      </trkpt>
      <trkpt lat="42.15873" lon="9.06704">
        <ele>1571.41</ele>
        <time>2015-09-10T14:25:18Z</time>
      </trkpt>
      <trkpt lat="42.15871" lon="9.06709">
        <ele>1569.01</ele>
        <time>2015-09-10T14:25:33Z</time>
      </trkpt>
      <trkpt lat="42.15864" lon="9.06711">
        <ele>1565.64</ele>
        <time>2015-09-10T14:25:49Z</time>
      </trkpt>
      <trkpt lat="42.15861" lon="9.06717">
        <ele>1563.72</ele>
        <time>2015-09-10T14:26:04Z</time>
      </trkpt>
      <trkpt lat="42.15857" lon="9.06721">
        <ele>1561.32</ele>
        <time>2015-09-10T14:26:20Z</time>
      </trkpt>
      <trkpt lat="42.15852" lon="9.06724">
        <ele>1557.95</ele>
        <time>2015-09-10T14:26:34Z</time>
      </trkpt>
      <trkpt lat="42.15847" lon="9.06727">
        <ele>1556.03</ele>
        <time>2015-09-10T14:26:50Z</time>
      </trkpt>
      <trkpt lat="42.15842" lon="9.0673">
        <ele>1553.63</ele>
        <time>2015-09-10T14:27:07Z</time>
      </trkpt>
      <trkpt lat="42.1584" lon="9.06734">
        <ele>1551.71</ele>
        <time>2015-09-10T14:27:16Z</time>
      </trkpt>
      <trkpt lat="42.15835" lon="9.06739">
        <ele>1550.26</ele>
        <time>2015-09-10T14:27:31Z</time>
      </trkpt>
      <trkpt lat="42.1583" lon="9.06738">
        <ele>1547.86</ele>
        <time>2015-09-10T14:27:46Z</time>
      </trkpt>
      <trkpt lat="42.15826" lon="9.06743">
        <ele>1545.94</ele>
        <time>2015-09-10T14:28:00Z</time>
      </trkpt>
      <trkpt lat="42.15821" lon="9.06749">
        <ele>1543.05</ele>
        <time>2015-09-10T14:28:16Z</time>
      </trkpt>
      <trkpt lat="42.1582" lon="9.06754">
        <ele>1541.61</ele>
        <time>2015-09-10T14:28:31Z</time>
      </trkpt>
      <trkpt lat="42.15815" lon="9.06757">
        <ele>1539.21</ele>
        <time>2015-09-10T14:28:46Z</time>
      </trkpt>
      <trkpt lat="42.15809" lon="9.06763">
        <ele>1535.84</ele>
        <time>2015-09-10T14:29:04Z</time>
      </trkpt>
      <trkpt lat="42.15802" lon="9.06766">
        <ele>1533.44</ele>
        <time>2015-09-10T14:29:22Z</time>
      </trkpt>
      <trkpt lat="42.15799" lon="9.06773">
        <ele>1531.52</ele>
        <time>2015-09-10T14:29:37Z</time>
      </trkpt>
      <trkpt lat="42.15795" lon="9.06779">
        <ele>1528.63</ele>
        <time>2015-09-10T14:29:53Z</time>
      </trkpt>
      <trkpt lat="42.15793" lon="9.06784">
        <ele>1526.71</ele>
        <time>2015-09-10T14:30:07Z</time>
      </trkpt>
      <trkpt lat="42.1579" lon="9.06788">
        <ele>1524.31</ele>
        <time>2015-09-10T14:30:22Z</time>
      </trkpt>
      <trkpt lat="42.15785" lon="9.06793">
        <ele>1521.9</ele>
        <time>2015-09-10T14:30:36Z</time>
      </trkpt>
      <trkpt lat="42.15782" lon="9.068">
        <ele>1519.5</ele>
        <time>2015-09-10T14:30:52Z</time>
      </trkpt>
      <trkpt lat="42.1578" lon="9.06803">
        <ele>1517.58</ele>
        <time>2015-09-10T14:30:59Z</time>
      </trkpt>
      <trkpt lat="42.15775" lon="9.06805">
        <ele>1516.62</ele>
        <time>2015-09-10T14:31:13Z</time>
      </trkpt>
      <trkpt lat="42.15772" lon="9.06805">
        <ele>1515.18</ele>
        <time>2015-09-10T14:31:27Z</time>
      </trkpt>
      <trkpt lat="42.1577" lon="9.06808">
        <ele>1514.21</ele>
        <time>2015-09-10T14:31:43Z</time>
      </trkpt>
      <trkpt lat="42.15768" lon="9.06813">
        <ele>1510.85</ele>
        <time>2015-09-10T14:31:57Z</time>
      </trkpt>
      <trkpt lat="42.15767" lon="9.06814">
        <ele>1510.85</ele>
        <time>2015-09-10T14:31:58Z</time>
      </trkpt>
      <trkpt lat="42.15762" lon="9.06819">
        <ele>1509.41</ele>
        <time>2015-09-10T14:32:13Z</time>
      </trkpt>
      <trkpt lat="42.15758" lon="9.06821">
        <ele>1507.48</ele>
        <time>2015-09-10T14:32:30Z</time>
      </trkpt>
      <trkpt lat="42.15753" lon="9.06828">
        <ele>1504.6</ele>
        <time>2015-09-10T14:32:46Z</time>
      </trkpt>
      <trkpt lat="42.15752" lon="9.06835">
        <ele>1502.68</ele>
        <time>2015-09-10T14:33:01Z</time>
      </trkpt>
      <trkpt lat="42.15748" lon="9.06839">
        <ele>1500.27</ele>
        <time>2015-09-10T14:33:17Z</time>
      </trkpt>
      <trkpt lat="42.15746" lon="9.06842">
        <ele>1498.35</ele>
        <time>2015-09-10T14:33:32Z</time>
      </trkpt>
      <trkpt lat="42.15743" lon="9.06843">
        <ele>1495.95</ele>
        <time>2015-09-10T14:33:46Z</time>
      </trkpt>
      <trkpt lat="42.1574" lon="9.06844">
        <ele>1494.99</ele>
        <time>2015-09-10T14:34:01Z</time>
      </trkpt>
      <trkpt lat="42.15735" lon="9.06844">
        <ele>1493.06</ele>
        <time>2015-09-10T14:34:18Z</time>
      </trkpt>
      <trkpt lat="42.15729" lon="9.06845">
        <ele>1491.14</ele>
        <time>2015-09-10T14:34:35Z</time>
      </trkpt>
      <trkpt lat="42.15725" lon="9.0685">
        <ele>1488.74</ele>
        <time>2015-09-10T14:34:51Z</time>
      </trkpt>
      <trkpt lat="42.15719" lon="9.06854">
        <ele>1485.85</ele>
        <time>2015-09-10T14:35:08Z</time>
      </trkpt>
      <trkpt lat="42.15712" lon="9.06859">
        <ele>1482.49</ele>
        <time>2015-09-10T14:35:26Z</time>
      </trkpt>
      <trkpt lat="42.15703" lon="9.0686">
        <ele>1480.57</ele>
        <time>2015-09-10T14:35:41Z</time>
      </trkpt>
      <trkpt lat="42.15696" lon="9.06868">
        <ele>1477.68</ele>
        <time>2015-09-10T14:35:58Z</time>
      </trkpt>
      <trkpt lat="42.1569" lon="9.06875">
        <ele>1474.8</ele>
        <time>2015-09-10T14:36:12Z</time>
      </trkpt>
      <trkpt lat="42.15684" lon="9.06883">
        <ele>1471.44</ele>
        <time>2015-09-10T14:36:29Z</time>
      </trkpt>
      <trkpt lat="42.1568" lon="9.0689">
        <ele>1469.03</ele>
        <time>2015-09-10T14:36:43Z</time>
      </trkpt>
      <trkpt lat="42.15676" lon="9.06898">
        <ele>1466.15</ele>
        <time>2015-09-10T14:36:59Z</time>
      </trkpt>
      <trkpt lat="42.15674" lon="9.06905">
        <ele>1464.23</ele>
        <time>2015-09-10T14:37:14Z</time>
      </trkpt>
      <trkpt lat="42.15666" lon="9.06909">
        <ele>1461.82</ele>
        <time>2015-09-10T14:37:30Z</time>
      </trkpt>
      <trkpt lat="42.15657" lon="9.06918">
        <ele>1458.94</ele>
        <time>2015-09-10T14:37:47Z</time>
      </trkpt>
      <trkpt lat="42.15653" lon="9.06924">
        <ele>1456.53</ele>
        <time>2015-09-10T14:38:02Z</time>
      </trkpt>
      <trkpt lat="42.1565" lon="9.06927">
        <ele>1455.09</ele>
        <time>2015-09-10T14:38:09Z</time>
      </trkpt>
      <trkpt lat="42.15646" lon="9.0693">
        <ele>1454.13</ele>
        <time>2015-09-10T14:38:16Z</time>
      </trkpt>
      <trkpt lat="42.15639" lon="9.06936">
        <ele>1452.21</ele>
        <time>2015-09-10T14:38:30Z</time>
      </trkpt>
      <trkpt lat="42.15631" lon="9.06941">
        <ele>1450.29</ele>
        <time>2015-09-10T14:38:45Z</time>
      </trkpt>
      <trkpt lat="42.15628" lon="9.06947">
        <ele>1447.4</ele>
        <time>2015-09-10T14:38:59Z</time>
      </trkpt>
      <trkpt lat="42.15623" lon="9.06951">
        <ele>1445.96</ele>
        <time>2015-09-10T14:39:13Z</time>
      </trkpt>
      <trkpt lat="42.15617" lon="9.0696">
        <ele>1444.04</ele>
        <time>2015-09-10T14:39:27Z</time>
      </trkpt>
      <trkpt lat="42.15616" lon="9.0697">
        <ele>1441.15</ele>
        <time>2015-09-10T14:39:39Z</time>
      </trkpt>
      <trkpt lat="42.15614" lon="9.06974">
        <ele>1440.67</ele>
        <time>2015-09-10T14:39:43Z</time>
      </trkpt>
      <trkpt lat="42.15614" lon="9.06984">
        <ele>1439.23</ele>
        <time>2015-09-10T14:39:53Z</time>
      </trkpt>
      <trkpt lat="42.15613" lon="9.0699">
        <ele>1438.27</ele>
        <time>2015-09-10T14:40:14Z</time>
      </trkpt>
      <trkpt lat="42.15613" lon="9.06991">
        <ele>1438.27</ele>
        <time>2015-09-10T14:40:15Z</time>
      </trkpt>
      <trkpt lat="42.15604" lon="9.06995">
        <ele>1437.31</ele>
        <time>2015-09-10T14:40:26Z</time>
      </trkpt>
      <trkpt lat="42.15594" lon="9.07001">
        <ele>1436.35</ele>
        <time>2015-09-10T14:40:37Z</time>
      </trkpt>
      <trkpt lat="42.15581" lon="9.07014">
        <ele>1435.39</ele>
        <time>2015-09-10T14:40:57Z</time>
      </trkpt>
      <trkpt lat="42.15575" lon="9.07027">
        <ele>1436.35</ele>
        <time>2015-09-10T14:41:12Z</time>
      </trkpt>
      <trkpt lat="42.15571" lon="9.07041">
        <ele>1438.27</ele>
        <time>2015-09-10T14:41:29Z</time>
      </trkpt>
      <trkpt lat="42.15569" lon="9.07054">
        <ele>1439.71</ele>
        <time>2015-09-10T14:41:45Z</time>
      </trkpt>
      <trkpt lat="42.15566" lon="9.07064">
        <ele>1441.15</ele>
        <time>2015-09-10T14:42:01Z</time>
      </trkpt>
      <trkpt lat="42.15562" lon="9.07074">
        <ele>1443.56</ele>
        <time>2015-09-10T14:42:19Z</time>
      </trkpt>
      <trkpt lat="42.15559" lon="9.07084">
        <ele>1445.48</ele>
        <time>2015-09-10T14:42:36Z</time>
      </trkpt>
      <trkpt lat="42.1556" lon="9.07096">
        <ele>1446.44</ele>
        <time>2015-09-10T14:42:52Z</time>
      </trkpt>
      <trkpt lat="42.15559" lon="9.0711">
        <ele>1448.36</ele>
        <time>2015-09-10T14:43:12Z</time>
      </trkpt>
      <trkpt lat="42.15556" lon="9.07119">
        <ele>1449.81</ele>
        <time>2015-09-10T14:43:29Z</time>
      </trkpt>
      <trkpt lat="42.15556" lon="9.07129">
        <ele>1451.73</ele>
        <time>2015-09-10T14:43:44Z</time>
      </trkpt>
      <trkpt lat="42.15555" lon="9.07136">
        <ele>1453.17</ele>
        <time>2015-09-10T14:44:01Z</time>
      </trkpt>
      <trkpt lat="42.15555" lon="9.07145">
        <ele>1454.61</ele>
        <time>2015-09-10T14:44:15Z</time>
      </trkpt>
      <trkpt lat="42.15554" lon="9.07155">
        <ele>1457.02</ele>
        <time>2015-09-10T14:44:32Z</time>
      </trkpt>
      <trkpt lat="42.15551" lon="9.07164">
        <ele>1458.46</ele>
        <time>2015-09-10T14:44:48Z</time>
      </trkpt>
      <trkpt lat="42.15554" lon="9.07175">
        <ele>1458.94</ele>
        <time>2015-09-10T14:45:04Z</time>
      </trkpt>
      <trkpt lat="42.15554" lon="9.07184">
        <ele>1460.86</ele>
        <time>2015-09-10T14:45:19Z</time>
      </trkpt>
      <trkpt lat="42.15553" lon="9.07195">
        <ele>1461.82</ele>
        <time>2015-09-10T14:45:38Z</time>
      </trkpt>
      <trkpt lat="42.15552" lon="9.07203">
        <ele>1463.74</ele>
        <time>2015-09-10T14:45:51Z</time>
      </trkpt>
      <trkpt lat="42.15547" lon="9.07208">
        <ele>1465.19</ele>
        <time>2015-09-10T14:46:06Z</time>
      </trkpt>
      <trkpt lat="42.15541" lon="9.07211">
        <ele>1466.63</ele>
        <time>2015-09-10T14:46:21Z</time>
      </trkpt>
      <trkpt lat="42.15534" lon="9.07215">
        <ele>1468.55</ele>
        <time>2015-09-10T14:46:37Z</time>
      </trkpt>
      <trkpt lat="42.15525" lon="9.07216">
        <ele>1469.51</ele>
        <time>2015-09-10T14:46:54Z</time>
      </trkpt>
      <trkpt lat="42.15515" lon="9.07214">
        <ele>1470.95</ele>
        <time>2015-09-10T14:47:11Z</time>
      </trkpt>
      <trkpt lat="42.15511" lon="9.07216">
        <ele>1471.44</ele>
        <time>2015-09-10T14:47:30Z</time>
      </trkpt>
      <trkpt lat="42.15506" lon="9.07219">
        <ele>1469.99</ele>
        <time>2015-09-10T14:47:44Z</time>
      </trkpt>
      <trkpt lat="42.15507" lon="9.0722">
        <ele>1469.99</ele>
        <time>2015-09-10T14:48:13Z</time>
      </trkpt>
      <trkpt lat="42.15506" lon="9.07224">
        <ele>1469.03</ele>
        <time>2015-09-10T14:48:28Z</time>
      </trkpt>
      <trkpt lat="42.155" lon="9.07227">
        <ele>1466.63</ele>
        <time>2015-09-10T14:48:42Z</time>
      </trkpt>
      <trkpt lat="42.15493" lon="9.0723">
        <ele>1464.23</ele>
        <time>2015-09-10T14:48:57Z</time>
      </trkpt>
      <trkpt lat="42.15494" lon="9.07233">
        <ele>1462.3</ele>
        <time>2015-09-10T14:49:13Z</time>
      </trkpt>
      <trkpt lat="42.1549" lon="9.07236">
        <ele>1459.9</ele>
        <time>2015-09-10T14:49:30Z</time>
      </trkpt>
      <trkpt lat="42.15487" lon="9.07242">
        <ele>1457.02</ele>
        <time>2015-09-10T14:49:48Z</time>
      </trkpt>
      <trkpt lat="42.15483" lon="9.07245">
        <ele>1454.61</ele>
        <time>2015-09-10T14:50:07Z</time>
      </trkpt>
      <trkpt lat="42.15478" lon="9.07247">
        <ele>1452.69</ele>
        <time>2015-09-10T14:50:21Z</time>
      </trkpt>
      <trkpt lat="42.15475" lon="9.07249">
        <ele>1450.29</ele>
        <time>2015-09-10T14:50:37Z</time>
      </trkpt>
      <trkpt lat="42.15474" lon="9.07249">
        <ele>1450.29</ele>
        <time>2015-09-10T14:50:46Z</time>
      </trkpt>
      <trkpt lat="42.15468" lon="9.07252">
        <ele>1448.36</ele>
        <time>2015-09-10T14:51:02Z</time>
      </trkpt>
      <trkpt lat="42.15462" lon="9.07256">
        <ele>1446.44</ele>
        <time>2015-09-10T14:51:19Z</time>
      </trkpt>
      <trkpt lat="42.15456" lon="9.0726">
        <ele>1443.08</ele>
        <time>2015-09-10T14:51:35Z</time>
      </trkpt>
      <trkpt lat="42.15451" lon="9.07264">
        <ele>1440.67</ele>
        <time>2015-09-10T14:51:51Z</time>
      </trkpt>
      <trkpt lat="42.1545" lon="9.07269">
        <ele>1438.75</ele>
        <time>2015-09-10T14:52:07Z</time>
      </trkpt>
      <trkpt lat="42.15447" lon="9.07271">
        <ele>1436.83</ele>
        <time>2015-09-10T14:52:22Z</time>
      </trkpt>
      <trkpt lat="42.15444" lon="9.07274">
        <ele>1434.91</ele>
        <time>2015-09-10T14:52:36Z</time>
      </trkpt>
      <trkpt lat="42.15436" lon="9.07277">
        <ele>1432.98</ele>
        <time>2015-09-10T14:52:51Z</time>
      </trkpt>
      <trkpt lat="42.1543" lon="9.07284">
        <ele>1430.1</ele>
        <time>2015-09-10T14:53:10Z</time>
      </trkpt>
      <trkpt lat="42.15429" lon="9.07285">
        <ele>1429.62</ele>
        <time>2015-09-10T14:53:12Z</time>
      </trkpt>
      <trkpt lat="42.15424" lon="9.07291">
        <ele>1427.7</ele>
        <time>2015-09-10T14:53:29Z</time>
      </trkpt>
      <trkpt lat="42.15418" lon="9.07296">
        <ele>1425.29</ele>
        <time>2015-09-10T14:53:44Z</time>
      </trkpt>
      <trkpt lat="42.1541" lon="9.073">
        <ele>1422.89</ele>
        <time>2015-09-10T14:54:02Z</time>
      </trkpt>
      <trkpt lat="42.154" lon="9.07305">
        <ele>1420.97</ele>
        <time>2015-09-10T14:54:19Z</time>
      </trkpt>
      <trkpt lat="42.15391" lon="9.07308">
        <ele>1419.52</ele>
        <time>2015-09-10T14:54:34Z</time>
      </trkpt>
      <trkpt lat="42.15382" lon="9.07314">
        <ele>1417.12</ele>
        <time>2015-09-10T14:54:51Z</time>
      </trkpt>
      <trkpt lat="42.15374" lon="9.07316">
        <ele>1416.16</ele>
        <time>2015-09-10T14:55:07Z</time>
      </trkpt>
      <trkpt lat="42.15366" lon="9.07323">
        <ele>1414.72</ele>
        <time>2015-09-10T14:55:26Z</time>
      </trkpt>
      <trkpt lat="42.15363" lon="9.07327">
        <ele>1412.79</ele>
        <time>2015-09-10T14:55:40Z</time>
      </trkpt>
      <trkpt lat="42.1536" lon="9.07331">
        <ele>1410.87</ele>
        <time>2015-09-10T14:55:53Z</time>
      </trkpt>
      <trkpt lat="42.15353" lon="9.07335">
        <ele>1408.95</ele>
        <time>2015-09-10T14:56:11Z</time>
      </trkpt>
      <trkpt lat="42.15349" lon="9.07338">
        <ele>1407.99</ele>
        <time>2015-09-10T14:56:27Z</time>
      </trkpt>
      <trkpt lat="42.15344" lon="9.07346">
        <ele>1406.55</ele>
        <time>2015-09-10T14:56:42Z</time>
      </trkpt>
      <trkpt lat="42.15338" lon="9.07348">
        <ele>1406.55</ele>
        <time>2015-09-10T14:56:59Z</time>
      </trkpt>
      <trkpt lat="42.15336" lon="9.0735">
        <ele>1404.62</ele>
        <time>2015-09-10T14:57:15Z</time>
      </trkpt>
      <trkpt lat="42.15325" lon="9.07353">
        <ele>1404.62</ele>
        <time>2015-09-10T14:57:33Z</time>
      </trkpt>
      <trkpt lat="42.15318" lon="9.07351">
        <ele>1404.62</ele>
        <time>2015-09-10T14:57:47Z</time>
      </trkpt>
      <trkpt lat="42.15314" lon="9.07351">
        <ele>1406.07</ele>
        <time>2015-09-10T14:57:59Z</time>
      </trkpt>
      <trkpt lat="42.15307" lon="9.07356">
        <ele>1404.62</ele>
        <time>2015-09-10T14:58:14Z</time>
      </trkpt>
      <trkpt lat="42.15307" lon="9.07363">
        <ele>1403.18</ele>
        <time>2015-09-10T14:58:29Z</time>
      </trkpt>
      <trkpt lat="42.15309" lon="9.07374">
        <ele>1401.26</ele>
        <time>2015-09-10T14:58:45Z</time>
      </trkpt>
      <trkpt lat="42.15316" lon="9.07386">
        <ele>1398.37</ele>
        <time>2015-09-10T14:59:01Z</time>
      </trkpt>
      <trkpt lat="42.15324" lon="9.07387">
        <ele>1397.41</ele>
        <time>2015-09-10T14:59:17Z</time>
      </trkpt>
      <trkpt lat="42.15322" lon="9.07382">
        <ele>1397.41</ele>
        <time>2015-09-10T14:59:39Z</time>
      </trkpt>
      <trkpt lat="42.15321" lon="9.07381">
        <ele>1397.41</ele>
        <time>2015-09-10T14:59:55Z</time>
      </trkpt>
      <trkpt lat="42.15323" lon="9.07383">
        <ele>1396.93</ele>
        <time>2015-09-10T15:00:23Z</time>
      </trkpt>
      <trkpt lat="42.15325" lon="9.07379">
        <ele>1398.37</ele>
        <time>2015-09-10T15:00:43Z</time>
      </trkpt>
      <trkpt lat="42.15327" lon="9.07376">
        <ele>1398.86</ele>
        <time>2015-09-10T15:01:02Z</time>
      </trkpt>
      <trkpt lat="42.15322" lon="9.07379">
        <ele>1398.37</ele>
        <time>2015-09-10T15:01:25Z</time>
      </trkpt>
      <trkpt lat="42.15322" lon="9.07384">
        <ele>1398.37</ele>
        <time>2015-09-10T15:01:48Z</time>
      </trkpt>
      <trkpt lat="42.15323" lon="9.07378">
        <ele>1398.37</ele>
        <time>2015-09-10T15:02:01Z</time>
      </trkpt>
      <trkpt lat="42.15325" lon="9.07377">
        <ele>1398.86</ele>
        <time>2015-09-10T15:02:15Z</time>
      </trkpt>
      <trkpt lat="42.15322" lon="9.07357">
        <ele>1399.34</ele>
        <time>2015-09-10T15:02:45Z</time>
      </trkpt>
      <trkpt lat="42.15322" lon="9.07356">
        <ele>1399.34</ele>
        <time>2015-09-10T15:02:46Z</time>
      </trkpt>
      <trkpt lat="42.15329" lon="9.07352">
        <ele>1399.34</ele>
        <time>2015-09-10T15:02:54Z</time>
      </trkpt>
      <trkpt lat="42.15331" lon="9.07373">
        <ele>1399.34</ele>
        <time>2015-09-10T15:03:13Z</time>
      </trkpt>
    </trkseg>
  </trk>
</gpx>